[[{"header":{"parameterUnit":"m.s-1","parameterCategory":1,"la1":31.0,"la2":29.5877,"lo1":-88.7671,"lo2":-86.6584,"dy":0.0162,"dx":0.0185,"nx":115,"ny":88,"refTime":"2023-09-10T06:00:00:Z","depth":0,"parameterNumber":2,"parameterNumberName":"U-component_of_WINDS"},"data":[0.0,0.0,0.0,0.0,0.0,0.0,0.0,0.0,0.0,0.0,0.0,0.0,0.0,0.0,0.0,0.0,0.0,0.0,0.0,0.0,0.0,0.0,0.0,0.0,0.0,0.0,0.0,0.0,0.0,0.0,0.0,0.0,0.0,0.0,0.0,0.0,0.0,0.0,0.0,0.0,0.0,0.0,0.0,0.0,0.0,0.0,0.0,0.0,0.0,0.0,0.0,0.0,0.0,0.0,0.0,0.0,0.0,0.0,0.0,0.0,0.0,0.0,0.0,0.0,0.0,0.0,0.0,0.0,0.0,0.0,0.0,0.0,0.0,0.0,0.0,0.0,0.0,0.0,0.0,0.0,0.0,0.0,0.0,0.0,0.0,0.0,0.0,0.0,0.0,0.0,0.0,0.0,0.0,0.0,0.0,0.0,0.0,0.0,0.0,0.0,0.0,0.0,0.0,0.0,0.0,0.0,0.0,0.0,0.0,0.0,0.0,0.0,0.0,0.0,0.0,0.0,0.0,0.0,0.0,0.0,0.0,0.0,0.0,0.0,0.0,0.0,0.0,0.0,0.0,0.0,0.0,0.0,0.0,0.0,0.0,0.0,0.0,0.0,0.0,0.0,0.0,0.0,0.0,0.0,0.0,0.0,0.0,0.0,0.0,0.0,0.0,0.0,0.0,0.0,0.0,0.0,0.0,0.0,0.0,0.0,0.0,0.0,0.0,0.0,0.0,0.0,0.0,0.0,0.0,0.0,0.0,0.0,0.0,0.0,0.0,0.0,0.0,0.0,0.0,0.0,0.0,0.0,0.0,0.0,0.0,0.0,0.0,0.0,0.0,0.0,0.0,0.0,0.0,0.0,0.0,0.0,0.0,0.0,0.0,0.0,0.0,0.0,0.0,0.0,0.0,0.0,0.0,0.0,0.0,0.0,0.0,0.0,0.0,0.0,0.0,0.0,0.0,0.0,0.0,0.0,0.0,0.0,0.0,0.0,0.0,0.0,0.0,0.0,0.0,0.0,0.0,0.0,0.0,0.0,0.0,0.0,0.0,0.0,0.0,0.0,0.0,0.0,0.0,0.0,0.0,0.0,0.0,0.0,0.0,0.0,0.0,0.0,0.0,0.0,0.0,0.0,0.0,0.0,0.0,0.0,0.0,0.0,0.0,0.0,0.0,0.0,0.0,0.0,0.0,0.0,0.0,0.0,0.0,0.0,0.0,0.0,0.0,0.0,0.0,0.0,0.0,0.0,0.0,0.0,0.0,0.0,0.0,0.0,0.0,0.0,0.0,0.0,0.0,0.0,0.0,0.0,0.0,0.0,0.0,0.0,0.0,0.0,0.0,0.0,0.0,0.0,0.0,0.0,0.0,0.0,0.0,0.0,0.0,0.0,0.0,0.0,0.0,0.0,0.0,0.0,0.0,0.0,0.0,0.0,0.0,0.0,0.0,0.0,0.0,0.0,0.0,0.0,0.0,0.0,0.0,0.0,0.0,0.0,0.0,0.0,0.0,0.0,0.0,0.0,0.0,0.0,0.0,0.0,0.0,0.0,0.0,0.0,0.0,0.0,0.0,0.0,0.0,0.0,0.0,0.0,0.0,0.0,0.0,0.0,0.0,0.0,0.0,0.0,0.0,0.0,0.0,0.0,0.0,0.0,0.0,0.0,0.0,0.0,0.0,0.0,0.0,0.0,0.0,0.0,0.0,0.0,0.0,0.0,0.0,0.0,0.0,0.0,0.0,0.0,0.0,0.0,0.0,0.0,0.0,0.0,0.0,0.0,0.0,0.0,0.0,0.0,0.0,0.0,0.0,0.0,0.0,0.0,0.0,0.0,0.0,0.0,0.0,0.0,0.0,0.0,0.0,0.0,0.0,0.0,0.0,0.0,0.0,0.0,0.0,0.0,0.0,0.0,0.0,0.0,0.0,0.0,0.0,0.0,0.0,0.0,0.0,0.0,0.0,0.0,0.0,0.0,0.0,0.0,0.0,0.0,0.0,0.0,0.0,0.0,0.0,0.0,0.0,0.0,0.0,0.0,0.0,0.0,0.0,0.0,0.0,0.0,0.0,0.0,0.0,0.0,0.0,0.0,0.0,0.0,0.0,0.0,0.0,0.0,0.0,0.0,0.0,0.0,0.0,0.0,0.0,0.0,0.0,0.0,0.0,0.0,0.0,0.0,0.0,0.0,0.0,0.0,0.0,0.0,0.0,0.0,0.0,0.0,0.0,0.0,0.0,0.0,0.0,0.0,0.0,0.0,0.0,0.0,0.0,0.0,0.0,0.0,0.0,0.0,0.0,0.0,0.0,0.0,0.0,0.0,0.0,0.0,0.0,0.0,0.0,0.0,0.0,0.0,0.0,0.0,0.0,0.0,0.0,0.0,0.0,0.0,0.0,0.0,0.0,0.0,0.0,0.0,0.0,0.0,0.0,0.0,0.0,0.0,0.0,0.0,0.0,0.0,0.0,0.0,0.0,0.0,0.0,0.0,0.0,0.0,0.0,0.0,0.0,0.0,0.0,0.0,0.0,0.0,0.0,0.0,0.0,0.0,0.0,0.0,0.0,0.0,0.0,0.0,0.0,0.0,0.0,0.0,0.0,0.0,0.0,0.0,0.0,0.0,0.0,0.0,0.0,0.0,0.0,0.0,0.0,0.0,0.0,0.0,0.0,0.0,0.0,0.0,0.0,0.0,0.0,0.0,0.0,0.0,0.0,0.0,0.0,0.0,0.0,0.0,0.0,0.0,0.0,0.0,0.0,0.0,0.0,0.0,0.0,0.0,0.0,0.0,0.0,0.0,0.0,0.0,0.0,0.0,0.0,0.0,0.0,0.0,0.0,0.0,0.0,0.0,0.0,0.0,0.0,0.0,0.0,0.0,0.0,0.0,0.0,0.0,0.0,0.0,0.0,0.0,0.0,0.0,0.0,0.0,0.0,0.0,0.0,0.0,0.0,0.0,0.0,0.0,0.0,0.0,0.0,0.0,0.0,0.0,0.0,0.0,0.0,0.0,0.0,0.0,0.0,0.0,0.0,0.0,0.0,0.0,0.0,0.0,0.0,0.0,0.0,0.0,0.0,0.0,0.0,0.0,0.0,0.0,0.0,0.0,0.0,0.0,0.0,0.0,0.0,0.0,0.0,0.0,0.0,0.0,0.0,0.0,0.0,0.0,0.0,0.0,0.0,0.0,0.0,0.0,0.0,0.0,0.0,0.0,0.0,0.0,0.0,0.0,0.0,0.0,0.0,0.0,0.0,0.0,0.0,0.0,0.0,0.0,0.0,0.0,0.0,0.0,0.0,0.0,0.0,0.0,0.0,0.0,0.0,0.0,0.0,0.0,0.0,0.0,0.0,0.0,0.0,0.0,0.0,0.0,0.0,0.0,0.0,0.0,0.0,0.0,0.0,0.0,0.0,0.0,0.0,0.0,0.0,0.0,0.0,0.0,0.0,0.0,0.0,0.0,0.0,0.0,0.0,0.0,0.0,0.0,0.0,0.0,0.0,0.0,0.0,0.0,0.0,0.0,0.0,0.0,0.0,0.0,0.0,0.0,0.0,0.0,0.0,0.0,0.0,0.0,0.0,0.0,0.0,0.0,0.0,0.0,0.0,0.0,0.0,0.0,0.0,0.0,0.0,0.0,0.0,0.0,0.0,0.0,0.0,0.0,0.0,0.0,0.0,0.0,0.0,0.0,0.0,0.0,0.0,0.0,0.0,0.0,0.0,0.0,0.0,0.0,0.0,0.0,0.0,0.0,0.0,0.0,0.0,0.0,0.0,0.0,0.0,0.0,0.0,0.0,0.0,0.0,0.0,0.0,0.0,0.0,0.0,0.0,0.0,0.0,0.0,0.0,0.0,0.0,0.0,0.0,0.0,0.0,0.0,0.0,0.0,0.0,0.0,0.0,0.0,0.0,0.0,0.0,0.0,0.0,0.0,0.0,0.0,0.0,0.0,0.0,0.0,0.0,0.0,0.0,0.0,0.0,0.0,0.0,0.0,0.0,0.0,0.0,0.0,0.0,0.0,0.0,0.0,0.0,0.0,0.0,0.0,0.0,0.0,0.0,0.0,0.0,0.0,0.0,0.0,0.0,0.0,0.0,0.0,0.0,0.0,0.0,0.0,0.0,0.0,0.0,0.0,0.0,0.0,0.0,0.0,0.0,0.0,0.0,0.0,0.0,0.0,0.0,0.0,0.0,0.0,0.0,0.0,0.0,0.0,0.0,0.0,0.0,0.0,0.0,0.0,0.0,0.0,0.0,0.0,0.0,0.0,0.0,-0.9296,0.0,0.0,0.0,0.0,0.0,0.0,0.0,0.0,0.0,0.0,0.0,0.0,0.0,0.0,0.0,0.0,0.0,0.0,0.0,0.0,0.0,0.0,0.0,0.0,0.0,0.0,0.0,0.0,0.0,0.0,0.0,0.0,0.0,0.0,0.0,0.0,0.0,0.0,0.0,0.0,0.0,0.0,0.0,0.0,0.0,0.0,0.0,0.0,0.0,0.0,0.0,0.0,0.0,0.0,0.0,0.0,0.0,0.0,0.0,0.0,0.0,0.0,0.0,0.0,0.0,0.0,0.0,0.0,0.0,0.0,0.0,0.0,0.0,0.0,0.0,0.0,0.0,0.0,0.0,0.0,0.0,0.0,0.0,0.0,0.0,0.0,0.0,0.0,0.0,0.0,0.0,0.0,0.0,0.0,0.0,0.0,0.0,0.0,0.0,0.0,0.0,0.0,0.0,0.0,0.0,0.0,0.0,0.0,0.0,0.0,-0.7797,-0.8188,-0.8614,-0.8964,-0.9227,0.0,0.0,0.0,0.0,0.0,0.0,0.0,0.0,0.0,0.0,0.0,0.0,0.0,0.0,0.0,0.0,0.0,0.0,0.0,0.0,0.0,0.0,0.0,0.0,0.0,0.0,0.0,0.0,0.0,0.0,0.0,0.0,0.0,0.0,0.0,0.0,0.0,0.0,0.0,0.0,0.0,0.0,0.0,0.0,0.0,0.0,0.0,0.0,0.0,0.0,0.0,0.0,0.0,0.0,0.0,0.0,0.0,0.0,0.0,0.0,0.0,0.0,0.0,0.0,0.0,0.0,0.0,0.0,0.0,0.0,0.0,0.0,0.0,0.0,0.0,0.0,0.0,0.0,0.0,0.0,0.0,0.0,0.0,0.0,0.0,0.0,0.0,0.0,0.0,0.0,0.0,0.0,0.0,0.0,0.0,0.0,0.0,0.0,0.0,0.0,0.0,0.0,0.0,0.0,0.0,0.0,0.0,0.0,0.0,0.0,0.0,0.0,-0.8587,-0.8921,-0.9267,0.0,0.0,0.0,0.0,0.0,0.0,0.0,0.0,0.0,0.0,0.0,0.0,0.0,0.0,0.0,0.0,0.0,0.0,0.0,0.0,0.0,0.0,0.0,0.0,0.0,0.0,0.0,0.0,0.0,0.0,0.0,0.0,0.0,0.0,0.0,0.0,0.0,0.0,0.0,0.0,0.0,0.0,0.0,0.0,0.0,0.0,0.0,0.0,0.0,0.0,0.0,0.0,0.0,0.0,0.0,0.0,0.0,0.0,0.0,0.0,0.0,0.0,0.0,0.0,0.0,0.0,0.0,0.0,0.0,0.0,0.0,0.0,0.0,0.0,0.0,0.0,0.0,0.0,0.0,0.0,0.0,0.0,0.0,0.0,0.0,0.0,0.0,0.0,0.0,0.0,0.0,0.0,0.0,0.0,0.0,0.0,0.0,0.0,0.0,0.0,0.0,0.0,0.0,0.0,0.0,0.0,0.0,0.0,0.0,0.0,-0.7863,-0.8191,-0.853,0.0,-0.9448,0.0,0.0,0.0,0.0,0.0,0.0,0.0,0.0,0.0,0.0,0.0,0.0,0.0,0.0,0.0,0.0,0.0,0.0,0.0,0.0,0.0,0.0,0.0,0.0,0.0,0.0,0.0,0.0,0.0,0.0,0.0,0.0,0.0,0.0,0.0,0.0,0.0,0.0,0.0,0.0,0.0,0.0,0.0,0.0,0.0,0.0,0.0,0.0,0.0,0.0,0.0,0.0,0.0,0.0,0.0,0.0,0.0,0.0,0.0,0.0,0.0,0.0,0.0,0.0,0.0,0.0,0.0,0.0,0.0,0.0,0.0,0.0,0.0,0.0,0.0,0.0,0.0,0.0,0.0,0.0,0.0,0.0,0.0,0.0,0.0,0.0,0.0,0.0,0.0,0.0,0.0,0.0,0.0,0.0,0.0,0.0,0.0,0.0,0.0,0.0,0.0,0.0,0.0,0.0,0.0,0.0,0.0,0.0,0.0,0.0,-0.7899,-0.8206,-0.8646,-0.9045,0.0,0.0,0.0,0.0,0.0,0.0,0.0,0.0,0.0,0.0,0.0,0.0,0.0,0.0,0.0,0.0,0.0,0.0,0.0,0.0,0.0,0.0,0.0,0.0,0.0,0.0,0.0,0.0,0.0,0.0,0.0,0.0,0.0,0.0,0.0,0.0,0.0,0.0,0.0,0.0,0.0,0.0,0.0,0.0,0.0,0.0,0.0,0.0,0.0,0.0,0.0,0.0,0.0,0.0,0.0,0.0,0.0,0.0,0.0,0.0,0.0,0.0,0.0,0.0,0.0,0.0,0.0,0.0,0.0,0.0,0.0,0.0,0.0,0.0,0.0,0.0,0.0,0.0,0.0,0.0,0.0,0.0,0.0,0.0,0.0,0.0,0.0,0.0,0.0,0.0,0.0,0.0,0.0,0.0,0.0,0.0,0.0,0.0,0.0,0.0,0.0,0.0,0.0,0.0,0.0,0.0,0.0,0.0,0.0,0.0,-0.7679,-0.7956,-0.8268,-0.8732,-0.9071,-0.9297,0.0,0.0,0.0,0.0,0.0,0.0,0.0,0.0,0.0,0.0,0.0,0.0,0.0,0.0,0.0,0.0,0.0,0.0,0.0,0.0,0.0,0.0,0.0,0.0,0.0,0.0,0.0,0.0,0.0,0.0,0.0,0.0,0.0,0.0,0.0,0.0,0.0,0.0,0.0,0.0,0.0,0.0,0.0,0.0,0.0,0.0,0.0,0.0,0.0,0.0,0.0,0.0,0.0,0.0,0.0,0.0,0.0,0.0,0.0,0.0,0.0,0.0,0.0,0.0,0.0,0.0,0.0,0.0,0.0,0.0,0.0,0.0,0.0,0.0,0.0,0.0,0.0,0.0,0.0,0.0,0.0,0.0,0.0,0.0,0.0,0.0,0.0,0.0,0.0,0.0,0.0,0.0,0.0,0.0,0.0,0.0,0.0,0.0,0.0,0.0,0.0,0.0,0.0,0.0,0.0,0.0,0.0,0.0,-0.7611,-0.7753,-0.804,-0.849,-0.8758,-0.9022,0.0,0.0,0.0,0.0,0.0,0.0,0.0,0.0,0.0,0.0,0.0,0.0,0.0,0.0,0.0,0.0,0.0,0.0,0.0,0.0,0.0,0.0,0.0,0.0,0.0,0.0,0.0,0.0,0.0,0.0,0.0,0.0,0.0,0.0,0.0,0.0,0.0,0.0,0.0,0.0,0.0,0.0,0.0,0.0,0.0,0.0,0.0,0.0,0.0,0.0,0.0,0.0,0.0,0.0,0.0,0.0,0.0,0.0,0.0,0.0,0.0,0.0,0.0,0.0,0.0,0.0,0.0,0.0,0.0,0.0,0.0,0.0,0.0,0.0,0.0,0.0,0.0,0.0,0.0,0.0,0.0,0.0,0.0,0.0,0.0,0.0,0.0,0.0,0.0,0.0,0.0,0.0,0.0,0.0,0.0,0.0,0.0,0.0,0.0,0.0,0.0,0.0,0.0,0.0,0.0,0.0,0.0,0.0,0.0,-0.8868,-0.9185,-0.9281,-0.9152,-0.9356,-0.9372,0.0,0.0,0.0,0.0,0.0,0.0,0.0,0.0,0.0,0.0,0.0,0.0,0.0,0.0,0.0,0.0,0.0,0.0,0.0,0.0,0.0,0.0,0.0,0.0,0.0,0.0,0.0,0.0,0.0,0.0,0.0,0.0,0.0,0.0,0.0,0.0,0.0,0.0,0.0,0.0,0.0,0.0,0.0,0.0,0.0,0.0,0.0,0.0,0.0,0.0,0.0,0.0,0.0,0.0,0.0,0.0,0.0,0.0,0.0,0.0,0.0,0.0,0.0,0.0,0.0,0.0,0.0,0.0,0.0,0.0,0.0,0.0,0.0,0.0,0.0,0.0,0.0,0.0,0.0,0.0,0.0,0.0,0.0,0.0,0.0,0.0,0.0,0.0,0.0,0.0,0.0,0.0,0.0,0.0,0.0,0.0,0.0,0.0,0.0,0.0,0.0,0.0,0.0,0.0,0.0,0.0,0.0,0.0,0.0,-0.9681,0.0,-1.0079,-0.9854,-0.9809,-0.9687,0.0,0.0,0.0,0.0,0.0,0.0,0.0,0.0,0.0,0.0,0.0,0.0,0.0,0.0,0.0,0.0,0.0,0.0,0.0,0.0,0.0,0.0,0.0,0.0,0.0,0.0,0.0,0.0,0.0,0.0,0.0,0.0,0.0,0.0,0.0,0.0,0.0,0.0,0.0,0.0,0.0,0.0,0.0,0.0,0.0,0.0,0.0,0.0,0.0,0.0,0.0,0.0,0.0,0.0,0.0,0.0,0.0,0.0,0.0,0.0,0.0,0.0,0.0,0.0,0.0,0.0,0.0,0.0,0.0,0.0,0.0,0.0,0.0,0.0,0.0,0.0,0.0,0.0,0.0,0.0,0.0,0.0,0.0,0.0,0.0,0.0,0.0,0.0,0.0,0.0,0.0,0.0,0.0,0.0,0.0,0.0,0.0,0.0,0.0,0.0,0.0,0.0,0.0,0.0,0.0,0.0,0.0,0.0,-0.9732,-0.9936,-1.0163,-1.0368,-1.0487,-1.0111,-0.9963,0.0,0.0,0.0,0.0,0.0,0.0,0.0,0.0,0.0,0.0,0.0,0.0,0.0,0.0,0.0,0.0,0.0,0.0,0.0,0.0,0.0,0.0,0.0,0.0,0.0,0.0,0.0,0.0,0.0,0.0,0.0,0.0,0.0,0.0,0.0,0.0,0.0,0.0,0.0,0.0,0.0,0.0,0.0,0.0,0.0,0.0,0.0,0.0,0.0,0.0,0.0,0.0,0.0,0.0,0.0,0.0,0.0,0.0,0.0,0.0,0.0,0.0,0.0,0.0,0.0,0.0,0.0,0.0,0.0,0.0,0.0,0.0,0.0,0.0,0.0,0.0,0.0,0.0,0.0,0.0,0.0,0.0,0.0,0.0,0.0,0.0,0.0,0.0,0.0,0.0,0.0,0.0,0.0,0.0,0.0,0.0,0.0,0.0,0.0,0.0,0.0,0.0,0.0,0.0,0.0,0.0,0.0,0.0,0.0,-1.1339,-1.1496,-1.1454,-1.1208,-1.1238,-1.0871,0.0,0.0,0.0,0.0,0.0,0.0,0.0,0.0,0.0,0.0,0.0,0.0,0.0,0.0,0.0,0.0,0.0,0.0,0.0,0.0,0.0,0.0,0.0,0.0,0.0,0.0,0.0,0.0,0.0,0.0,0.0,0.0,0.0,0.0,0.0,0.0,0.0,0.0,0.0,0.0,0.0,0.0,0.0,0.0,0.0,0.0,0.0,0.0,0.0,0.0,0.0,0.0,0.0,0.0,0.0,0.0,0.0,0.0,0.0,0.0,0.0,0.0,0.0,0.0,0.0,0.0,0.0,0.0,0.0,0.0,0.0,0.0,0.0,0.0,0.0,0.0,0.0,0.0,0.0,0.0,0.0,0.0,0.0,0.0,0.0,0.0,0.0,0.0,0.0,0.0,0.0,0.0,0.0,0.0,0.0,0.0,0.0,0.0,0.0,0.0,0.0,0.0,0.0,0.0,0.0,0.0,0.0,0.0,0.0,-1.1991,-1.2133,-1.2105,-1.1903,-1.1876,-1.1538,-1.0849,0.0,0.0,0.0,0.0,0.0,0.0,0.0,0.0,0.0,0.0,0.0,0.0,0.0,0.0,0.0,0.0,0.0,0.0,0.0,0.0,0.0,0.0,0.0,0.0,0.0,0.0,0.0,0.0,0.0,0.0,0.0,0.0,0.0,0.0,0.0,0.0,0.0,0.0,0.0,0.0,0.0,0.0,0.0,0.0,0.0,0.0,0.0,0.0,0.0,0.0,0.0,0.0,0.0,0.0,0.0,0.0,0.0,0.0,0.0,0.0,0.0,0.0,0.0,0.0,0.0,0.0,0.0,0.0,0.0,0.0,0.0,0.0,0.0,0.0,0.0,0.0,0.0,0.0,0.0,0.0,0.0,0.0,0.0,0.0,0.0,0.0,0.0,0.0,0.0,0.0,0.0,0.0,0.0,0.0,0.0,0.0,0.0,0.0,0.0,0.0,0.0,0.0,0.0,0.0,0.0,0.0,0.0,0.0,-1.1991,-1.2122,-1.2323,-1.2566,-1.2125,-1.1951,0.0,0.0,0.0,0.0,0.0,0.0,0.0,0.0,0.0,0.0,0.0,0.0,0.0,0.0,0.0,0.0,0.0,0.0,0.0,0.0,0.0,0.0,0.0,0.0,0.0,0.0,0.0,0.0,0.0,0.0,0.0,0.0,0.0,0.0,0.0,0.0,0.0,0.0,0.0,0.0,0.0,0.0,0.0,0.0,0.0,0.0,0.0,0.0,0.0,0.0,0.0,0.0,0.0,0.0,0.0,0.0,0.0,0.0,0.0,0.0,0.0,0.0,0.0,0.0,0.0,0.0,0.0,0.0,0.0,0.0,0.0,0.0,0.0,0.0,0.0,0.0,0.0,0.0,0.0,0.0,0.0,0.0,0.0,0.0,0.0,0.0,0.0,0.0,0.0,0.0,0.0,0.0,0.0,0.0,0.0,0.0,0.0,0.0,0.0,0.0,0.0,0.0,0.0,0.0,0.0,0.0,0.0,0.0,0.0,-1.1999,-1.2133,-1.2295,-1.2516,-1.2587,-1.2453,0.0,0.0,0.0,0.0,0.0,0.0,0.0,0.0,0.0,0.0,0.0,0.0,0.0,0.0,0.0,0.0,0.0,0.0,0.0,0.0,0.0,0.0,0.0,0.0,0.0,0.0,0.0,0.0,0.0,0.0,0.0,0.0,0.0,0.0,0.0,0.0,0.0,0.0,0.0,0.0,0.0,0.0,0.0,0.0,0.0,0.0,0.0,0.0,0.0,0.0,0.0,0.0,0.0,0.0,0.0,0.0,0.0,0.0,0.0,0.0,0.0,0.0,0.0,0.0,0.0,0.0,0.0,0.0,0.0,0.0,0.0,0.0,0.0,0.0,0.0,0.0,0.0,0.0,0.0,0.0,0.0,0.0,0.0,0.0,0.0,0.0,0.0,0.0,0.0,0.0,0.0,0.0,0.0,0.0,0.0,0.0,0.0,0.0,0.0,0.0,0.0,0.0,0.0,0.0,0.0,0.0,0.0,0.0,-1.1703,-1.1952,-1.2122,-1.2295,-1.2505,-1.2747,-1.28,0.0,0.0,0.0,0.0,0.0,0.0,0.0,0.0,0.0,0.0,0.0,0.0,0.0,0.0,0.0,0.0,0.0,0.0,0.0,0.0,0.0,0.0,0.0,0.0,0.0,0.0,0.0,0.0,0.0,0.0,0.0,0.0,0.0,0.0,0.0,0.0,0.0,0.0,0.0,0.0,0.0,0.0,0.0,0.0,0.0,0.0,0.0,0.0,0.0,0.0,0.0,0.0,0.0,0.0,0.0,0.0,0.0,0.0,0.0,0.0,0.0,0.0,0.0,0.0,0.0,0.0,0.0,0.0,0.0,0.0,0.0,0.0,0.0,0.0,0.0,0.0,0.0,0.0,0.0,0.0,0.0,0.0,0.0,0.0,0.0,0.0,0.0,0.0,0.0,0.0,0.0,0.0,0.0,0.0,0.0,0.0,0.0,0.0,0.0,0.0,0.0,0.0,0.0,0.0,0.0,0.0,0.0,0.0,-1.1692,-1.1902,-1.2101,-1.2295,-1.2497,-1.2757,-1.299,0.0,0.0,0.0,0.0,0.0,0.0,0.0,0.0,0.0,0.0,0.0,0.0,0.0,0.0,0.0,0.0,0.0,0.0,0.0,0.0,0.0,0.0,0.0,0.0,0.0,0.0,0.0,0.0,0.0,0.0,0.0,0.0,0.0,0.0,0.0,0.0,0.0,0.0,0.0,0.0,0.0,0.0,0.0,0.0,0.0,0.0,0.0,0.0,0.0,0.0,0.0,0.0,0.0,0.0,0.0,0.0,0.0,0.0,0.0,0.0,0.0,0.0,0.0,0.0,0.0,0.0,0.0,0.0,0.0,0.0,0.0,0.0,0.0,0.0,0.0,0.0,0.0,0.0,0.0,0.0,0.0,0.0,0.0,0.0,0.0,0.0,0.0,0.0,0.0,0.0,0.0,0.0,0.0,0.0,0.0,0.0,0.0,0.0,0.0,0.0,0.0,0.0,0.0,0.0,0.0,0.0,0.0,0.0,-1.1711,-1.1891,-1.2101,-1.2323,-1.2564,-1.2793,-1.2981,0.0,0.0,0.0,0.0,0.0,0.0,0.0,0.0,0.0,0.0,0.0,0.0,0.0,0.0,0.0,0.0,0.0,0.0,0.0,0.0,0.0,0.0,0.0,0.0,0.0,0.0,0.0,0.0,0.0,0.0,0.0,0.0,0.0,0.0,0.0,0.0,0.0,0.0,0.0,0.0,0.0,0.0,0.0,0.0,0.0,0.0,0.0,0.0,-0.903,0.0,0.0,0.0,0.0,0.0,0.0,0.0,0.0,0.0,0.0,0.0,0.0,0.0,0.0,0.0,0.0,0.0,0.0,0.0,0.0,0.0,0.0,0.0,0.0,0.0,0.0,0.0,0.0,0.0,0.0,0.0,0.0,0.0,0.0,0.0,0.0,0.0,0.0,0.0,0.0,0.0,0.0,0.0,0.0,0.0,0.0,0.0,0.0,0.0,0.0,0.0,0.0,0.0,0.0,0.0,0.0,0.0,0.0,0.0,-1.1685,-1.1859,-1.2078,-1.2328,-1.2591,-1.282,-1.3051,0.0,0.0,0.0,0.0,0.0,0.0,0.0,0.0,0.0,0.0,0.0,0.0,0.0,0.0,0.0,0.0,0.0,0.0,0.0,0.0,0.0,0.0,0.0,0.0,0.0,0.0,0.0,0.0,0.0,0.0,0.0,0.0,0.0,0.0,0.0,0.0,0.0,0.0,0.0,0.0,0.0,0.0,0.0,0.0,0.0,0.0,0.0,0.0,0.0,0.0,0.0,0.0,0.0,0.0,0.0,0.0,0.0,0.0,0.0,0.0,0.0,0.0,0.0,0.0,0.0,0.0,0.0,0.0,0.0,0.0,0.0,0.0,0.0,0.0,0.0,0.0,0.0,0.0,0.0,0.0,0.0,0.0,0.0,0.0,0.0,0.0,0.0,0.0,0.0,0.0,0.0,0.0,0.0,0.0,0.0,0.0,0.0,0.0,0.0,0.0,0.0,0.0,0.0,0.0,0.0,0.0,0.0,-1.1413,-1.1638,-1.1797,-1.2063,-1.2325,-1.2585,-1.2856,-1.3095,-1.3303,0.0,0.0,0.0,0.0,0.0,0.0,0.0,0.0,0.0,0.0,0.0,0.0,0.0,0.0,0.0,0.0,0.0,0.0,0.0,0.0,0.0,0.0,0.0,0.0,0.0,0.0,0.0,0.0,0.0,0.0,0.0,0.0,0.0,0.0,0.0,0.0,0.0,0.0,-0.8012,-0.8027,0.0,0.0,0.0,0.0,0.0,0.0,0.0,0.0,-0.9384,0.0,0.0,0.0,0.0,0.0,0.0,0.0,0.0,0.0,0.0,0.0,0.0,0.0,0.0,0.0,0.0,0.0,0.0,0.0,0.0,0.0,0.0,0.0,0.0,0.0,0.0,0.0,0.0,0.0,0.0,0.0,0.0,0.0,0.0,0.0,0.0,0.0,0.0,0.0,0.0,0.0,0.0,0.0,0.0,0.0,0.0,0.0,0.0,0.0,0.0,0.0,0.0,0.0,0.0,0.0,0.0,-1.1008,-1.1296,-1.156,-1.1797,-1.2073,-1.233,-1.2598,-1.2877,-1.3129,-1.3362,0.0,0.0,0.0,0.0,0.0,0.0,0.0,0.0,0.0,0.0,0.0,0.0,0.0,0.0,0.0,0.0,0.0,0.0,0.0,0.0,0.0,0.0,0.0,0.0,0.0,0.0,0.0,0.0,0.0,0.0,0.0,0.0,0.0,0.0,0.0,0.0,0.0,0.0,0.0,-0.8576,-0.8786,0.0,0.0,0.0,0.0,0.0,0.0,0.0,0.0,-1.1032,0.0,0.0,0.0,0.0,0.0,0.0,0.0,0.0,0.0,0.0,0.0,0.0,0.0,0.0,0.0,0.0,0.0,0.0,0.0,0.0,0.0,0.0,0.0,0.0,0.0,0.0,0.0,0.0,0.0,0.0,0.0,0.0,0.0,0.0,0.0,0.0,0.0,0.0,0.0,0.0,0.0,0.0,0.0,0.0,0.0,0.0,0.0,0.0,0.0,0.0,0.0,0.0,0.0,0.0,0.0,-1.0841,-1.1213,-1.1541,-1.1848,-1.2123,-1.239,-1.2647,-1.2923,-1.3155,0.0,0.0,0.0,0.0,0.0,0.0,0.0,0.0,0.0,0.0,0.0,0.0,0.0,0.0,0.0,0.0,0.0,0.0,0.0,0.0,0.0,0.0,0.0,0.0,0.0,0.0,0.0,0.0,0.0,0.0,0.0,0.0,0.0,0.0,0.0,0.0,0.0,0.0,0.0,0.0,-0.9065,-0.9256,-0.964,0.0,0.0,0.0,0.0,0.0,0.0,-1.1136,-1.1371,0.0,0.0,0.0,0.0,0.0,0.0,0.0,0.0,0.0,0.0,0.0,0.0,0.0,0.0,0.0,0.0,0.0,0.0,0.0,0.0,0.0,0.0,0.0,0.0,0.0,0.0,0.0,0.0,0.0,0.0,0.0,0.0,0.0,0.0,0.0,0.0,0.0,0.0,0.0,0.0,0.0,0.0,0.0,0.0,0.0,0.0,0.0,0.0,0.0,0.0,0.0,0.0,0.0,0.0,0.0,-1.076,-1.1167,-1.1556,-1.1891,-1.2161,-1.2427,-1.2693,-1.2959,-1.319,0.0,0.0,0.0,0.0,0.0,0.0,0.0,0.0,0.0,0.0,0.0,0.0,0.0,0.0,0.0,0.0,0.0,0.0,0.0,0.0,0.0,0.0,0.0,0.0,0.0,0.0,0.0,0.0,0.0,0.0,0.0,0.0,0.0,0.0,0.0,0.0,0.0,0.0,0.0,0.0,0.0,-0.9759,-0.9976,-1.0213,0.0,0.0,0.0,0.0,-1.1312,-1.1567,0.0,0.0,0.0,0.0,0.0,0.0,0.0,0.0,0.0,0.0,0.0,0.0,0.0,0.0,0.0,0.0,0.0,0.0,0.0,0.0,0.0,0.0,0.0,0.0,0.0,0.0,0.0,0.0,0.0,0.0,0.0,0.0,0.0,0.0,0.0,0.0,0.0,0.0,0.0,0.0,0.0,0.0,0.0,0.0,0.0,0.0,0.0,0.0,0.0,0.0,0.0,0.0,0.0,0.0,0.0,0.0,-1.0748,-1.1139,-1.1497,-1.1898,-1.2146,-1.2427,-1.2693,-1.2959,-1.3164,0.0,0.0,0.0,0.0,0.0,0.0,0.0,0.0,0.0,0.0,0.0,0.0,0.0,0.0,0.0,0.0,0.0,0.0,0.0,0.0,0.0,0.0,0.0,0.0,0.0,0.0,0.0,0.0,0.0,0.0,0.0,0.0,0.0,0.0,0.0,0.0,0.0,0.0,0.0,0.0,0.0,-1.0565,-1.1256,-1.1506,-1.1717,0.0,0.0,-1.2482,-1.2795,-1.3017,0.0,0.0,0.0,0.0,0.0,0.0,0.0,0.0,0.0,0.0,0.0,0.0,0.0,0.0,0.0,0.0,0.0,0.0,0.0,0.0,0.0,0.0,0.0,0.0,0.0,0.0,0.0,0.0,0.0,0.0,0.0,0.0,0.0,0.0,0.0,0.0,0.0,0.0,0.0,0.0,0.0,0.0,0.0,0.0,0.0,0.0,0.0,0.0,0.0,0.0,0.0,0.0,0.0,0.0,0.0,-0.9506,-1.0702,-1.1108,-1.1508,-1.1933,-1.2182,-1.2439,-1.2755,-1.2985,-1.3173,0.0,0.0,0.0,0.0,0.0,0.0,0.0,0.0,0.0,0.0,0.0,0.0,0.0,0.0,0.0,0.0,0.0,0.0,0.0,0.0,0.0,0.0,0.0,0.0,0.0,0.0,0.0,0.0,0.0,0.0,0.0,0.0,0.0,0.0,0.0,0.0,0.0,0.0,0.0,0.0,0.0,0.0,-1.1531,-1.174,0.0,0.0,0.0,-1.2759,-1.3041,0.0,0.0,0.0,0.0,0.0,0.0,0.0,0.0,0.0,0.0,0.0,0.0,0.0,0.0,0.0,0.0,0.0,0.0,0.0,0.0,0.0,0.0,0.0,0.0,0.0,0.0,0.0,0.0,0.0,0.0,0.0,0.0,0.0,0.0,0.0,0.0,0.0,0.0,0.0,0.0,0.0,0.0,0.0,0.0,0.0,0.0,0.0,0.0,0.0,0.0,0.0,0.0,0.0,0.0,0.0,0.0,0.0,-1.0672,-1.1097,-1.1545,-1.1973,-1.22,-1.2473,-1.2793,-1.2985,0.0,0.0,0.0,0.0,0.0,0.0,0.0,0.0,0.0,0.0,0.0,0.0,0.0,0.0,0.0,0.0,0.0,0.0,0.0,0.0,0.0,0.0,0.0,0.0,0.0,0.0,0.0,-0.6348,0.0,0.0,0.0,0.0,0.0,0.0,0.0,0.0,0.0,0.0,0.0,0.0,0.0,0.0,-1.1396,-1.1571,-1.1776,-1.2036,0.0,0.0,-1.2796,-1.3065,-1.326,-1.347,0.0,0.0,0.0,0.0,0.0,0.0,0.0,0.0,0.0,0.0,0.0,0.0,0.0,0.0,0.0,0.0,0.0,0.0,0.0,0.0,0.0,0.0,0.0,0.0,0.0,0.0,0.0,0.0,0.0,0.0,0.0,0.0,0.0,0.0,0.0,0.0,0.0,0.0,0.0,0.0,0.0,0.0,0.0,0.0,0.0,0.0,0.0,0.0,0.0,0.0,0.0,0.0,0.0,0.0,0.0,-1.0666,-1.1097,-1.1534,-1.1976,-1.2192,-1.2473,-1.2801,-1.2932,-1.3077,0.0,0.0,0.0,0.0,0.0,0.0,0.0,0.0,0.0,0.0,0.0,0.0,0.0,0.0,0.0,0.0,0.0,0.0,0.0,0.0,0.0,0.0,0.0,0.0,0.0,0.0,0.0,0.0,0.0,0.0,0.0,0.0,0.0,0.0,0.0,0.0,0.0,0.0,0.0,0.0,0.0,-1.1455,-1.1582,-1.1826,-1.2086,0.0,0.0,-1.2802,-1.3065,-1.3269,-1.3463,-1.3663,0.0,0.0,0.0,0.0,0.0,0.0,0.0,0.0,0.0,0.0,0.0,0.0,0.0,0.0,0.0,0.0,0.0,0.0,0.0,0.0,0.0,0.0,0.0,0.0,0.0,0.0,0.0,0.0,0.0,0.0,0.0,0.0,0.0,0.0,0.0,0.0,0.0,0.0,0.0,0.0,0.0,0.0,0.0,0.0,0.0,0.0,0.0,0.0,0.0,0.0,0.0,0.0,0.0,-1.0125,-1.0753,-1.1155,-1.1578,-1.1999,-1.2185,-1.2449,-1.2776,-1.2939,-1.3067,0.0,0.0,0.0,0.0,0.0,0.0,0.0,0.0,0.0,0.0,0.0,0.0,0.0,0.0,0.0,0.0,0.0,0.0,0.0,0.0,0.0,0.0,0.0,0.0,0.0,0.0,0.0,0.0,-0.6281,-0.6472,-0.6913,0.0,0.0,0.0,0.0,0.0,0.0,0.0,0.0,0.0,0.0,-1.1482,-1.1692,-1.1909,0.0,0.0,-1.263,-1.284,-1.3074,-1.3269,-1.3455,-1.3618,-1.3741,0.0,0.0,0.0,0.0,0.0,0.0,0.0,0.0,0.0,0.0,0.0,0.0,0.0,0.0,0.0,0.0,0.0,0.0,0.0,0.0,0.0,0.0,0.0,0.0,0.0,0.0,0.0,0.0,0.0,0.0,0.0,0.0,0.0,0.0,0.0,0.0,0.0,0.0,0.0,0.0,0.0,0.0,0.0,0.0,0.0,0.0,0.0,0.0,0.0,0.0,0.0,0.0,-1.0454,-1.0839,-1.1227,-1.1615,-1.1991,-1.2213,-1.2465,-1.2765,-1.2888,-1.3049,0.0,0.0,0.0,0.0,0.0,0.0,0.0,0.0,0.0,0.0,0.0,0.0,0.0,0.0,0.0,0.0,0.0,0.0,0.0,0.0,0.0,0.0,0.0,0.0,0.0,0.0,0.0,0.0,-0.6442,-0.6931,-0.7756,0.0,0.0,0.0,0.0,0.0,0.0,0.0,0.0,0.0,0.0,-1.1515,-1.1765,-1.2002,-1.2205,-1.2475,-1.2667,-1.2884,-1.3058,-1.326,-1.3421,-1.3579,0.0,0.0,0.0,0.0,0.0,0.0,0.0,0.0,0.0,0.0,0.0,0.0,0.0,0.0,0.0,0.0,0.0,0.0,0.0,0.0,0.0,0.0,0.0,0.0,0.0,0.0,0.0,0.0,0.0,0.0,-1.0958,0.0,0.0,0.0,0.0,0.0,0.0,0.0,0.0,0.0,0.0,0.0,0.0,0.0,0.0,0.0,0.0,0.0,0.0,0.0,0.0,0.0,0.0,-1.0553,-1.0897,-1.1289,-1.1667,-1.1991,-1.2262,-1.2487,-1.2701,-1.2825,-1.2951,-1.3068,0.0,0.0,0.0,0.0,0.0,0.0,0.0,0.0,0.0,0.0,0.0,0.0,0.0,0.0,0.0,0.0,0.0,0.0,0.0,0.0,0.0,0.0,0.0,0.0,0.0,0.0,-0.6343,-0.6907,-0.7763,0.0,0.0,0.0,0.0,0.0,0.0,0.0,0.0,0.0,0.0,-1.1323,-1.1578,-1.1765,-1.2023,-1.2264,-1.2477,-1.2676,-1.2868,-1.3075,-1.3217,-1.3354,0.0,0.0,0.0,0.0,0.0,0.0,0.0,0.0,0.0,0.0,0.0,0.0,0.0,0.0,0.0,0.0,0.0,0.0,0.0,0.0,0.0,0.0,0.0,0.0,0.0,0.0,0.0,-1.2098,-1.2237,0.0,0.0,0.0,0.0,0.0,0.0,0.0,0.0,0.0,0.0,0.0,-1.1034,-1.0801,0.0,0.0,0.0,0.0,0.0,0.0,0.0,0.0,0.0,0.0,0.0,0.0,-1.0769,-1.0982,-1.1363,-1.1714,-1.2003,-1.2254,-1.2495,-1.2693,-1.2842,-1.2731,-1.2381,0.0,0.0,0.0,0.0,0.0,0.0,0.0,0.0,0.0,0.0,0.0,0.0,0.0,0.0,0.0,0.0,0.0,0.0,0.0,0.0,0.0,0.0,0.0,0.0,0.0,-0.7157,0.0,0.0,0.0,0.0,0.0,0.0,0.0,0.0,0.0,0.0,0.0,-1.0956,-1.1208,-1.1429,-1.1663,-1.188,-1.2117,-1.2341,0.0,0.0,0.0,0.0,0.0,0.0,0.0,0.0,0.0,0.0,0.0,0.0,0.0,0.0,-1.4028,-1.3972,-1.3973,-1.3949,-1.385,0.0,0.0,0.0,0.0,0.0,0.0,0.0,0.0,0.0,0.0,0.0,0.0,0.0,0.0,0.0,0.0,-1.2751,0.0,0.0,0.0,0.0,0.0,0.0,0.0,0.0,-1.1418,-1.1266,-1.1127,-1.0927,-1.0772,0.0,-1.0529,-1.0318,0.0,0.0,0.0,0.0,0.0,0.0,0.0,0.0,-1.0954,-1.1103,-1.1453,-1.1768,-1.2024,-1.2274,-1.2483,-1.2654,-1.2824,-1.273,-1.2347,-1.1637,-1.0918,0.0,0.0,0.0,0.0,0.0,0.0,0.0,0.0,0.0,0.0,0.0,0.0,0.0,0.0,0.0,0.0,0.0,0.0,0.0,0.0,0.0,0.0,0.0,-0.7983,0.0,0.0,0.0,0.0,0.0,0.0,0.0,0.0,0.0,-1.0639,-1.0832,-1.1057,-1.1266,-1.1474,-1.1692,-1.1962,0.0,0.0,0.0,0.0,0.0,0.0,0.0,-1.3354,-1.3479,-1.3543,-1.3623,-1.3681,-1.3812,-1.3918,-1.3945,0.0,0.0,-1.395,-1.3977,-1.3975,-1.3883,-1.3843,-1.383,-1.3781,-1.3759,-1.3785,0.0,0.0,0.0,0.0,0.0,0.0,0.0,0.0,-1.241,-1.2422,0.0,-1.2467,0.0,0.0,0.0,0.0,0.0,-1.1765,0.0,0.0,-1.1483,-1.1381,-1.1298,-1.1216,-1.1096,-1.0971,-1.0931,-1.0859,-1.0747,-1.0363,0.0,0.0,0.0,0.0,0.0,0.0,-1.1115,-1.1305,-1.1568,-1.1837,-1.2093,-1.229,-1.2455,-1.2602,-1.2804,-1.2933,-1.2963,-1.2272,-1.1548,-1.081,-1.0019,0.0,0.0,0.0,0.0,0.0,0.0,0.0,0.0,0.0,0.0,0.0,0.0,0.0,0.0,0.0,0.0,0.0,0.0,0.0,0.0,-0.8114,0.0,0.0,0.0,0.0,0.0,0.0,0.0,0.0,0.0,0.0,-1.085,-1.0986,-1.1143,-1.1307,0.0,0.0,0.0,0.0,-1.238,-1.2572,-1.2784,-1.2974,-1.317,-1.3251,-1.3346,-1.3479,0.0,0.0,-1.3691,-1.3809,-1.3892,-1.3891,-1.3952,-1.4005,-1.4,-1.3995,-1.4007,-1.4,-1.3929,-1.3915,-1.3915,-1.3889,-1.39,-1.5487,0.0,0.0,0.0,0.0,-1.3644,-1.334,-1.2934,-1.2912,-1.2653,-1.2254,-1.2275,0.0,0.0,0.0,0.0,0.0,0.0,-1.184,-1.2189,-1.2094,-1.2271,-1.269,-1.2619,-1.2554,-1.2484,-1.2444,-1.2188,-1.17,-1.1586,-1.1195,-1.0571,0.0,0.0,0.0,0.0,-1.1293,-1.1449,-1.1659,-1.1895,-1.2168,-1.2316,-1.2518,-1.2736,-1.2848,-1.2913,-1.2916,-1.2278,-1.154,-1.0749,-0.9966,0.0,0.0,0.0,0.0,0.0,0.0,0.0,0.0,0.0,0.0,0.0,0.0,0.0,0.0,0.0,0.0,0.0,0.0,0.0,-0.8987,-0.928,-0.968,0.0,0.0,0.0,0.0,0.0,0.0,0.0,0.0,0.0,-1.24,-1.175,-1.1312,0.0,0.0,-1.1944,-1.2112,-1.2351,-1.255,-1.2663,0.0,0.0,0.0,-1.3294,-1.3404,-1.3478,-1.3598,-1.3676,-1.3705,-1.3821,-1.3916,-1.3954,-1.3972,-1.4025,-1.4122,-1.4061,-1.401,-1.4005,-1.3991,-1.3968,-1.3959,-1.3968,-1.398,-1.63,-1.5338,-1.4965,-1.4631,-1.4342,-1.4174,-1.3895,-1.3563,-1.3485,-1.3252,-1.2927,-1.2912,-1.2871,-1.2803,-1.2773,0.0,0.0,0.0,-1.2618,-1.2927,-1.2872,-1.3031,-1.3393,-1.3362,-1.3295,-1.3262,-1.3221,-1.3016,-1.2626,-1.2336,-1.1941,-1.1369,0.0,0.0,-1.1073,-1.1277,-1.1433,-1.1553,-1.1743,-1.1946,-1.2153,-1.2346,-1.253,-1.2708,-1.2802,-1.2876,-1.2887,-1.253,-1.1932,-1.1165,-1.0372,-0.9596,0.0,0.0,0.0,0.0,0.0,0.0,0.0,0.0,0.0,0.0,0.0,-0.771,0.0,0.0,0.0,0.0,-0.8867,-0.9381,-1.0137,-1.0256,0.0,0.0,0.0,0.0,0.0,0.0,0.0,-1.2328,-1.2485,-1.2743,-1.3255,-1.2716,-1.2295,-1.2417,-1.2667,-1.2896,-1.3042,0.0,-1.3505,-1.3581,-1.3776,-1.3953,-1.4062,-1.4195,-1.434,-1.4478,-1.4553,-1.4479,-1.4249,-1.4307,-1.4293,-1.4073,-1.401,-1.4037,-1.4183,-1.4131,-1.4086,-1.4082,-1.4073,-1.4082,-1.4082,-1.4069,-1.4074,-1.681,-1.6511,-1.5788,-1.5093,-1.4444,-1.4323,-1.4215,-1.4165,-1.4101,-1.4041,-1.3975,-1.3975,-1.395,-1.3885,-1.3822,0.0,-1.3706,-1.3706,-1.3684,-1.3677,-1.3677,-1.3714,-1.3758,-1.3686,-1.3667,-1.3654,-1.3586,-1.3537,-1.3471,-1.2888,-1.251,-1.2403,-1.1686,-1.1281,-1.1243,-1.1421,-1.1534,-1.1597,-1.1791,-1.197,-1.2112,-1.2359,-1.252,-1.2575,-1.2717,-1.2829,-1.2884,-1.2884,-1.2558,-1.1816,-1.1075,-1.0335,-0.9531,0.0,0.0,0.0,0.0,0.0,0.0,0.0,0.0,0.0,0.0,0.0,0.0,0.0,0.0,0.0,-0.9606,0.0,-1.0959,-1.1038,0.0,0.0,0.0,-1.1463,-1.213,-1.2201,-1.2492,-1.3229,0.0,0.0,-1.3746,0.0,-1.3887,-1.3907,-1.403,-1.4196,-1.439,-1.4582,-1.486,-1.4911,-1.5165,-1.5317,-1.5272,-1.5466,-1.5631,-1.5807,-1.5992,-1.5706,-1.5206,-1.5138,-1.4903,-1.44,-1.4215,-1.4237,-1.43,-1.4353,-1.4271,-1.423,-1.4216,-1.4189,-1.421,-1.4192,-1.4216,-1.7525,-1.7278,-1.6499,-1.6004,-1.5731,-1.5608,-1.5245,-1.4711,-1.4624,-1.4313,-1.3848,-1.385,-1.3842,-1.3822,-1.379,-1.3772,-1.3706,-1.3706,-1.3942,-1.4354,-1.4347,-1.4592,-1.505,-1.5021,-1.5043,-1.5021,-1.5014,-1.475,-1.4314,-1.4158,-1.3543,-1.2587,-1.2368,-1.2019,-1.1522,-1.156,-1.1601,-1.1674,-1.1772,-1.1941,-1.2171,-1.2338,-1.2451,-1.2518,-1.2659,-1.273,-1.2739,-1.2785,-1.2471,-1.1765,-1.1544,-1.1074,-1.028,-1.001,0.0,0.0,0.0,0.0,0.0,0.0,0.0,0.0,0.0,-0.927,-0.966,0.0,-0.9922,0.0,-1.0776,-1.1056,-1.1275,-1.1353,0.0,0.0,-1.2089,-1.2356,-1.3006,-1.3091,-1.3397,-1.4171,-1.4266,-1.4553,-1.5273,-1.5465,-1.5572,-1.5656,-1.4894,-1.4397,-1.4549,-1.4738,-1.4927,-1.5098,-1.5317,-1.5425,-1.5586,-1.5677,-1.5853,-1.5981,-1.6009,-1.5949,-1.5871,-1.5946,-1.595,-1.5789,-1.5841,-1.5705,-1.521,-1.5112,-1.4888,-1.4486,-1.4272,-1.4206,-1.4267,-1.4286,-1.4287,-1.8093,-1.7594,-1.7097,-1.6631,-1.6208,-1.6067,-1.5758,-1.5343,-1.528,-1.5035,-1.4691,-1.4692,-1.4698,-1.4698,-1.4698,-1.4672,-1.463,-1.4637,-1.4817,-1.5125,-1.5132,-1.5311,-1.5646,-1.5632,-1.5624,-1.5632,-1.5632,-1.5468,-1.5125,-1.4842,-1.4315,-1.3569,-1.2983,-1.2504,-1.2129,-1.1796,-1.1659,-1.1692,-1.1837,-1.1991,-1.2192,-1.2298,-1.2419,-1.2505,-1.2599,-1.2662,-1.2693,-1.273,-1.2572,-1.2218,-1.1883,-1.1492,-1.1057,-1.063,-1.0373,0.0,0.0,0.0,0.0,0.0,0.0,0.0,0.0,0.0,0.0,0.0,-1.0789,-1.1219,-1.1362,-1.1463,-1.1519,-1.1873,-1.2198,-1.2549,-1.2844,-1.3279,-1.3944,-1.4018,-1.4315,-1.5086,-1.5195,-1.5421,-1.5953,-1.6159,-1.6281,-1.6423,-1.5893,-1.5539,-1.5615,-1.5809,-1.5974,-1.6104,-1.6323,-1.6536,-1.6684,-1.6792,-1.6891,-1.6996,-1.7054,-1.6988,-1.6729,-1.6773,-1.6737,-1.6433,-1.6434,-1.6406,-1.5995,-1.563,-1.5313,-1.5009,-1.4574,-1.4332,-1.4331,-1.4347,-1.4365,-1.8693,-1.7955,-1.7727,-1.7148,-1.6339,-1.6197,-1.6038,-1.5892,-1.5827,-1.5814,-1.5814,-1.5814,-1.5814,-1.5814,-1.5814,-1.5814,-1.5814,-1.5814,-1.5813,-1.5813,-1.5813,-1.5827,-1.5827,-1.5827,-1.5812,-1.5827,-1.5842,-1.5813,-1.5784,-1.5229,-1.4886,-1.4758,-1.3643,-1.2973,-1.2786,-1.2157,-1.1811,-1.1714,-1.1898,-1.2051,-1.2171,-1.2241,-1.2343,-1.2467,-1.2536,-1.2616,-1.2692,-1.2693,-1.273,-1.2777,-1.2183,-1.1841,-1.1807,-1.1119,-1.0699,0.0,-1.1109,0.0,0.0,0.0,0.0,0.0,0.0,0.0,0.0,-1.141,-1.1515,-1.163,-1.1707,-1.1789,-1.1851,-1.2523,-1.2989,-1.3087,-1.3617,-1.4226,-1.4866,-1.4985,-1.5223,-1.5881,-1.5997,-1.6088,-1.622,-1.6357,-1.6484,-1.6607,-1.6746,-1.6785,-1.6928,-1.7024,-1.7161,-1.7396,-1.7674,-1.7734,-1.7924,-1.808,-1.8158,-1.8254,-1.8235,-1.8189,-1.7636,-1.7603,-1.7445,-1.6919,-1.6868,-1.6844,-1.6782,-1.6248,-1.5819,-1.5596,-1.5029,-1.4595,-1.4447,-1.4402,-1.4414,-1.9689,-1.9424,-1.8636,-1.7877,-1.717,-1.6928,-1.6455,-1.59,-1.5842,-1.5814,-1.5814,-1.5814,-1.5814,-1.5814,-1.5814,-1.5814,-1.5814,-1.5814,-1.5842,-1.5878,-1.5885,-1.5921,-1.5961,-1.5961,-1.5961,-1.5954,-1.5969,-1.5942,-1.5878,-1.5757,-1.5383,-1.4811,-1.4541,-1.3882,-1.2853,0.0,0.0,0.0,-1.193,-1.2012,-1.2051,-1.2146,-1.2264,-1.2343,-1.2449,0.0,-1.2622,-1.2665,-1.273,-1.2785,-1.2672,0.0,0.0,0.0,0.0,0.0,0.0,0.0,0.0,0.0,0.0,0.0,-1.2088,-1.1956,-1.174,-1.1711,-1.1755,-1.1846,-1.2324,-1.2683,-1.2762,-1.3364,-1.3997,-1.4521,-1.4747,-1.511,-1.5765,-1.5891,-1.6028,-1.6196,-1.6246,-1.6293,-1.6421,-1.6517,-1.662,-1.6828,-1.695,-1.7105,-1.7268,-1.7316,-1.7416,-1.7566,-1.7842,-1.8057,-1.8168,-1.8253,-1.8308,-1.8374,-1.8394,-1.8383,-1.8359,-1.8354,-1.8419,-1.8253,-1.8413,-1.8194,-1.7696,-1.7534,-1.7042,-1.5869,-1.5515,-1.5249,-1.4623,-1.4489,-1.4486,-2.035,0.0,-1.9373,-1.8692,0.0,-1.7369,-1.6898,-1.6439,-1.5991,-1.5814,-1.5814,-1.5814,-1.5814,-1.5813,-1.5835,-1.5849,-1.5849,-1.5885,-1.5912,-1.5941,-1.5956,-1.5969,-1.599,-1.599,-1.599,-1.599,-1.599,-1.5991,-1.5956,-1.5956,-1.5747,-1.5331,-1.5016,-1.4493,-1.3792,-1.3463,-1.2792,-1.1812,-1.192,-1.1991,-1.2012,-1.2123,-1.2236,-1.2305,0.0,0.0,0.0,0.0,0.0,0.0,0.0,0.0,0.0,0.0,0.0,-1.2695,-1.2615,-1.2511,-1.2449,-1.2409,-1.2397,-1.2346,-1.2334,-1.2223,-1.2023,-1.199,-1.2155,-1.2513,-1.2898,-1.3252,-1.3609,-1.4275,-1.4839,-1.5165,-1.5517,-1.5899,-1.6171,-1.6309,-1.6355,-1.6394,-1.644,-1.6533,-1.6599,-1.674,-1.6885,-1.6992,-1.715,-1.7297,-1.7381,-1.7432,-1.7526,-1.7766,-1.7983,-1.8174,-1.8239,-1.831,-1.8361,-1.8404,-1.8444,-1.8521,-1.8581,-1.8639,-1.8688,-1.8815,-1.8878,-1.876,-1.8513,-1.8228,-1.775,-1.6971,-1.6245,-1.5682,-1.5196,-1.4805,-1.4508,-2.0814,-2.0183,-2.0019,-1.9476,-1.8639,-1.7959,-1.7438,-1.7021,0.0,0.0,0.0,-1.5813,-1.5813,-1.5842,-1.5892,-1.5928,-1.5935,-1.5969,-1.6018,-1.6018,-1.6018,-1.6018,-1.6032,-1.6046,-1.6046,-1.6032,-1.6032,-1.6018,-1.6018,-1.6018,-1.5983,-1.5875,-1.5377,-1.5018,-1.4806,-1.4185,-1.3292,-1.2261,-1.2183,-1.2123,-1.2023,-1.2133,-1.2236,-1.2295,-1.2363,-1.2463,-1.2599,-1.2608,-1.267,-1.2802,-1.2812,-1.2847,-1.2893,-1.2802,-1.2758,-1.2804,-1.2716,-1.2665,-1.266,-1.264,-1.2669,-1.2728,-1.266,-1.2561,-1.2435,-1.2416,-1.2694,-1.3358,-1.357,-1.3903,-1.4459,-1.5137,-1.558,-1.5608,-1.6095,-1.6429,-1.6442,-1.6522,-1.6575,-1.6588,-1.6688,-1.6771,-1.6776,-1.6967,-1.7145,-1.7166,-1.7301,-1.7452,-1.7467,-1.7537,-1.7692,-1.7984,-1.8145,-1.8229,-1.8307,-1.8348,-1.8406,-1.8462,-1.853,-1.8608,-1.8639,-1.8678,-1.877,-1.887,-1.8905,-1.8974,-1.9024,-1.8655,-1.8221,-1.8112,-1.7137,-1.6106,-1.5799,-1.5253,-1.4773,-2.1111,-2.0935,-2.0741,-2.0225,-1.95,-1.9168,-1.826,-1.6984,-1.6214,-1.5878,-1.5892,-1.5878,-1.592,-1.5983,-1.5997,-1.5983,-1.599,-1.599,-1.6018,0.0,-1.6081,-1.6109,-1.618,-1.618,-1.618,-1.6173,-1.618,-1.6145,-1.6095,-1.6095,-1.6046,-1.5974,-1.5891,-1.555,-1.496,-1.4308,-1.3884,-1.3679,-1.3129,-1.2616,-1.2106,-1.2161,-1.2236,-1.2295,-1.2355,-1.2463,-1.2608,-1.26,-1.2689,-1.2875,-1.2875,-1.2893,-1.2906,-1.2888,-1.2871,-1.288,-1.2858,-1.2855,-1.2854,-1.2809,-1.3027,-1.3547,-1.3557,-1.3431,-1.3267,-1.324,-1.3518,-1.4175,-1.4733,-1.5124,-1.5287,-1.5863,-1.6262,-1.6336,-1.6478,-1.6602,-1.6638,-1.6761,-1.6832,-1.6832,-1.6913,-1.6981,-1.7029,-1.7125,-1.7224,-1.7333,-1.744,-1.7552,-1.7704,-1.7803,-1.7934,-1.8129,-1.8243,-1.831,-1.8371,-1.8399,-1.8435,-1.8568,-1.8596,-1.8628,-1.8669,-1.8725,-1.8807,-1.8878,-1.8975,-1.9069,-1.9109,-1.9149,-1.8817,-1.834,-1.7863,-1.736,-1.6248,-1.5829,-1.5497,-2.1254,-2.1151,-2.1063,-2.0742,-2.0256,-1.9677,-1.8563,-1.7223,-1.6871,-1.6426,-1.597,-1.5962,-1.5983,-1.6046,-1.6095,-1.6137,-1.6171,-1.6191,-1.6226,-1.6254,-1.6268,-1.6289,-1.6316,-1.6303,-1.6316,-1.6318,-1.631,-1.6275,-1.6205,-1.6191,-1.6165,-1.6067,-1.6018,-1.5852,-1.5547,-1.5236,-1.4922,-1.459,-1.3934,-1.3275,-1.2667,-1.2745,-1.265,-1.2318,-1.2409,-1.2491,-1.2599,-1.266,-1.278,-1.29,-1.2904,-1.2915,-1.2951,-1.2925,-1.2908,-1.2951,-1.2915,-1.2913,-1.2913,-1.3253,-1.3762,-1.4439,-1.4398,-1.4492,-1.4791,-1.4391,-1.4433,-1.509,-1.5447,-1.5789,-1.6158,-1.6499,-1.6686,-1.6717,-1.6738,-1.6769,-1.6808,-1.6927,-1.7007,-1.7028,-1.7095,-1.7178,-1.7216,-1.7269,-1.734,-1.7447,-1.7561,-1.7749,-1.7981,-1.8046,-1.8091,-1.8196,-1.8277,-1.8354,-1.8394,-1.8467,-1.8522,-1.8588,-1.8628,-1.8677,-1.8734,-1.8797,-1.887,-1.8949,-1.9044,-1.9103,-1.9142,-1.9228,-1.9101,-1.895,-1.8423,-1.7847,-1.728,-1.6892,-1.6315,-2.1332,-2.1223,-2.1215,-2.1055,-2.0756,-1.9948,-1.8959,-1.7946,-1.7618,-1.7067,-1.6417,-1.6163,-1.6102,-1.6157,-1.6228,-1.6281,-1.6348,-1.6402,-1.6444,-1.6423,-1.6444,-1.6436,-1.6452,-1.6431,-1.6423,-1.6415,-1.6396,-1.6384,-1.632,-1.6328,-1.626,-1.6151,-1.6081,-1.606,-1.6081,-1.6059,-1.5855,-1.539,-1.4881,-1.4212,-1.3409,-1.35,-1.3333,-1.2864,-1.2776,-1.2796,-1.2883,-1.2843,-1.2839,-1.2921,-1.2941,-1.2978,-1.304,-1.2989,-1.2989,-1.3049,-1.3162,-1.3292,-1.3517,-1.3972,-1.4611,-1.5337,-1.5269,-1.5504,-1.6122,-1.5751,-1.5549,-1.5971,-1.6059,-1.6287,-1.6743,-1.69,-1.69,-1.6926,-1.6946,-1.6956,-1.6964,-1.7091,-1.7145,-1.7158,-1.7236,-1.7317,-1.7345,-1.7425,-1.7534,-1.763,-1.778,-1.7972,-1.814,-1.8221,-1.8249,-1.8286,-1.8346,-1.8398,-1.8433,-1.8515,-1.8588,-1.8617,-1.8677,-1.8751,-1.8806,-1.8869,-1.895,-1.9028,-1.9078,-1.9145,-1.9212,-1.9277,-1.9314,-1.927,-1.892,-1.8476,-1.8183,-1.7597,-1.7044,-2.1363,-2.1285,-2.1215,-2.1079,-2.083,-2.017,-1.9742,-1.938,-1.8242,-1.7644,-1.7428,-1.6663,-1.6338,-1.6371,-1.6363,-1.6423,-1.6488,-1.6488,-1.6535,-1.6575,-1.6583,-1.6575,-1.6583,-1.6528,-1.648,-1.648,-1.6436,-1.6404,-1.6382,-1.6369,-1.6363,-1.6295,-1.6207,-1.6214,-1.6252,-1.6266,-1.6262,-1.6262,-1.6229,-1.5539,-1.4295,-1.4315,-1.4393,-1.4378,-1.3796,-1.3591,-1.3745,-1.3159,-1.2867,-1.2986,-1.3107,-1.3135,-1.3196,-1.3191,-1.3192,-1.325,-1.3818,-1.4479,-1.5143,-1.5221,-1.5487,-1.6182,-1.6142,-1.6372,-1.7048,-1.7081,-1.6971,-1.6837,-1.6777,-1.6829,-1.6876,-1.6913,-1.6951,-1.701,-1.7061,-1.7108,-1.7153,-1.7257,-1.7269,-1.7281,-1.7345,-1.7401,-1.7428,-1.7601,-1.7808,-1.7909,-1.8024,-1.814,-1.8215,-1.831,-1.8393,-1.8433,-1.8435,-1.8456,-1.8546,-1.859,-1.8637,-1.8668,-1.8742,-1.8824,-1.8887,-1.8958,-1.901,-1.9078,-1.9145,-1.9211,-1.9269,-1.935,-1.9392,-1.9409,-1.9276,-1.9138,-1.8469,-1.7867,-1.7376,-2.1534,-2.1465,-2.1364,-2.1222,-2.1039,-2.0735,-2.0352,-1.9874,-1.9316,-1.863,-1.787,-1.7453,-1.7037,-1.6588,-1.6581,-1.662,-1.6738,-1.6738,-1.6751,-1.6777,-1.6793,-1.6793,-1.6785,-1.6751,-1.673,-1.6738,-1.672,-1.6633,-1.6532,-1.6431,-1.6377,-1.6348,-1.6322,-1.6344,-1.6363,-1.6355,-1.6382,-1.6448,-1.6503,-1.6245,-1.5756,-1.5342,-1.4983,-1.4668,-1.4453,-1.4398,-1.4475,-1.4288,-1.4268,-1.4357,-1.4431,-1.4498,-1.4547,-1.4551,-1.457,-1.4586,-1.4829,-1.5322,-1.6026,-1.6042,-1.6336,-1.7047,-1.6986,-1.7056,-1.7308,-1.7322,-1.7244,-1.7158,-1.7125,-1.7133,-1.7133,-1.7125,-1.7145,-1.717,-1.7203,-1.722,-1.7261,-1.7317,-1.7349,-1.737,-1.7452,-1.7546,-1.7643,-1.78,-1.7961,-1.8087,-1.8179,-1.8215,-1.831,-1.8394,-1.8493,-1.8543,-1.8534,-1.8536,-1.8604,-1.8632,-1.8678,-1.8742,-1.8815,-1.8887,-1.8984,-1.9036,-1.9087,-1.9136,-1.9201,-1.926,-1.9278,-1.9355,-1.9413,-1.9439,-1.9506,-1.9434,-1.9106,-1.8867,-1.8703,-2.1664,-2.1627,-2.1503,-2.1395,-2.131,-2.1255,-2.0949,-2.0425,-2.0224,-1.9577,-1.8712,-1.827,-1.7759,-1.7189,-1.6908,-1.6865,-1.6977,-1.6985,-1.699,-1.7007,-1.7015,-1.7015,-1.7007,-1.6998,-1.6977,-1.6935,-1.693,-1.684,-1.6678,-1.6543,-1.6477,-1.6477,-1.6458,-1.6471,-1.6482,-1.6469,-1.653,-1.6602,-1.6678,-1.6727,-1.6717,-1.6297,-1.5823,-1.5391,-1.5252,-1.5255,-1.5302,-1.5273,-1.5269,-1.5344,-1.5395,-1.5454,-1.5514,-1.5553,-1.5657,-1.5861,-1.5888,-1.6188,-1.6845,-1.6866,-1.7087,-1.7531,-1.7531,-1.7435,-1.7448,-1.7394,-1.735,-1.7358,-1.7354,-1.7338,-1.7302,-1.7302,-1.7302,-1.7302,-1.731,-1.7334,-1.7326,-1.7417,-1.7444,-1.7464,-1.7574,-1.7706,-1.7853,-1.7983,-1.8089,-1.8202,-1.8244,-1.8289,-1.8413,-1.8484,-1.856,-1.8629,-1.8641,-1.866,-1.8652,-1.8688,-1.8743,-1.8816,-1.8896,-1.8993,-1.9078,-1.9104,-1.9153,-1.9216,-1.9273,-1.9315,-1.9376,-1.9421,-1.945,-1.9508,-1.9557,-1.9592,-1.948,-1.9601,-1.9656,-2.1701,-2.1678,-2.1635,-2.1589,-2.1573,-2.1574,-2.1549,-2.1394,-2.0805,-2.0428,-2.0101,-1.8947,-1.831,-1.8205,-1.7431,-1.7063,-1.7182,-1.7166,-1.7215,-1.7257,-1.7261,-1.7281,-1.7285,-1.7211,-1.7149,-1.7099,-1.7036,-1.6964,-1.6871,-1.6753,-1.6696,-1.667,-1.662,-1.6628,-1.6678,-1.667,-1.6738,-1.6871,-1.6934,-1.701,-1.707,-1.7092,-1.7011,-1.684,-1.6361,-1.6138,-1.6235,-1.5663,-1.5394,-1.5499,-1.5599,-1.5605,-1.5628,-1.5723,-1.6112,-1.6724,-1.6826,-1.7102,-1.7679,-1.7715,-1.7701,-1.7698,-1.7638,-1.7581,-1.7586,-1.7516,-1.7497,-1.7505,-1.747,-1.743,-1.7342,-1.733,-1.7318,-1.7322,-1.737,-1.7413,-1.7421,-1.7511,-1.7589,-1.7617,-1.772,-1.7873,-1.8052,-1.8138,-1.8213,-1.8296,-1.8351,-1.8424,-1.8475,-1.855,-1.8628,-1.8687,-1.8734,-1.8788,-1.8807,-1.8798,-1.8825,-1.8905,-1.9002,-1.9087,-1.9112,-1.9153,-1.9215,-1.9269,-1.9309,-1.9377,-1.9464,-1.9509,-1.9526,-1.9557,-1.9567,-1.9592,-1.9616,-1.9653,-1.9701,-2.1861,-2.1825,-2.1804,-2.1768,-2.1739,-2.1731,-2.1723,-2.1706,-2.145,-2.1085,-2.0651,-2.0119,-1.9406,-1.8577,-1.8249,-1.7798,-1.7358,-1.733,-1.7354,-1.7361,-1.737,-1.7345,-1.7297,-1.7277,-1.7261,-1.7228,-1.7203,-1.7141,-1.702,-1.6935,-1.6876,-1.6829,-1.6803,-1.6832,-1.6876,-1.6897,-1.6956,-1.7078,-1.712,-1.7153,-1.7224,-1.7301,-1.7313,-1.7281,-1.7058,-1.6961,-1.7044,-1.6858,-1.6834,-1.6962,-1.6975,-1.7027,-1.7112,-1.7171,-1.7285,-1.7561,-1.7603,-1.7712,-1.7921,-1.7942,-1.79,-1.7828,-1.7769,-1.7695,-1.7661,-1.7612,-1.7574,-1.7571,-1.7562,-1.7536,-1.7509,-1.7461,-1.7441,-1.7497,-1.7516,-1.7514,-1.7546,-1.7647,-1.7715,-1.7755,-1.7914,-1.8102,-1.8138,-1.821,-1.8304,-1.8404,-1.8453,-1.8495,-1.8545,-1.8612,-1.8687,-1.8761,-1.8806,-1.887,-1.8931,-1.8905,-1.8905,-1.9001,-1.9078,-1.9145,-1.9194,-1.9223,-1.9292,-1.9349,-1.9379,-1.9427,-1.9514,-1.9547,-1.9574,-1.9574,-1.9592,-1.9623,-1.9656,-1.9685,-1.9713,-2.1984,-2.1934,-2.1934,-2.1913,-2.1853,-2.1878,-2.1861,-2.1869,-2.1861,-2.1632,-2.1256,-2.1019,-2.0371,-1.9593,-1.9285,-1.8735,-1.796,-1.7619,-1.7455,-1.7467,-1.7472,-1.7437,-1.7409,-1.7409,-1.7394,-1.7358,-1.7326,-1.7248,-1.717,-1.7124,-1.7078,-1.702,-1.704,-1.7053,-1.7099,-1.7083,-1.7158,-1.7224,-1.7273,-1.7326,-1.7378,-1.7433,-1.7467,-1.7499,-1.7511,-1.7531,-1.7514,-1.7604,-1.7724,-1.7833,-1.7864,-1.7928,-1.8055,-1.8091,-1.8095,-1.8087,-1.8083,-1.8087,-1.8076,-1.8046,-1.8005,-1.7953,-1.788,-1.7836,-1.7794,-1.7715,-1.7689,-1.7681,-1.765,-1.7638,-1.7681,-1.7666,-1.764,-1.7632,-1.7635,-1.7666,-1.7678,-1.7777,-1.7886,-1.795,-1.8085,-1.8192,-1.823,-1.8316,-1.8397,-1.8485,-1.8523,-1.8564,-1.8641,-1.8696,-1.8743,-1.8816,-1.8914,-1.8967,-1.9027,-1.9026,-1.9,-1.9068,-1.9144,-1.9209,-1.9265,-1.9309,-1.9353,-1.9418,-1.9466,-1.9514,-1.955,-1.9581,-1.959,-1.9598,-1.9629,-1.9669,-1.9679,-1.9704,-1.9742,-2.2013,-2.2019,-2.2004,-2.2027,-2.2036,-2.2027,-2.2021,-2.2036,-2.2013,-2.2037,-2.1973,-2.1467,-2.1172,-2.1015,-2.0411,-1.9784,-1.9005,-1.8145,-1.7691,-1.7624,-1.7624,-1.7604,-1.7612,-1.7601,-1.7554,-1.7482,-1.7369,-1.7301,-1.7306,-1.7285,-1.7281,-1.7293,-1.7261,-1.7273,-1.731,-1.7285,-1.7289,-1.7329,-1.7437,-1.7502,-1.7506,-1.7581,-1.7627,-1.7695,-1.776,-1.78,-1.7791,-1.7811,-1.7867,-1.7972,-1.8002,-1.8057,-1.8174,-1.8234,-1.8297,-1.8287,-1.8291,-1.8256,-1.8194,-1.814,-1.8081,-1.8024,-1.7985,-1.7983,-1.7942,-1.7864,-1.7831,-1.7839,-1.7786,-1.776,-1.7858,-1.7869,-1.7814,-1.7658,-1.7726,-1.78,-1.7822,-1.7909,-1.8055,-1.8151,-1.8215,-1.8239,-1.831,-1.8409,-1.8495,-1.8534,-1.8573,-1.865,-1.8752,-1.8806,-1.8825,-1.8896,-1.8984,-1.9053,-1.9104,-1.9153,-1.9143,-1.9141,-1.9215,-1.9272,-1.9335,-1.9379,-1.9415,-1.946,-1.9501,-1.9548,-1.9583,-1.9613,-1.9628,-1.9636,-1.9675,-1.9701,-1.9723,-1.9745,-1.9767,-2.2338,-2.2338,-2.2352,-2.2329,-2.2338,-2.2343,-2.2329,-2.2352,-2.2329,-2.2374,-2.2368,-2.2167,-2.1808,-2.1408,-2.1097,-2.0622,-1.9896,-1.9034,-1.837,-1.7971,-1.7875,-1.7845,-1.7794,-1.7749,-1.7661,-1.7589,-1.7522,-1.7476,-1.744,-1.744,-1.7425,-1.7385,-1.7373,-1.7389,-1.7428,-1.744,-1.7464,-1.7527,-1.7592,-1.7658,-1.7706,-1.7786,-1.7816,-1.785,-1.7944,-1.8027,-1.8057,-1.8037,-1.8057,-1.8138,-1.8136,-1.8173,-1.8265,-1.8297,-1.8309,-1.8309,-1.8316,-1.8296,-1.8265,-1.825,-1.8195,-1.816,-1.81,-1.8048,-1.8013,-1.7972,-1.7942,-1.7964,-1.7939,-1.7931,-1.7961,-1.7964,-1.7933,-1.7884,-1.7909,-1.795,-1.7964,-1.8057,-1.8166,-1.8263,-1.8345,-1.8397,-1.8438,-1.8534,-1.8593,-1.8639,-1.8687,-1.8761,-1.8843,-1.8878,-1.8914,-1.9009,-1.9069,-1.9129,-1.9177,-1.9233,-1.9238,-1.9244,-1.9301,-1.9349,-1.9403,-1.9433,-1.9458,-1.9504,-1.9543,-1.9588,-1.9613,-1.9637,-1.9658,-1.9669,-1.9694,-1.9723,-1.9763,-1.9792,-1.9804,-2.2501,-2.2501,-2.2501,-2.2501,-2.2501,-2.2501,-2.2501,-2.2501,-2.2501,-2.252,-2.2565,-2.2574,-2.237,-2.2014,-2.1949,-2.1536,-2.0856,-2.0302,-1.9539,-1.8585,-1.811,-1.7983,-1.7933,-1.7889,-1.7805,-1.7726,-1.7715,-1.7692,-1.7615,-1.7607,-1.7601,-1.7566,-1.7554,-1.7569,-1.7598,-1.7633,-1.7664,-1.7715,-1.7783,-1.7833,-1.7873,-1.7942,-1.7988,-1.8029,-1.8104,-1.8176,-1.822,-1.8241,-1.8232,-1.825,-1.8285,-1.8329,-1.8407,-1.8409,-1.841,-1.84,-1.8398,-1.8378,-1.8368,-1.8325,-1.8291,-1.8239,-1.821,-1.815,-1.8108,-1.8078,-1.8076,-1.8106,-1.8085,-1.8085,-1.8106,-1.8108,-1.8108,-1.8117,-1.8081,-1.8091,-1.8106,-1.8208,-1.8301,-1.8375,-1.8456,-1.8514,-1.8553,-1.8639,-1.8687,-1.8742,-1.8797,-1.8852,-1.8914,-1.8976,-1.9026,-1.9085,-1.9144,-1.9192,-1.924,-1.9294,-1.9338,-1.9361,-1.9385,-1.9433,-1.9479,-1.9475,-1.9494,-1.9532,-1.9578,-1.9615,-1.9642,-1.9674,-1.9701,-1.9713,-1.9729,-1.9767,-1.9788,-1.9791,-1.981,-2.252,-2.2528,-2.2528,-2.2542,-2.2542,-2.2533,-2.2547,-2.2542,-2.2533,-2.2597,-2.2685,-2.2712,-2.276,-2.2837,-2.2738,-2.2382,-2.1915,-2.1616,-2.0891,-1.9666,-1.8749,-1.8185,-1.8052,-1.8016,-1.7964,-1.7892,-1.79,-1.7867,-1.78,-1.78,-1.78,-1.7789,-1.78,-1.7822,-1.7825,-1.7872,-1.7903,-1.7922,-1.7994,-1.8016,-1.8024,-1.8072,-1.8145,-1.8194,-1.8232,-1.8258,-1.8338,-1.8417,-1.8437,-1.8341,-1.8428,-1.8505,-1.8571,-1.8593,-1.8584,-1.8556,-1.8544,-1.8505,-1.8485,-1.8407,-1.8336,-1.8318,-1.8307,-1.8309,-1.8268,-1.8218,-1.8206,-1.8249,-1.8227,-1.8208,-1.8259,-1.827,-1.8288,-1.8299,-1.826,-1.823,-1.8299,-1.8384,-1.8434,-1.8485,-1.8551,-1.86,-1.8631,-1.8733,-1.8788,-1.8833,-1.8878,-1.8949,-1.8992,-1.9053,-1.9093,-1.9142,-1.9215,-1.9272,-1.9326,-1.9362,-1.9405,-1.942,-1.9451,-1.9489,-1.9529,-1.9534,-1.9546,-1.9583,-1.9613,-1.9642,-1.9667,-1.9707,-1.9729,-1.9735,-1.9757,-1.9795,-1.9813,-1.9816,-1.983,-2.2803,-2.2803,-2.279,-2.2803,-2.2795,-2.2803,-2.2799,-2.2803,-2.279,-2.2795,-2.2846,-2.2838,-2.2872,-2.2898,-2.2902,-2.2767,-2.2523,-2.207,-2.1683,-2.1031,-1.9725,-1.8752,-1.8265,-1.814,-1.8078,-1.7996,-1.7977,-1.7972,-1.7942,-1.7944,-1.7961,-1.795,-1.7996,-1.8027,-1.8029,-1.8089,-1.8138,-1.813,-1.8129,-1.8187,-1.8279,-1.826,-1.8294,-1.8344,-1.8404,-1.8454,-1.8512,-1.8544,-1.8556,-1.8528,-1.8546,-1.8574,-1.8602,-1.8595,-1.8604,-1.8613,-1.8584,-1.8565,-1.8555,-1.8487,-1.8447,-1.8428,-1.8369,-1.8309,-1.8309,-1.828,-1.8288,-1.8309,-1.828,-1.8281,-1.831,-1.8348,-1.8424,-1.8501,-1.8423,-1.8383,-1.8435,-1.8512,-1.856,-1.8583,-1.8677,-1.8723,-1.8752,-1.8816,-1.8878,-1.8896,-1.8975,-1.9062,-1.9087,-1.9136,-1.9166,-1.9219,-1.9274,-1.9347,-1.9411,-1.9446,-1.9473,-1.9478,-1.9516,-1.9553,-1.9585,-1.9585,-1.962,-1.9669,-1.9669,-1.9683,-1.9706,-1.9741,-1.9738,-1.9754,-1.9788,-1.9822,-1.9828,-1.983,-1.9866,-2.2982,-2.2982,-2.2986,-2.297,-2.2936,-2.2944,-2.2944,-2.2936,-2.2944,-2.2982,-2.302,-2.3024,-2.3049,-2.3061,-2.3082,-2.3082,-2.3012,-2.2635,-2.2262,-2.1712,-2.0326,-1.9145,-1.8438,-1.8222,-1.8199,-1.8138,-1.8108,-1.8119,-1.8129,-1.8119,-1.8127,-1.8129,-1.8161,-1.8191,-1.8173,-1.8211,-1.8232,-1.8241,-1.8256,-1.8322,-1.8405,-1.843,-1.8462,-1.8483,-1.8542,-1.8582,-1.8666,-1.8686,-1.8669,-1.8659,-1.8669,-1.8696,-1.8724,-1.8715,-1.8715,-1.8715,-1.8678,-1.8641,-1.8631,-1.8583,-1.8553,-1.8535,-1.845,-1.8431,-1.843,-1.843,-1.843,-1.843,-1.8421,-1.8421,-1.8439,-1.8467,-1.8523,-1.8581,-1.8544,-1.8516,-1.8536,-1.8636,-1.8684,-1.8705,-1.877,-1.8843,-1.8843,-1.8931,-1.8975,-1.9,-1.9069,-1.9129,-1.9163,-1.92,-1.9246,-1.9289,-1.9352,-1.9416,-1.9462,-1.9506,-1.953,-1.9534,-1.9562,-1.9614,-1.964,-1.9649,-1.9667,-1.9699,-1.9706,-1.9719,-1.9751,-1.9773,-1.9779,-1.9794,-1.983,-1.9852,-1.9854,-1.9866,-1.99,-2.3119,-2.314,-2.3132,-2.3095,-2.3036,-2.3033,-2.3049,-2.3028,-2.3036,-2.3107,-2.318,-2.3226,-2.3241,-2.331,-2.3298,-2.3321,-2.3313,-2.3212,-2.2782,-2.1941,-2.0709,-1.9522,-1.8675,-1.84,-1.8326,-1.8288,-1.8309,-1.8288,-1.8277,-1.8287,-1.8299,-1.8288,-1.8309,-1.832,-1.832,-1.833,-1.8339,-1.8351,-1.8388,-1.8417,-1.8464,-1.8542,-1.8599,-1.8627,-1.8649,-1.8715,-1.8779,-1.8815,-1.8779,-1.8734,-1.877,-1.8825,-1.8887,-1.8887,-1.8887,-1.8861,-1.8779,-1.8734,-1.8724,-1.8678,-1.8613,-1.8622,-1.8595,-1.8586,-1.8557,-1.8557,-1.8548,-1.8556,-1.8576,-1.8576,-1.8603,-1.8613,-1.8631,-1.8659,-1.8688,-1.8679,-1.8669,-1.874,-1.8804,-1.8815,-1.887,-1.8905,-1.8948,-1.9017,-1.9104,-1.9086,-1.9161,-1.92,-1.9241,-1.9297,-1.9325,-1.9344,-1.9415,-1.9484,-1.9522,-1.9557,-1.958,-1.9605,-1.9639,-1.9668,-1.9699,-1.9715,-1.971,-1.9722,-1.9748,-1.9767,-1.9788,-1.98,-1.9811,-1.9839,-1.9869,-1.9877,-1.99,-1.9911,-1.9939,-2.3253,-2.3244,-2.3253,-2.3253,-2.325,-2.325,-2.3241,-2.3241,-2.3232,-2.3265,-2.3289,-2.3345,-2.336,-2.3383,-2.3448,-2.345,-2.3471,-2.3406,-2.3003,-2.2143,-2.1308,-2.0343,-1.9437,-1.8814,-1.8427,-1.8378,-1.8319,-1.8309,-1.8319,-1.8339,-1.8329,-1.8377,-1.8437,-1.8475,-1.8513,-1.8506,-1.8545,-1.8546,-1.8555,-1.8546,-1.8565,-1.8631,-1.8705,-1.8751,-1.8798,-1.8834,-1.8869,-1.8878,-1.8869,-1.886,-1.8878,-1.8896,-1.8905,-1.8896,-1.8896,-1.8896,-1.8878,-1.8843,-1.8852,-1.8788,-1.8733,-1.8697,-1.8633,-1.8586,-1.8586,-1.8595,-1.8604,-1.8603,-1.8586,-1.8632,-1.8688,-1.8724,-1.8752,-1.8788,-1.8816,-1.8843,-1.8843,-1.886,-1.8869,-1.8914,-1.8975,-1.9053,-1.9053,-1.9119,-1.9178,-1.9194,-1.9241,-1.9286,-1.9341,-1.939,-1.9409,-1.9437,-1.9489,-1.9557,-1.9576,-1.961,-1.9635,-1.9668,-1.9694,-1.971,-1.9751,-1.9757,-1.9745,-1.976,-1.9789,-1.9804,-1.9825,-1.9824,-1.982,-1.9862,-1.9904,-1.9926,-1.9943,-1.9965,-1.9977,-2.3487,-2.3499,-2.3487,-2.3473,-2.3439,-2.3439,-2.3439,-2.3448,-2.3448,-2.3453,-2.3496,-2.3524,-2.3535,-2.3542,-2.3587,-2.3589,-2.3589,-2.3569,-2.3148,-2.2321,-2.1552,-2.0736,-1.993,-1.9141,-1.8612,-1.8515,-1.8477,-1.8449,-1.844,-1.8439,-1.846,-1.8487,-1.8535,-1.8554,-1.8582,-1.8584,-1.8604,-1.8641,-1.8678,-1.8705,-1.8742,-1.8771,-1.8807,-1.8852,-1.8905,-1.8948,-1.9001,-1.899,-1.9007,-1.9033,-1.9042,-1.9008,-1.8966,-1.8931,-1.8939,-1.894,-1.8913,-1.8895,-1.8878,-1.887,-1.8825,-1.8789,-1.8744,-1.8744,-1.8744,-1.8735,-1.8735,-1.8752,-1.8744,-1.8762,-1.8789,-1.8816,-1.8861,-1.8869,-1.8896,-1.8922,-1.8975,-1.8968,-1.8959,-1.9001,-1.906,-1.9101,-1.9143,-1.9217,-1.9248,-1.9255,-1.9354,-1.9405,-1.9427,-1.9474,-1.951,-1.9536,-1.9585,-1.9626,-1.9635,-1.9661,-1.9694,-1.9713,-1.9741,-1.9757,-1.9785,-1.9776,-1.9773,-1.9791,-1.9816,-1.9844,-1.9849,-1.9848,-1.9858,-1.9887,-1.9934,-1.9969,-1.9991,-1.9993,-2.0019,-2.3712,-2.3712,-2.3721,-2.3667,-2.3629,-2.3638,-2.3618,-2.3638,-2.362,-2.3656,-2.3702,-2.3723,-2.3723,-2.3743,-2.3754,-2.3745,-2.3745,-2.3727,-2.3357,-2.2815,-2.1777,-2.1046,-2.0271,-1.9452,-1.8798,-1.8669,-1.8613,-1.8613,-1.8612,-1.8612,-1.8593,-1.8622,-1.8622,-1.8659,-1.8651,-1.8642,-1.8688,-1.8734,-1.8779,-1.8834,-1.8896,-1.8905,-1.8948,-1.8974,-1.9018,-1.9061,-1.9103,-1.911,-1.9133,-1.9192,-1.9192,-1.9127,-1.9061,-1.9036,-1.9036,-1.9026,-1.8991,-1.8957,-1.8948,-1.8931,-1.8904,-1.8895,-1.8886,-1.8895,-1.8878,-1.8869,-1.8869,-1.8869,-1.8869,-1.8869,-1.8895,-1.8904,-1.8913,-1.8931,-1.8939,-1.8991,-1.906,-1.9062,-1.9079,-1.9095,-1.9141,-1.9187,-1.9238,-1.9295,-1.9308,-1.9337,-1.9442,-1.9514,-1.9536,-1.9555,-1.9588,-1.9599,-1.9633,-1.9657,-1.9674,-1.971,-1.9741,-1.9748,-1.9779,-1.9804,-1.9828,-1.9828,-1.9824,-1.9824,-1.984,-1.9861,-1.9888,-1.9908,-1.9926,-1.9935,-1.9953,-1.9993,-2.0014,-2.0025,-2.0059,-2.3774,-2.3783,-2.3786,-2.3774,-2.3781,-2.3763,-2.3772,-2.3765,-2.3779,-2.3773,-2.3794,-2.3845,-2.3873,-2.3885,-2.3916,-2.3945,-2.3935,-2.3916,-2.3813,-2.3321,-2.2222,-2.1251,-2.0897,-1.9641,-1.8976,-1.8834,-1.8762,-1.8716,-1.8688,-1.8641,-1.8688,-1.8751,-1.8761,-1.8779,-1.8825,-1.8851,-1.8843,-1.8851,-1.8887,-1.8914,-1.8958,-1.9018,-1.9095,-1.9118,-1.9144,-1.9177,-1.9194,-1.9185,-1.9193,-1.9193,-1.9192,-1.9184,-1.9177,-1.916,-1.916,-1.9135,-1.9101,-1.9067,-1.9061,-1.9018,-1.8966,-1.8922,-1.8904,-1.8904,-1.8904,-1.8904,-1.8922,-1.8904,-1.8904,-1.8913,-1.8895,-1.8966,-1.9027,-1.9053,-1.9067,-1.91,-1.9151,-1.9168,-1.9177,-1.9209,-1.9243,-1.9277,-1.9331,-1.9381,-1.9418,-1.9455,-1.9524,-1.9569,-1.9583,-1.9625,-1.9679,-1.9676,-1.968,-1.9687,-1.9704,-1.9757,-1.9792,-1.9788,-1.9806,-1.984,-1.9857,-1.9879,-1.9884,-1.9877,-1.9871,-1.9881,-1.9913,-1.9951,-1.9959,-1.9963,-1.999,-2.002,-2.0045,-2.0064,-2.0108,-2.3907,-2.3907,-2.3913,-2.3903,-2.3893,-2.3912,-2.3903,-2.3912,-2.3905,-2.3896,-2.3926,-2.3976,-2.4006,-2.4016,-2.4065,-2.4084,-2.4094,-2.4064,-2.4035,-2.3659,-2.2399,-2.1543,-2.1298,-1.9837,-1.9257,-1.9051,-1.8957,-1.8851,-1.8798,-1.8789,-1.8798,-1.8825,-1.8843,-1.8869,-1.8895,-1.8886,-1.8948,-1.8974,-1.9,-1.9035,-1.9051,-1.9128,-1.9186,-1.9235,-1.9247,-1.9263,-1.9314,-1.9346,-1.9352,-1.9361,-1.937,-1.9354,-1.9337,-1.9329,-1.9289,-1.9217,-1.9176,-1.9151,-1.9162,-1.912,-1.9085,-1.9059,-1.9025,-1.9007,-1.9016,-1.9017,-1.9009,-1.9,-1.899,-1.9007,-1.9016,-1.9059,-1.912,-1.9145,-1.916,-1.9182,-1.9239,-1.9253,-1.9295,-1.932,-1.9312,-1.9357,-1.9418,-1.9475,-1.9536,-1.9587,-1.962,-1.9631,-1.9636,-1.9676,-1.9728,-1.9725,-1.9716,-1.9741,-1.9757,-1.9785,-1.9822,-1.9818,-1.9827,-1.986,-1.9892,-1.9904,-1.9932,-1.9935,-1.9934,-1.9917,-1.9939,-1.9981,-1.9983,-2.0,-2.004,-2.0069,-2.0098,-2.0117,-2.0163,-2.4066,-2.4047,-2.4037,-2.4037,-2.4046,-2.4027,-2.4046,-2.4046,-2.4056,-2.4056,-2.4056,-2.4123,-2.4142,-2.4152,-2.4199,-2.4218,-2.4209,-2.4171,-2.4051,-2.3528,-2.2392,-2.1633,-2.0994,-2.0127,-1.9233,-1.9191,-1.9157,-1.9065,-1.8965,-1.8931,-1.8948,-1.8957,-1.8939,-1.8939,-1.8965,-1.8982,-1.9053,-1.9087,-1.9121,-1.9171,-1.92,-1.9233,-1.9274,-1.933,-1.9332,-1.9355,-1.9414,-1.9463,-1.947,-1.9477,-1.9492,-1.949,-1.9499,-1.9497,-1.9422,-1.9281,-1.9241,-1.9224,-1.9216,-1.9217,-1.9192,-1.9159,-1.9133,-1.9133,-1.9125,-1.9119,-1.912,-1.912,-1.911,-1.9116,-1.9125,-1.9158,-1.92,-1.9215,-1.9215,-1.9248,-1.9326,-1.9364,-1.9413,-1.9418,-1.9404,-1.9427,-1.9503,-1.9553,-1.9611,-1.9622,-1.9653,-1.968,-1.9684,-1.971,-1.9732,-1.9745,-1.9742,-1.9785,-1.9794,-1.9809,-1.9846,-1.9848,-1.9871,-1.9898,-1.9921,-1.9922,-1.9946,-1.9978,-1.9958,-1.9947,-1.9974,-2.0004,-2.0025,-2.005,-2.0093,-2.0122,-2.014,-2.0176,-2.0216,-2.4266,-2.4248,-2.4201,-2.4182,-2.4173,-2.4173,-2.4173,-2.4191,-2.4238,-2.4275,-2.4257,-2.4275,-2.4266,-2.4284,-2.4284,-2.4294,-2.4294,-2.4266,-2.3943,-2.327,-2.2321,-2.1466,-2.0742,-1.9861,-1.9396,-1.9317,-1.9282,-1.9204,-1.9124,-1.9085,-1.9067,-1.9066,-1.9066,-1.91,-1.911,-1.9126,-1.9159,-1.9194,-1.9202,-1.9232,-1.9275,-1.9332,-1.9398,-1.9461,-1.9475,-1.9474,-1.9507,-1.9528,-1.9521,-1.9521,-1.9508,-1.9508,-1.9505,-1.9499,-1.9503,-1.9452,-1.9405,-1.9351,-1.9309,-1.9304,-1.9282,-1.9241,-1.9208,-1.9201,-1.9201,-1.9201,-1.9193,-1.9185,-1.9192,-1.9191,-1.9208,-1.9209,-1.9231,-1.9261,-1.93,-1.9366,-1.9444,-1.9466,-1.9505,-1.9536,-1.953,-1.9548,-1.9599,-1.9636,-1.9673,-1.9684,-1.9694,-1.9704,-1.9729,-1.9763,-1.9776,-1.9785,-1.9785,-1.9818,-1.9836,-1.985,-1.9871,-1.9877,-1.9906,-1.9937,-1.9941,-1.9958,-1.9989,-2.0,-1.9985,-1.9986,-2.0026,-2.0055,-2.0079,-2.0103,-2.0135,-2.0162,-2.0194,-2.0233,-2.0267,-2.4402,-2.4294,-2.4321,-2.4312,-2.4303,-2.4311,-2.432,-2.432,-2.4338,-2.4347,-2.4365,-2.4392,-2.4436,-2.4463,-2.4462,-2.4472,-2.4454,-2.4427,-2.3974,-2.3141,-2.2325,-2.1493,-2.0729,-1.9937,-1.9479,-1.9427,-1.9413,-1.94,-1.9311,-1.9241,-1.9192,-1.9158,-1.9149,-1.9168,-1.9217,-1.9252,-1.9248,-1.927,-1.9318,-1.937,-1.9405,-1.9444,-1.9491,-1.9567,-1.9574,-1.9581,-1.9601,-1.9618,-1.9611,-1.9618,-1.962,-1.9613,-1.9615,-1.9613,-1.9613,-1.9615,-1.9595,-1.9522,-1.9426,-1.9424,-1.9384,-1.9369,-1.9329,-1.9304,-1.928,-1.9263,-1.9263,-1.9253,-1.9297,-1.9304,-1.9312,-1.9344,-1.9375,-1.9396,-1.94,-1.9455,-1.9526,-1.9559,-1.9587,-1.9625,-1.9653,-1.9653,-1.9653,-1.9686,-1.9716,-1.9713,-1.9732,-1.9757,-1.9788,-1.9828,-1.9838,-1.9848,-1.985,-1.9856,-1.9873,-1.9881,-1.9915,-1.9932,-1.9946,-1.9967,-1.9975,-1.9991,-2.0021,-2.0045,-2.0055,-2.0074,-2.0088,-2.0098,-2.0112,-2.0144,-2.017,-2.0201,-2.0232,-2.0256,-2.0279,-2.4548,-2.4419,-2.4437,-2.4465,-2.4456,-2.4452,-2.4451,-2.4442,-2.446,-2.446,-2.4486,-2.4538,-2.4588,-2.4604,-2.4613,-2.4623,-2.4622,-2.4561,-2.3884,-2.3094,-2.2315,-2.1472,-2.0575,-1.9825,-1.9595,-1.9544,-1.9544,-1.9525,-1.9484,-1.9437,-1.936,-1.9274,-1.9289,-1.929,-1.9281,-1.933,-1.9367,-1.9368,-1.9462,-1.9506,-1.9523,-1.9546,-1.9578,-1.9605,-1.9632,-1.9655,-1.9712,-1.9722,-1.9722,-1.9722,-1.9725,-1.9719,-1.9712,-1.971,-1.971,-1.9712,-1.9699,-1.966,-1.9569,-1.9529,-1.951,-1.949,-1.947,-1.9407,-1.9372,-1.9346,-1.9346,-1.9355,-1.9388,-1.9413,-1.9426,-1.9457,-1.9486,-1.9501,-1.9515,-1.956,-1.9597,-1.962,-1.9638,-1.9667,-1.9684,-1.9701,-1.9707,-1.9729,-1.9742,-1.9748,-1.977,-1.9804,-1.9843,-1.9879,-1.988,-1.9888,-1.988,-1.9885,-1.9898,-1.9915,-1.9945,-1.997,-1.9993,-2.0014,-2.0026,-2.0031,-2.006,-2.0088,-2.0121,-2.0158,-2.018,-2.0162,-2.0149,-2.0194,-2.0227,-2.0242,-2.0262,-2.0281,-2.0309,-2.4732,-2.4668,-2.4604,-2.4581,-2.4573,-2.4581,-2.458,-2.4588,-2.4589,-2.4623,-2.4646,-2.4687,-2.4682,-2.4692,-2.47,-2.4709,-2.4701,-2.4692,-2.374,-2.28,-2.2093,-2.1281,-2.0379,-1.9821,-1.9702,-1.968,-1.967,-1.9635,-1.9601,-1.959,-1.9529,-1.9492,-1.9461,-1.9468,-1.9452,-1.9459,-1.9479,-1.9492,-1.9567,-1.9594,-1.9612,-1.9641,-1.9681,-1.9688,-1.9701,-1.9723,-1.977,-1.9785,-1.9792,-1.9792,-1.9801,-1.9791,-1.9788,-1.9782,-1.9782,-1.9788,-1.9792,-1.9751,-1.9694,-1.9619,-1.9557,-1.9527,-1.951,-1.9514,-1.9486,-1.9474,-1.9475,-1.9472,-1.9503,-1.9501,-1.9496,-1.9511,-1.9555,-1.9576,-1.9599,-1.9636,-1.9663,-1.9673,-1.9699,-1.9704,-1.9732,-1.9757,-1.9769,-1.9791,-1.98,-1.98,-1.9803,-1.9836,-1.9873,-1.9911,-1.9921,-1.9919,-1.9892,-1.9898,-1.9922,-1.9947,-1.9988,-2.0003,-2.002,-2.0055,-2.0084,-2.0103,-2.0112,-2.0153,-2.0198,-2.0233,-2.0259,-2.0227,-2.0214,-2.0263,-2.0287,-2.0277,-2.0289,-2.0307,-2.034,-2.4844,-2.483,-2.4792,-2.4759,-2.472,-2.4713,-2.473,-2.473,-2.4721,-2.4729,-2.4753,-2.4749,-2.4757,-2.4766,-2.4759,-2.4757,-2.4766,-2.4776,-2.3714,-2.2804,-2.2139,-2.1311,-2.0355,-1.9898,-1.9797,-1.9845,-1.982,-1.9763,-1.9725,-1.9891,-1.9741,-1.9679,-1.9776,-1.9564,-1.9564,-1.9574,-1.9578,-1.9616,-1.9646,-1.9666,-1.9729,-1.9742,-1.9782,-1.9818,-1.9818,-1.9828,-1.9849,-1.9859,-1.9874,-1.9865,-1.9873,-1.9867,-1.9861,-1.9854,-1.9857,-1.9855,-1.9865,-1.9849,-1.981,-1.9729,-1.9633,-1.9628,-1.9629,-1.9625,-1.9618,-1.9625,-1.9625,-1.9622,-1.9615,-1.9603,-1.9626,-1.9624,-1.9637,-1.9651,-1.9677,-1.9715,-1.9735,-1.9745,-1.977,-1.9791,-1.9806,-1.983,-1.9852,-1.9857,-1.9857,-1.9857,-1.986,-1.9871,-1.9913,-1.994,-1.994,-1.9951,-1.9934,-1.9934,-1.9951,-1.999,-2.002,-2.004,-2.0055,-2.0103,-2.015,-2.0158,-2.0176,-2.0219,-2.0244,-2.0264,-2.0275,-2.0269,-2.0273,-2.029,-2.0295,-2.0294,-2.0311,-2.0324,-2.0357,-2.4964,-2.4954,-2.4973,-2.4912,-2.4837,-2.4823,-2.4818,-2.483,-2.483,-2.4854,-2.4861,-2.4877,-2.4884,-2.4884,-2.4901,-2.4891,-2.4901,-2.4797,-2.3993,-2.3321,-2.2726,-2.1925,-2.1131,-2.0747,-2.0877,-2.0613,-2.0617,-2.0702,-2.0784,-2.0637,-2.074,-2.0737,-2.0492,-2.0371,-1.9665,-1.9683,-1.9697,-1.9738,-1.9763,-1.9781,-1.9848,-1.9869,-1.9871,-1.9915,-1.9911,-1.9922,-1.9928,-1.9934,-1.9934,-1.9934,-1.9924,-1.9928,-1.9928,-1.9922,-1.9937,-1.9947,-1.9951,-1.997,-1.9926,-1.9818,-1.9717,-1.9719,-1.9719,-1.9731,-1.9747,-1.9738,-1.9715,-1.9722,-1.9712,-1.9725,-1.9741,-1.9722,-1.9741,-1.976,-1.9767,-1.9795,-1.9816,-1.9835,-1.9853,-1.9876,-1.9888,-1.9884,-1.9887,-1.9892,-1.9902,-1.9908,-1.9928,-1.993,-1.9951,-1.9967,-1.9974,-1.9976,-1.9977,-1.9981,-1.9993,-2.0031,-2.0064,-2.0069,-2.0098,-2.0173,-2.0213,-2.022,-2.0236,-2.0258,-2.0281,-2.0292,-2.0289,-2.0283,-2.0281,-2.0288,-2.0301,-2.0321,-2.0337,-2.036,-2.0363,-2.5101,-2.5082,-2.5101,-2.5025,-2.4908,-2.4902,-2.4902,-2.4899,-2.4899,-2.4931,-2.4993,-2.5038,-2.506,-2.507,-2.5047,-2.5038,-2.5038,-2.5016,-2.4493,-2.3767,-2.3476,-2.3052,-2.2537,-2.2123,-2.1901,-2.2329,-2.213,-2.1978,-2.2206,-2.1992,-2.2105,-2.2134,-2.1839,-2.1425,-1.9979,-1.9857,-1.9883,-1.9932,-2.0068,-2.0191,-2.0285,-2.0368,-2.039,-2.0406,-2.0431,-2.0489,-2.0518,-2.0505,-2.0533,-2.0514,-2.0457,-2.0448,-2.0415,-2.0377,-2.0348,-2.0301,-2.0234,-2.0176,-2.0088,-1.9921,-1.9899,-1.9837,-1.9813,-1.982,-1.9807,-1.9807,-1.9804,-1.9816,-1.9804,-1.9816,-1.9819,-1.9822,-1.9849,-1.9861,-1.9867,-1.9867,-1.9888,-1.9903,-1.9921,-1.9932,-1.9911,-1.9902,-1.9909,-1.9926,-1.9945,-1.996,-1.9986,-1.9988,-1.9993,-1.9991,-1.9988,-2.0003,-2.0009,-2.0031,-2.0036,-2.0079,-2.0107,-2.0107,-2.0153,-2.0222,-2.026,-2.0261,-2.0279,-2.0293,-2.0304,-2.031,-2.0301,-2.0289,-2.0312,-2.0331,-2.035,-2.0369,-2.0382,-2.0387,-2.0384,-2.518,-2.517,-2.517,-2.514,-2.5107,-2.506,-2.5028,-2.5028,-2.5024,-2.504,-2.5062,-2.5083,-2.5083,-2.5083,-2.5099,-2.5099,-2.5108,-2.5074,-2.4638,-2.3967,-2.3919,-2.3299,-2.2874,-2.2763,-2.2678,-2.2582,-2.2592,-2.2706,-2.2492,-2.2744,-2.263,-2.2559,-2.2767,-2.2245,-2.1769,-2.1603,-2.1621,-2.165,-2.1698,-2.1722,-2.1702,-2.1656,-2.1629,-2.1606,-2.1587,-2.1573,-2.1554,-2.1497,-2.1502,-2.1526,-2.1507,-2.1535,-2.1554,-2.1564,-2.1607,-2.1645,-2.1683,-2.172,-2.1523,-2.1236,-2.0508,-2.0227,-1.9923,-1.9936,-1.9926,-1.9936,-1.9926,-1.9917,-1.9902,-1.9923,-1.9938,-1.9934,-1.994,-1.9945,-1.9945,-1.9951,-1.9966,-1.9966,-1.9981,-1.9971,-1.9956,-1.9956,-1.9958,-1.995,-1.9965,-1.9985,-1.9996,-1.9986,-1.9988,-1.999,-1.9986,-2.0025,-2.0045,-2.0065,-2.0087,-2.0129,-2.0167,-2.0171,-2.0207,-2.0264,-2.0292,-2.0296,-2.0303,-2.0311,-2.0318,-2.0324,-2.0331,-2.0337,-2.0361,-2.0389,-2.0396,-2.0393,-2.0383,-2.0385,-2.0385,-2.5238,-2.5238,-2.5228,-2.5243,-2.5243,-2.5181,-2.514,-2.5164,-2.5165,-2.5165,-2.5171,-2.5175,-2.5171,-2.5161,-2.5156,-2.5161,-2.5165,-2.5156,-2.5066,-2.4391,-2.441,-2.4137,-2.3783,-2.3486,-2.3773,-2.3524,-2.3514,-2.3601,-2.3716,-2.3591,-2.3639,-2.3687,-2.3505,-2.3612,-2.3324,-2.2981,-2.241,-2.2396,-2.2384,-2.2458,-2.2493,-2.2542,-2.2571,-2.2551,-2.2566,-2.2585,-2.2638,-2.2676,-2.269,-2.2714,-2.2714,-2.2719,-2.2705,-2.2695,-2.2681,-2.2676,-2.2637,-2.2589,-2.2339,-2.2162,-2.1529,-2.1164,-2.0466,-2.0026,-1.9992,-1.9977,-1.9977,-1.9977,-1.9997,-1.9992,-2.0001,-2.0001,-2.0007,-2.0007,-2.0012,-2.0012,-1.9997,-1.9997,-2.0001,-2.0001,-1.9986,-1.9986,-1.9986,-1.9988,-1.9983,-1.9999,-2.0019,-2.0057,-2.0076,-2.0035,-2.0036,-2.006,-2.0088,-2.012,-2.015,-2.02,-2.0223,-2.0233,-2.0261,-2.0298,-2.0298,-2.0294,-2.0308,-2.0334,-2.0341,-2.0363,-2.0371,-2.0388,-2.0396,-2.0411,-2.0433,-2.0414,-2.0392,-2.0392,-2.0402,-2.524,-2.5231,-2.5212,-2.5183,-2.5245,-2.4999,-2.5084,-2.5287,-2.5307,-2.5308,-2.5298,-2.5298,-2.5293,-2.5313,-2.5322,-2.5313,-2.5303,-2.5303,-2.5236,-2.5197,-2.5087,-2.5038,-2.5067,-2.5,-2.4827,-2.5038,-2.5048,-2.4755,-2.5188,-2.4885,-2.4913,-2.5067,-2.4865,-2.4841,-2.4433,-2.3866,-2.3227,-2.3266,-2.329,-2.3348,-2.34,-2.3225,-2.3325,-2.3344,-2.3325,-2.3301,-2.3291,-2.3263,-2.3181,-2.3123,-2.306,-2.3012,-2.2965,-2.2919,-2.2896,-2.2925,-2.2978,-2.3055,-2.3064,-2.2988,-2.2738,-2.2312,-2.1177,-2.0455,-2.0169,-2.0302,-2.0264,-2.0131,-2.0055,-2.0031,-2.0016,-2.0026,-2.004,-2.004,-2.004,-2.004,-2.0021,-2.0021,-2.0016,-2.0011,-1.9991,-1.9986,-1.9995,-1.9986,-2.0248,-2.0396,-2.0516,-2.0703,-2.0622,-2.016,-2.0146,-2.0098,-2.0139,-2.0182,-2.0216,-2.0246,-2.0252,-2.0265,-2.0265,-2.029,-2.0292,-2.0315,-2.0341,-2.0366,-2.0375,-2.0387,-2.0384,-2.0395,-2.0412,-2.0427,-2.0459,-2.0459,-2.0434,-2.0424,-2.0437,-2.4107,-2.3612,-2.3595,-2.3608,-2.361,-2.3595,-2.4233,-2.5283,-2.5374,-2.5373,-2.5362,-2.5362,-2.5212,-2.5432,-2.5446,-2.5403,-2.5422,-2.5451,-2.5432,-2.5432,-2.5422,-2.5441,-2.5451,-2.5432,-2.5441,-2.5441,-2.5441,-2.5441,-2.5412,-2.5441,-2.5432,-2.5403,-2.5432,-2.5441,-2.5248,-2.4887,-2.4597,-2.4407,-2.4358,-2.4366,-2.4461,-2.4466,-2.4503,-2.4488,-2.4469,-2.4441,-2.4424,-2.4458,-2.4464,-2.4534,-2.4587,-2.4626,-2.465,-2.4646,-2.4651,-2.4656,-2.4667,-2.4643,-2.4514,-2.4038,-2.3692,-2.3538,-2.2598,-2.1765,-2.1325,-2.1039,-2.0866,-2.0656,-2.0364,-2.0341,-2.0269,-2.0226,-2.0178,-2.0126,-2.0126,-2.0112,-2.0093,-2.0084,-2.0079,-2.0088,-2.0069,-2.0264,-2.0221,-2.0364,-2.0621,-2.0832,-2.1047,-2.1277,-2.1197,-2.0738,-2.044,-2.0402,-2.0198,-2.0229,-2.0248,-2.0277,-2.0286,-2.0294,-2.0301,-2.0324,-2.0334,-2.036,-2.0375,-2.0387,-2.0395,-2.0396,-2.039,-2.0408,-2.0451,-2.0464,-2.0495,-2.0485,-2.0476,-2.0464,-2.0464,-2.3394,-2.2979,-2.2938,-2.2929,-2.2939,-2.2947,-2.3579,-2.4374,-2.4465,-2.4465,-2.4463,-2.4418,-2.4478,-2.4511,-2.4776,-2.4983,-2.5,-2.5391,-2.5536,-2.5527,-2.5527,-2.5536,-2.5546,-2.5536,-2.5519,-2.5529,-2.5516,-2.5497,-2.5519,-2.5536,-2.5527,-2.5536,-2.5527,-2.5536,-2.5482,-2.5401,-2.5417,-2.5348,-2.5352,-2.5426,-2.5453,-2.551,-2.5523,-2.5536,-2.5536,-2.5487,-2.5443,-2.5443,-2.5451,-2.5449,-2.5431,-2.5422,-2.5402,-2.5389,-2.5382,-2.532,-2.5306,-2.5269,-2.5164,-2.4903,-2.4702,-2.4514,-2.4109,-2.3503,-2.2742,-2.2293,-2.1891,-2.1523,-2.1077,-2.0727,-2.0592,-2.0458,-2.0339,-2.0229,-2.0215,-2.0201,-2.0184,-2.0172,-2.0178,-2.0193,-2.0346,-2.0585,-2.0723,-2.0861,-2.1153,-2.1632,-2.1914,-2.2048,-2.1866,-2.1401,-2.1087,-2.0931,-2.0554,-2.0283,-2.0298,-2.031,-2.0314,-2.0331,-2.035,-2.0363,-2.0391,-2.039,-2.0405,-2.0406,-2.0417,-2.0417,-2.0434,-2.0464,-2.0498,-2.051,-2.0512,-2.05,-2.0498,-2.0495,-2.0495,-2.283,-2.2727,-2.2804,-2.2648,-2.2782,-2.2689,-2.2731,-2.2801,-2.2803,-2.2914,-2.305,-2.3075,-2.3211,-2.3553,-2.4112,-2.4434,-2.4731,-2.5213,-2.5585,-2.5607,-2.5587,-2.5587,-2.5594,-2.5594,-2.5566,-2.5528,-2.5525,-2.5538,-2.5541,-2.5559,-2.5578,-2.5607,-2.5597,-2.559,-2.5586,-2.5607,-2.5586,-2.5578,-2.555,-2.5529,-2.5527,-2.5562,-2.5607,-2.5597,-2.5585,-2.5562,-2.5521,-2.5505,-2.5509,-2.5499,-2.5499,-2.5495,-2.5498,-2.5507,-2.5499,-2.5501,-2.552,-2.5511,-2.5497,-2.5342,-2.5368,-2.5377,-2.5461,-2.4847,-2.4094,-2.3317,-2.2824,-2.23,-2.1843,-2.1669,-2.1554,-2.1378,-2.1236,-2.1184,-2.1166,-2.1152,-2.114,-2.1115,-2.1104,-2.1139,-2.1273,-2.1464,-2.156,-2.1737,-2.2086,-2.2571,-2.283,-2.2906,-2.2853,-2.2386,-2.1778,-2.1508,-2.1053,-2.0634,-2.033,-2.034,-2.034,-2.0355,-2.0381,-2.0389,-2.0385,-2.0394,-2.0414,-2.0434,-2.0454,-2.0478,-2.0495,-2.0507,-2.0511,-2.0509,-2.0509,-2.0505,-2.0502,-2.0505,-2.051,-2.1645,-2.1107,-2.1102,-2.1097,-2.1107,-2.1093,-2.1138,-2.1087,-2.1103,-2.1842,-2.2807,-2.2959,-2.2945,-2.2984,-2.3796,-2.4185,-2.4421,-2.5136,-2.552,-2.56,-2.5602,-2.5627,-2.5612,-2.5622,-2.5586,-2.5588,-2.5586,-2.5591,-2.5598,-2.5607,-2.5604,-2.5604,-2.5614,-2.5616,-2.5617,-2.5636,-2.5657,-2.5654,-2.5642,-2.5605,-2.5582,-2.5585,-2.5604,-2.5604,-2.5595,-2.559,-2.5571,-2.5578,-2.5578,-2.5581,-2.5566,-2.5563,-2.557,-2.5573,-2.557,-2.5577,-2.5577,-2.5567,-2.5567,-2.5567,-2.5567,-2.5567,-2.5554,-2.5467,-2.5049,-2.431,-2.3678,-2.3137,-2.275,-2.2644,-2.2492,-2.2313,-2.2128,-2.2121,-2.2126,-2.2109,-2.2092,-2.2069,-2.2054,-2.2147,-2.2259,-2.2388,-2.246,-2.2738,-2.3069,-2.3376,-2.3645,-2.3851,-2.4134,-2.3839,-2.2583,-2.2144,-2.1611,-2.1177,-2.0685,-2.0366,-2.0361,-2.0376,-2.0378,-2.0389,-2.039,-2.0429,-2.0456,-2.048,-2.0499,-2.0514,-2.0511,-2.0509,-2.0509,-2.0505,-2.0513,-2.0511,-2.0511,-2.0511,-2.0509,-2.0914,-2.0517,-2.0505,-2.0506,-2.051,-2.0504,-2.0511,-2.0537,-2.0548,-2.1056,-2.1846,-2.1911,-2.1924,-2.2244,-2.319,-2.3811,-2.4056,-2.5132,-2.5523,-2.5644,-2.5637,-2.5652,-2.565,-2.5648,-2.5648,-2.5644,-2.5648,-2.5654,-2.565,-2.565,-2.5645,-2.5636,-2.5645,-2.5648,-2.5647,-2.5683,-2.5699,-2.5694,-2.5697,-2.5673,-2.5631,-2.5634,-2.5647,-2.5645,-2.5644,-2.5631,-2.5636,-2.5636,-2.5617,-2.5612,-2.5598,-2.5593,-2.5593,-2.56,-2.56,-2.56,-2.56,-2.56,-2.561,-2.561,-2.561,-2.561,-2.56,-2.5515,-2.5504,-2.4864,-2.483,-2.4318,-2.3737,-2.355,-2.3305,-2.3108,-2.2766,-2.2623,-2.2626,-2.2611,-2.2577,-2.2551,-2.2538,-2.2567,-2.2847,-2.3327,-2.3519,-2.399,-2.4274,-2.4403,-2.4638,-2.4627,-2.4929,-2.4899,-2.3727,-2.2702,-2.2123,-2.1333,-2.0589,-2.0379,-2.0378,-2.0387,-2.0397,-2.0417,-2.0437,-2.048,-2.0508,-2.0511,-2.0503,-2.0505,-2.0513,-2.0504,-2.0511,-2.0504,-2.0504,-2.0504,-2.0506,-2.0506,-2.0507,-2.0522,-2.0504,-2.0518,-2.0516,-2.0522,-2.0518,-2.0552,-2.0596,-2.0596,-2.0596,-2.0721,-2.0697,-2.0524,-2.1095,-2.2248,-2.278,-2.3652,-2.503,-2.5547,-2.5697,-2.5687,-2.5686,-2.5685,-2.5693,-2.5678,-2.5676,-2.569,-2.5683,-2.5687,-2.5686,-2.5681,-2.5691,-2.5702,-2.5694,-2.5697,-2.57,-2.5692,-2.5693,-2.5693,-2.5693,-2.5693,-2.5699,-2.5694,-2.5701,-2.57,-2.5698,-2.5696,-2.5683,-2.5647,-2.5637,-2.5626,-2.563,-2.5629,-2.5636,-2.5629,-2.5629,-2.5629,-2.5629,-2.5629,-2.5629,-2.5629,-2.5629,-2.5619,-2.5605,-2.5595,-2.5568,-2.5529,-2.5267,-2.4681,-2.4386,-2.4144,-2.3955,-2.3597,-2.3388,-2.3382,-2.3372,-2.3332,-2.3292,-2.329,-2.3283,-2.3668,-2.4197,-2.453,-2.5012,-2.5185,-2.5343,-2.5418,-2.5458,-2.5383,-2.5047,-2.4346,-2.3295,-2.2485,-2.1623,-2.063,-2.0396,-2.0397,-2.0432,-2.0439,-2.0466,-2.0485,-2.0503,-2.0509,-2.0506,-2.0508,-2.0508,-2.0505,-2.0505,-2.0511,-2.0505,-2.0507,-2.0509,-2.0507,-2.0507,-2.0511,-2.0525,-2.0589,-2.0589,-2.0584,-2.0579,-2.0579,-2.0602,-2.0595,-2.0595,-2.0595,-2.0605,-2.0604,-2.0591,-2.0677,-2.2336,-2.3149,-2.3592,-2.4969,-2.5548,-2.5696,-2.5695,-2.5694,-2.5701,-2.5701,-2.5697,-2.5698,-2.5702,-2.5696,-2.5698,-2.5701,-2.5693,-2.5693,-2.5693,-2.5693,-2.5693,-2.5702,-2.57,-2.5698,-2.5695,-2.5694,-2.5697,-2.5702,-2.5693,-2.5693,-2.5693,-2.5693,-2.5692,-2.5701,-2.5689,-2.5685,-2.5668,-2.5672,-2.5671,-2.567,-2.567,-2.5661,-2.5661,-2.5661,-2.5661,-2.5661,-2.5671,-2.5671,-2.566,-2.5659,-2.5655,-2.5662,-2.5627,-2.5636,-2.5252,-2.5211,-2.5051,-2.5053,-2.4828,-2.4808,-2.4803,-2.4772,-2.4733,-2.4725,-2.4723,-2.4701,-2.4801,-2.5009,-2.505,-2.531,-2.5314,-2.5423,-2.5453,-2.5478,-2.5483,-2.5178,-2.4814,-2.3799,-2.2753,-2.1768,-2.0729,-2.0463,-2.0415,-2.0451,-2.0481,-2.0486,-2.0497,-2.0502,-2.0509,-2.0507,-2.0507,-2.0505,-2.0505,-2.0505,-2.0505,-2.0511,-2.0503,-2.0505,-2.0511,-2.051,-2.0508]},{"header":{"parameterUnit":"m.s-1","parameterCategory":1,"la1":31.0,"la2":29.5877,"lo1":-88.7671,"lo2":-86.6584,"dy":0.0162,"dx":0.0185,"nx":115,"ny":88,"refTime":"2023-09-10T06:00:00:Z","depth":0,"parameterNumber":3,"parameterNumberName":"V-component_of_WINDS"},"data":[0.0,0.0,0.0,0.0,0.0,0.0,0.0,0.0,0.0,0.0,0.0,0.0,0.0,0.0,0.0,0.0,0.0,0.0,0.0,0.0,0.0,0.0,0.0,0.0,0.0,0.0,0.0,0.0,0.0,0.0,0.0,0.0,0.0,0.0,0.0,0.0,0.0,0.0,0.0,0.0,0.0,0.0,0.0,0.0,0.0,0.0,0.0,0.0,0.0,0.0,0.0,0.0,0.0,0.0,0.0,0.0,0.0,0.0,0.0,0.0,0.0,0.0,0.0,0.0,0.0,0.0,0.0,0.0,0.0,0.0,0.0,0.0,0.0,0.0,0.0,0.0,0.0,0.0,0.0,0.0,0.0,0.0,0.0,0.0,0.0,0.0,0.0,0.0,0.0,0.0,0.0,0.0,0.0,0.0,0.0,0.0,0.0,0.0,0.0,0.0,0.0,0.0,0.0,0.0,0.0,0.0,0.0,0.0,0.0,0.0,0.0,0.0,0.0,0.0,0.0,0.0,0.0,0.0,0.0,0.0,0.0,0.0,0.0,0.0,0.0,0.0,0.0,0.0,0.0,0.0,0.0,0.0,0.0,0.0,0.0,0.0,0.0,0.0,0.0,0.0,0.0,0.0,0.0,0.0,0.0,0.0,0.0,0.0,0.0,0.0,0.0,0.0,0.0,0.0,0.0,0.0,0.0,0.0,0.0,0.0,0.0,0.0,0.0,0.0,0.0,0.0,0.0,0.0,0.0,0.0,0.0,0.0,0.0,0.0,0.0,0.0,0.0,0.0,0.0,0.0,0.0,0.0,0.0,0.0,0.0,0.0,0.0,0.0,0.0,0.0,0.0,0.0,0.0,0.0,0.0,0.0,0.0,0.0,0.0,0.0,0.0,0.0,0.0,0.0,0.0,0.0,0.0,0.0,0.0,0.0,0.0,0.0,0.0,0.0,0.0,0.0,0.0,0.0,0.0,0.0,0.0,0.0,0.0,0.0,0.0,0.0,0.0,0.0,0.0,0.0,0.0,0.0,0.0,0.0,0.0,0.0,0.0,0.0,0.0,0.0,0.0,0.0,0.0,0.0,0.0,0.0,0.0,0.0,0.0,0.0,0.0,0.0,0.0,0.0,0.0,0.0,0.0,0.0,0.0,0.0,0.0,0.0,0.0,0.0,0.0,0.0,0.0,0.0,0.0,0.0,0.0,0.0,0.0,0.0,0.0,0.0,0.0,0.0,0.0,0.0,0.0,0.0,0.0,0.0,0.0,0.0,0.0,0.0,0.0,0.0,0.0,0.0,0.0,0.0,0.0,0.0,0.0,0.0,0.0,0.0,0.0,0.0,0.0,0.0,0.0,0.0,0.0,0.0,0.0,0.0,0.0,0.0,0.0,0.0,0.0,0.0,0.0,0.0,0.0,0.0,0.0,0.0,0.0,0.0,0.0,0.0,0.0,0.0,0.0,0.0,0.0,0.0,0.0,0.0,0.0,0.0,0.0,0.0,0.0,0.0,0.0,0.0,0.0,0.0,0.0,0.0,0.0,0.0,0.0,0.0,0.0,0.0,0.0,0.0,0.0,0.0,0.0,0.0,0.0,0.0,0.0,0.0,0.0,0.0,0.0,0.0,0.0,0.0,0.0,0.0,0.0,0.0,0.0,0.0,0.0,0.0,0.0,0.0,0.0,0.0,0.0,0.0,0.0,0.0,0.0,0.0,0.0,0.0,0.0,0.0,0.0,0.0,0.0,0.0,0.0,0.0,0.0,0.0,0.0,0.0,0.0,0.0,0.0,0.0,0.0,0.0,0.0,0.0,0.0,0.0,0.0,0.0,0.0,0.0,0.0,0.0,0.0,0.0,0.0,0.0,0.0,0.0,0.0,0.0,0.0,0.0,0.0,0.0,0.0,0.0,0.0,0.0,0.0,0.0,0.0,0.0,0.0,0.0,0.0,0.0,0.0,0.0,0.0,0.0,0.0,0.0,0.0,0.0,0.0,0.0,0.0,0.0,0.0,0.0,0.0,0.0,0.0,0.0,0.0,0.0,0.0,0.0,0.0,0.0,0.0,0.0,0.0,0.0,0.0,0.0,0.0,0.0,0.0,0.0,0.0,0.0,0.0,0.0,0.0,0.0,0.0,0.0,0.0,0.0,0.0,0.0,0.0,0.0,0.0,0.0,0.0,0.0,0.0,0.0,0.0,0.0,0.0,0.0,0.0,0.0,0.0,0.0,0.0,0.0,0.0,0.0,0.0,0.0,0.0,0.0,0.0,0.0,0.0,0.0,0.0,0.0,0.0,0.0,0.0,0.0,0.0,0.0,0.0,0.0,0.0,0.0,0.0,0.0,0.0,0.0,0.0,0.0,0.0,0.0,0.0,0.0,0.0,0.0,0.0,0.0,0.0,0.0,0.0,0.0,0.0,0.0,0.0,0.0,0.0,0.0,0.0,0.0,0.0,0.0,0.0,0.0,0.0,0.0,0.0,0.0,0.0,0.0,0.0,0.0,0.0,0.0,0.0,0.0,0.0,0.0,0.0,0.0,0.0,0.0,0.0,0.0,0.0,0.0,0.0,0.0,0.0,0.0,0.0,0.0,0.0,0.0,0.0,0.0,0.0,0.0,0.0,0.0,0.0,0.0,0.0,0.0,0.0,0.0,0.0,0.0,0.0,0.0,0.0,0.0,0.0,0.0,0.0,0.0,0.0,0.0,0.0,0.0,0.0,0.0,0.0,0.0,0.0,0.0,0.0,0.0,0.0,0.0,0.0,0.0,0.0,0.0,0.0,0.0,0.0,0.0,0.0,0.0,0.0,0.0,0.0,0.0,0.0,0.0,0.0,0.0,0.0,0.0,0.0,0.0,0.0,0.0,0.0,0.0,0.0,0.0,0.0,0.0,0.0,0.0,0.0,0.0,0.0,0.0,0.0,0.0,0.0,0.0,0.0,0.0,0.0,0.0,0.0,0.0,0.0,0.0,0.0,0.0,0.0,0.0,0.0,0.0,0.0,0.0,0.0,0.0,0.0,0.0,0.0,0.0,0.0,0.0,0.0,0.0,0.0,0.0,0.0,0.0,0.0,0.0,0.0,0.0,0.0,0.0,0.0,0.0,0.0,0.0,0.0,0.0,0.0,0.0,0.0,0.0,0.0,0.0,0.0,0.0,0.0,0.0,0.0,0.0,0.0,0.0,0.0,0.0,0.0,0.0,0.0,0.0,0.0,0.0,0.0,0.0,0.0,0.0,0.0,0.0,0.0,0.0,0.0,0.0,0.0,0.0,0.0,0.0,0.0,0.0,0.0,0.0,0.0,0.0,0.0,0.0,0.0,0.0,0.0,0.0,0.0,0.0,0.0,0.0,0.0,0.0,0.0,0.0,0.0,0.0,0.0,0.0,0.0,0.0,0.0,0.0,0.0,0.0,0.0,0.0,0.0,0.0,0.0,0.0,0.0,0.0,0.0,0.0,0.0,0.0,0.0,0.0,0.0,0.0,0.0,0.0,0.0,0.0,0.0,0.0,0.0,0.0,0.0,0.0,0.0,0.0,0.0,0.0,0.0,0.0,0.0,0.0,0.0,0.0,0.0,0.0,0.0,0.0,0.0,0.0,0.0,0.0,0.0,0.0,0.0,0.0,0.0,0.0,0.0,0.0,0.0,0.0,0.0,0.0,0.0,0.0,0.0,0.0,0.0,0.0,0.0,0.0,0.0,0.0,0.0,0.0,0.0,0.0,0.0,0.0,0.0,0.0,0.0,0.0,0.0,0.0,0.0,0.0,0.0,0.0,0.0,0.0,0.0,0.0,0.0,0.0,0.0,0.0,0.0,0.0,0.0,0.0,0.0,0.0,0.0,0.0,0.0,0.0,0.0,0.0,0.0,0.0,0.0,0.0,0.0,0.0,0.0,0.0,0.0,0.0,0.0,0.0,0.0,0.0,0.0,0.0,0.0,0.0,0.0,0.0,0.0,0.0,0.0,0.0,0.0,0.0,0.0,0.0,0.0,0.0,0.0,0.0,0.0,0.0,0.0,0.0,0.0,0.0,0.0,0.0,0.0,0.0,0.0,0.0,0.0,0.0,0.0,0.0,0.0,0.0,0.0,0.0,0.0,0.0,0.0,0.0,0.0,0.0,0.0,0.0,0.0,0.0,0.0,0.0,0.0,0.0,0.0,0.0,0.0,0.0,0.0,0.0,0.0,0.0,0.0,0.0,0.0,0.0,0.0,0.0,0.0,0.0,0.0,0.0,0.0,0.0,0.0,0.0,0.0,0.0,0.0,0.0,0.0,0.0,-0.4187,0.0,0.0,0.0,0.0,0.0,0.0,0.0,0.0,0.0,0.0,0.0,0.0,0.0,0.0,0.0,0.0,0.0,0.0,0.0,0.0,0.0,0.0,0.0,0.0,0.0,0.0,0.0,0.0,0.0,0.0,0.0,0.0,0.0,0.0,0.0,0.0,0.0,0.0,0.0,0.0,0.0,0.0,0.0,0.0,0.0,0.0,0.0,0.0,0.0,0.0,0.0,0.0,0.0,0.0,0.0,0.0,0.0,0.0,0.0,0.0,0.0,0.0,0.0,0.0,0.0,0.0,0.0,0.0,0.0,0.0,0.0,0.0,0.0,0.0,0.0,0.0,0.0,0.0,0.0,0.0,0.0,0.0,0.0,0.0,0.0,0.0,0.0,0.0,0.0,0.0,0.0,0.0,0.0,0.0,0.0,0.0,0.0,0.0,0.0,0.0,0.0,0.0,0.0,0.0,0.0,0.0,0.0,0.0,0.0,0.0,-0.663,-0.6156,-0.5527,-0.4918,-0.4315,0.0,0.0,0.0,0.0,0.0,0.0,0.0,0.0,0.0,0.0,0.0,0.0,0.0,0.0,0.0,0.0,0.0,0.0,0.0,0.0,0.0,0.0,0.0,0.0,0.0,0.0,0.0,0.0,0.0,0.0,0.0,0.0,0.0,0.0,0.0,0.0,0.0,0.0,0.0,0.0,0.0,0.0,0.0,0.0,0.0,0.0,0.0,0.0,0.0,0.0,0.0,0.0,0.0,0.0,0.0,0.0,0.0,0.0,0.0,0.0,0.0,0.0,0.0,0.0,0.0,0.0,0.0,0.0,0.0,0.0,0.0,0.0,0.0,0.0,0.0,0.0,0.0,0.0,0.0,0.0,0.0,0.0,0.0,0.0,0.0,0.0,0.0,0.0,0.0,0.0,0.0,0.0,0.0,0.0,0.0,0.0,0.0,0.0,0.0,0.0,0.0,0.0,0.0,0.0,0.0,0.0,0.0,0.0,0.0,0.0,0.0,0.0,-0.5603,-0.4996,-0.4297,0.0,0.0,0.0,0.0,0.0,0.0,0.0,0.0,0.0,0.0,0.0,0.0,0.0,0.0,0.0,0.0,0.0,0.0,0.0,0.0,0.0,0.0,0.0,0.0,0.0,0.0,0.0,0.0,0.0,0.0,0.0,0.0,0.0,0.0,0.0,0.0,0.0,0.0,0.0,0.0,0.0,0.0,0.0,0.0,0.0,0.0,0.0,0.0,0.0,0.0,0.0,0.0,0.0,0.0,0.0,0.0,0.0,0.0,0.0,0.0,0.0,0.0,0.0,0.0,0.0,0.0,0.0,0.0,0.0,0.0,0.0,0.0,0.0,0.0,0.0,0.0,0.0,0.0,0.0,0.0,0.0,0.0,0.0,0.0,0.0,0.0,0.0,0.0,0.0,0.0,0.0,0.0,0.0,0.0,0.0,0.0,0.0,0.0,0.0,0.0,0.0,0.0,0.0,0.0,0.0,0.0,0.0,0.0,0.0,0.0,-0.6612,-0.6201,-0.5673,0.0,-0.401,0.0,0.0,0.0,0.0,0.0,0.0,0.0,0.0,0.0,0.0,0.0,0.0,0.0,0.0,0.0,0.0,0.0,0.0,0.0,0.0,0.0,0.0,0.0,0.0,0.0,0.0,0.0,0.0,0.0,0.0,0.0,0.0,0.0,0.0,0.0,0.0,0.0,0.0,0.0,0.0,0.0,0.0,0.0,0.0,0.0,0.0,0.0,0.0,0.0,0.0,0.0,0.0,0.0,0.0,0.0,0.0,0.0,0.0,0.0,0.0,0.0,0.0,0.0,0.0,0.0,0.0,0.0,0.0,0.0,0.0,0.0,0.0,0.0,0.0,0.0,0.0,0.0,0.0,0.0,0.0,0.0,0.0,0.0,0.0,0.0,0.0,0.0,0.0,0.0,0.0,0.0,0.0,0.0,0.0,0.0,0.0,0.0,0.0,0.0,0.0,0.0,0.0,0.0,0.0,0.0,0.0,0.0,0.0,0.0,0.0,-0.6569,-0.6198,-0.5495,-0.4809,0.0,0.0,0.0,0.0,0.0,0.0,0.0,0.0,0.0,0.0,0.0,0.0,0.0,0.0,0.0,0.0,0.0,0.0,0.0,0.0,0.0,0.0,0.0,0.0,0.0,0.0,0.0,0.0,0.0,0.0,0.0,0.0,0.0,0.0,0.0,0.0,0.0,0.0,0.0,0.0,0.0,0.0,0.0,0.0,0.0,0.0,0.0,0.0,0.0,0.0,0.0,0.0,0.0,0.0,0.0,0.0,0.0,0.0,0.0,0.0,0.0,0.0,0.0,0.0,0.0,0.0,0.0,0.0,0.0,0.0,0.0,0.0,0.0,0.0,0.0,0.0,0.0,0.0,0.0,0.0,0.0,0.0,0.0,0.0,0.0,0.0,0.0,0.0,0.0,0.0,0.0,0.0,0.0,0.0,0.0,0.0,0.0,0.0,0.0,0.0,0.0,0.0,0.0,0.0,0.0,0.0,0.0,0.0,0.0,0.0,-0.6824,-0.65,-0.6048,-0.5338,-0.476,-0.4348,0.0,0.0,0.0,0.0,0.0,0.0,0.0,0.0,0.0,0.0,0.0,0.0,0.0,0.0,0.0,0.0,0.0,0.0,0.0,0.0,0.0,0.0,0.0,0.0,0.0,0.0,0.0,0.0,0.0,0.0,0.0,0.0,0.0,0.0,0.0,0.0,0.0,0.0,0.0,0.0,0.0,0.0,0.0,0.0,0.0,0.0,0.0,0.0,0.0,0.0,0.0,0.0,0.0,0.0,0.0,0.0,0.0,0.0,0.0,0.0,0.0,0.0,0.0,0.0,0.0,0.0,0.0,0.0,0.0,0.0,0.0,0.0,0.0,0.0,0.0,0.0,0.0,0.0,0.0,0.0,0.0,0.0,0.0,0.0,0.0,0.0,0.0,0.0,0.0,0.0,0.0,0.0,0.0,0.0,0.0,0.0,0.0,0.0,0.0,0.0,0.0,0.0,0.0,0.0,0.0,0.0,0.0,0.0,-0.6929,-0.6785,-0.6395,-0.5767,-0.5314,-0.4873,0.0,0.0,0.0,0.0,0.0,0.0,0.0,0.0,0.0,0.0,0.0,0.0,0.0,0.0,0.0,0.0,0.0,0.0,0.0,0.0,0.0,0.0,0.0,0.0,0.0,0.0,0.0,0.0,0.0,0.0,0.0,0.0,0.0,0.0,0.0,0.0,0.0,0.0,0.0,0.0,0.0,0.0,0.0,0.0,0.0,0.0,0.0,0.0,0.0,0.0,0.0,0.0,0.0,0.0,0.0,0.0,0.0,0.0,0.0,0.0,0.0,0.0,0.0,0.0,0.0,0.0,0.0,0.0,0.0,0.0,0.0,0.0,0.0,0.0,0.0,0.0,0.0,0.0,0.0,0.0,0.0,0.0,0.0,0.0,0.0,0.0,0.0,0.0,0.0,0.0,0.0,0.0,0.0,0.0,0.0,0.0,0.0,0.0,0.0,0.0,0.0,0.0,0.0,0.0,0.0,0.0,0.0,0.0,0.0,-0.7898,-0.7588,-0.7042,-0.6305,-0.5889,-0.5329,0.0,0.0,0.0,0.0,0.0,0.0,0.0,0.0,0.0,0.0,0.0,0.0,0.0,0.0,0.0,0.0,0.0,0.0,0.0,0.0,0.0,0.0,0.0,0.0,0.0,0.0,0.0,0.0,0.0,0.0,0.0,0.0,0.0,0.0,0.0,0.0,0.0,0.0,0.0,0.0,0.0,0.0,0.0,0.0,0.0,0.0,0.0,0.0,0.0,0.0,0.0,0.0,0.0,0.0,0.0,0.0,0.0,0.0,0.0,0.0,0.0,0.0,0.0,0.0,0.0,0.0,0.0,0.0,0.0,0.0,0.0,0.0,0.0,0.0,0.0,0.0,0.0,0.0,0.0,0.0,0.0,0.0,0.0,0.0,0.0,0.0,0.0,0.0,0.0,0.0,0.0,0.0,0.0,0.0,0.0,0.0,0.0,0.0,0.0,0.0,0.0,0.0,0.0,0.0,0.0,0.0,0.0,0.0,0.0,-0.8378,0.0,-0.7509,-0.6868,-0.634,-0.572,0.0,0.0,0.0,0.0,0.0,0.0,0.0,0.0,0.0,0.0,0.0,0.0,0.0,0.0,0.0,0.0,0.0,0.0,0.0,0.0,0.0,0.0,0.0,0.0,0.0,0.0,0.0,0.0,0.0,0.0,0.0,0.0,0.0,0.0,0.0,0.0,0.0,0.0,0.0,0.0,0.0,0.0,0.0,0.0,0.0,0.0,0.0,0.0,0.0,0.0,0.0,0.0,0.0,0.0,0.0,0.0,0.0,0.0,0.0,0.0,0.0,0.0,0.0,0.0,0.0,0.0,0.0,0.0,0.0,0.0,0.0,0.0,0.0,0.0,0.0,0.0,0.0,0.0,0.0,0.0,0.0,0.0,0.0,0.0,0.0,0.0,0.0,0.0,0.0,0.0,0.0,0.0,0.0,0.0,0.0,0.0,0.0,0.0,0.0,0.0,0.0,0.0,0.0,0.0,0.0,0.0,0.0,0.0,-0.8497,-0.8227,-0.7994,-0.7725,-0.7394,-0.6645,-0.6001,0.0,0.0,0.0,0.0,0.0,0.0,0.0,0.0,0.0,0.0,0.0,0.0,0.0,0.0,0.0,0.0,0.0,0.0,0.0,0.0,0.0,0.0,0.0,0.0,0.0,0.0,0.0,0.0,0.0,0.0,0.0,0.0,0.0,0.0,0.0,0.0,0.0,0.0,0.0,0.0,0.0,0.0,0.0,0.0,0.0,0.0,0.0,0.0,0.0,0.0,0.0,0.0,0.0,0.0,0.0,0.0,0.0,0.0,0.0,0.0,0.0,0.0,0.0,0.0,0.0,0.0,0.0,0.0,0.0,0.0,0.0,0.0,0.0,0.0,0.0,0.0,0.0,0.0,0.0,0.0,0.0,0.0,0.0,0.0,0.0,0.0,0.0,0.0,0.0,0.0,0.0,0.0,0.0,0.0,0.0,0.0,0.0,0.0,0.0,0.0,0.0,0.0,0.0,0.0,0.0,0.0,0.0,0.0,0.0,-0.9243,-0.9063,-0.867,-0.8032,-0.7527,-0.6744,0.0,0.0,0.0,0.0,0.0,0.0,0.0,0.0,0.0,0.0,0.0,0.0,0.0,0.0,0.0,0.0,0.0,0.0,0.0,0.0,0.0,0.0,0.0,0.0,0.0,0.0,0.0,0.0,0.0,0.0,0.0,0.0,0.0,0.0,0.0,0.0,0.0,0.0,0.0,0.0,0.0,0.0,0.0,0.0,0.0,0.0,0.0,0.0,0.0,0.0,0.0,0.0,0.0,0.0,0.0,0.0,0.0,0.0,0.0,0.0,0.0,0.0,0.0,0.0,0.0,0.0,0.0,0.0,0.0,0.0,0.0,0.0,0.0,0.0,0.0,0.0,0.0,0.0,0.0,0.0,0.0,0.0,0.0,0.0,0.0,0.0,0.0,0.0,0.0,0.0,0.0,0.0,0.0,0.0,0.0,0.0,0.0,0.0,0.0,0.0,0.0,0.0,0.0,0.0,0.0,0.0,0.0,0.0,0.0,-0.971,-0.9564,-0.9184,-0.8588,-0.8029,-0.7262,-0.6248,0.0,0.0,0.0,0.0,0.0,0.0,0.0,0.0,0.0,0.0,0.0,0.0,0.0,0.0,0.0,0.0,0.0,0.0,0.0,0.0,0.0,0.0,0.0,0.0,0.0,0.0,0.0,0.0,0.0,0.0,0.0,0.0,0.0,0.0,0.0,0.0,0.0,0.0,0.0,0.0,0.0,0.0,0.0,0.0,0.0,0.0,0.0,0.0,0.0,0.0,0.0,0.0,0.0,0.0,0.0,0.0,0.0,0.0,0.0,0.0,0.0,0.0,0.0,0.0,0.0,0.0,0.0,0.0,0.0,0.0,0.0,0.0,0.0,0.0,0.0,0.0,0.0,0.0,0.0,0.0,0.0,0.0,0.0,0.0,0.0,0.0,0.0,0.0,0.0,0.0,0.0,0.0,0.0,0.0,0.0,0.0,0.0,0.0,0.0,0.0,0.0,0.0,0.0,0.0,0.0,0.0,0.0,0.0,-0.971,-0.9578,-0.935,-0.9004,-0.8236,-0.7613,0.0,0.0,0.0,0.0,0.0,0.0,0.0,0.0,0.0,0.0,0.0,0.0,0.0,0.0,0.0,0.0,0.0,0.0,0.0,0.0,0.0,0.0,0.0,0.0,0.0,0.0,0.0,0.0,0.0,0.0,0.0,0.0,0.0,0.0,0.0,0.0,0.0,0.0,0.0,0.0,0.0,0.0,0.0,0.0,0.0,0.0,0.0,0.0,0.0,0.0,0.0,0.0,0.0,0.0,0.0,0.0,0.0,0.0,0.0,0.0,0.0,0.0,0.0,0.0,0.0,0.0,0.0,0.0,0.0,0.0,0.0,0.0,0.0,0.0,0.0,0.0,0.0,0.0,0.0,0.0,0.0,0.0,0.0,0.0,0.0,0.0,0.0,0.0,0.0,0.0,0.0,0.0,0.0,0.0,0.0,0.0,0.0,0.0,0.0,0.0,0.0,0.0,0.0,0.0,0.0,0.0,0.0,0.0,0.0,-0.9716,-0.9564,-0.9371,-0.9073,-0.853,-0.7934,0.0,0.0,0.0,0.0,0.0,0.0,0.0,0.0,0.0,0.0,0.0,0.0,0.0,0.0,0.0,0.0,0.0,0.0,0.0,0.0,0.0,0.0,0.0,0.0,0.0,0.0,0.0,0.0,0.0,0.0,0.0,0.0,0.0,0.0,0.0,0.0,0.0,0.0,0.0,0.0,0.0,0.0,0.0,0.0,0.0,0.0,0.0,0.0,0.0,0.0,0.0,0.0,0.0,0.0,0.0,0.0,0.0,0.0,0.0,0.0,0.0,0.0,0.0,0.0,0.0,0.0,0.0,0.0,0.0,0.0,0.0,0.0,0.0,0.0,0.0,0.0,0.0,0.0,0.0,0.0,0.0,0.0,0.0,0.0,0.0,0.0,0.0,0.0,0.0,0.0,0.0,0.0,0.0,0.0,0.0,0.0,0.0,0.0,0.0,0.0,0.0,0.0,0.0,0.0,0.0,0.0,0.0,0.0,-0.9995,-0.9743,-0.9578,-0.9371,-0.9106,-0.8659,-0.8135,0.0,0.0,0.0,0.0,0.0,0.0,0.0,0.0,0.0,0.0,0.0,0.0,0.0,0.0,0.0,0.0,0.0,0.0,0.0,0.0,0.0,0.0,0.0,0.0,0.0,0.0,0.0,0.0,0.0,0.0,0.0,0.0,0.0,0.0,0.0,0.0,0.0,0.0,0.0,0.0,0.0,0.0,0.0,0.0,0.0,0.0,0.0,0.0,0.0,0.0,0.0,0.0,0.0,0.0,0.0,0.0,0.0,0.0,0.0,0.0,0.0,0.0,0.0,0.0,0.0,0.0,0.0,0.0,0.0,0.0,0.0,0.0,0.0,0.0,0.0,0.0,0.0,0.0,0.0,0.0,0.0,0.0,0.0,0.0,0.0,0.0,0.0,0.0,0.0,0.0,0.0,0.0,0.0,0.0,0.0,0.0,0.0,0.0,0.0,0.0,0.0,0.0,0.0,0.0,0.0,0.0,0.0,0.0,-1.0008,-0.9789,-0.9604,-0.9371,-0.91,-0.8645,-0.8236,0.0,0.0,0.0,0.0,0.0,0.0,0.0,0.0,0.0,0.0,0.0,0.0,0.0,0.0,0.0,0.0,0.0,0.0,0.0,0.0,0.0,0.0,0.0,0.0,0.0,0.0,0.0,0.0,0.0,0.0,0.0,0.0,0.0,0.0,0.0,0.0,0.0,0.0,0.0,0.0,0.0,0.0,0.0,0.0,0.0,0.0,0.0,0.0,0.0,0.0,0.0,0.0,0.0,0.0,0.0,0.0,0.0,0.0,0.0,0.0,0.0,0.0,0.0,0.0,0.0,0.0,0.0,0.0,0.0,0.0,0.0,0.0,0.0,0.0,0.0,0.0,0.0,0.0,0.0,0.0,0.0,0.0,0.0,0.0,0.0,0.0,0.0,0.0,0.0,0.0,0.0,0.0,0.0,0.0,0.0,0.0,0.0,0.0,0.0,0.0,0.0,0.0,0.0,0.0,0.0,0.0,0.0,0.0,-1.0046,-0.9802,-0.9604,-0.935,-0.9024,-0.8609,-0.825,0.0,0.0,0.0,0.0,0.0,0.0,0.0,0.0,0.0,0.0,0.0,0.0,0.0,0.0,0.0,0.0,0.0,0.0,0.0,0.0,0.0,0.0,0.0,0.0,0.0,0.0,0.0,0.0,0.0,0.0,0.0,0.0,0.0,0.0,0.0,0.0,0.0,0.0,0.0,0.0,0.0,0.0,0.0,0.0,0.0,0.0,0.0,0.0,-0.4776,0.0,0.0,0.0,0.0,0.0,0.0,0.0,0.0,0.0,0.0,0.0,0.0,0.0,0.0,0.0,0.0,0.0,0.0,0.0,0.0,0.0,0.0,0.0,0.0,0.0,0.0,0.0,0.0,0.0,0.0,0.0,0.0,0.0,0.0,0.0,0.0,0.0,0.0,0.0,0.0,0.0,0.0,0.0,0.0,0.0,0.0,0.0,0.0,0.0,0.0,0.0,0.0,0.0,0.0,0.0,0.0,0.0,0.0,0.0,-1.0091,-0.9841,-0.9586,-0.9311,-0.9002,-0.8586,-0.8195,0.0,0.0,0.0,0.0,0.0,0.0,0.0,0.0,0.0,0.0,0.0,0.0,0.0,0.0,0.0,0.0,0.0,0.0,0.0,0.0,0.0,0.0,0.0,0.0,0.0,0.0,0.0,0.0,0.0,0.0,0.0,0.0,0.0,0.0,0.0,0.0,0.0,0.0,0.0,0.0,0.0,0.0,0.0,0.0,0.0,0.0,0.0,0.0,0.0,0.0,0.0,0.0,0.0,0.0,0.0,0.0,0.0,0.0,0.0,0.0,0.0,0.0,0.0,0.0,0.0,0.0,0.0,0.0,0.0,0.0,0.0,0.0,0.0,0.0,0.0,0.0,0.0,0.0,0.0,0.0,0.0,0.0,0.0,0.0,0.0,0.0,0.0,0.0,0.0,0.0,0.0,0.0,0.0,0.0,0.0,0.0,0.0,0.0,0.0,0.0,0.0,0.0,0.0,0.0,0.0,0.0,0.0,-1.0412,-1.0116,-0.9899,-0.9574,-0.9266,-0.8977,-0.855,-0.8143,-0.7797,0.0,0.0,0.0,0.0,0.0,0.0,0.0,0.0,0.0,0.0,0.0,0.0,0.0,0.0,0.0,0.0,0.0,0.0,0.0,0.0,0.0,0.0,0.0,0.0,0.0,0.0,0.0,0.0,0.0,0.0,0.0,0.0,0.0,0.0,0.0,0.0,0.0,0.0,-0.6753,-0.6735,0.0,0.0,0.0,0.0,0.0,0.0,0.0,0.0,-0.5003,0.0,0.0,0.0,0.0,0.0,0.0,0.0,0.0,0.0,0.0,0.0,0.0,0.0,0.0,0.0,0.0,0.0,0.0,0.0,0.0,0.0,0.0,0.0,0.0,0.0,0.0,0.0,0.0,0.0,0.0,0.0,0.0,0.0,0.0,0.0,0.0,0.0,0.0,0.0,0.0,0.0,0.0,0.0,0.0,0.0,0.0,0.0,0.0,0.0,0.0,0.0,0.0,0.0,0.0,0.0,0.0,-1.077,-1.0511,-1.0205,-0.9899,-0.9561,-0.9228,-0.8841,-0.8483,-0.8105,-0.7734,0.0,0.0,0.0,0.0,0.0,0.0,0.0,0.0,0.0,0.0,0.0,0.0,0.0,0.0,0.0,0.0,0.0,0.0,0.0,0.0,0.0,0.0,0.0,0.0,0.0,0.0,0.0,0.0,0.0,0.0,0.0,0.0,0.0,0.0,0.0,0.0,0.0,0.0,0.0,-0.7521,-0.7621,0.0,0.0,0.0,0.0,0.0,0.0,0.0,0.0,-0.5667,0.0,0.0,0.0,0.0,0.0,0.0,0.0,0.0,0.0,0.0,0.0,0.0,0.0,0.0,0.0,0.0,0.0,0.0,0.0,0.0,0.0,0.0,0.0,0.0,0.0,0.0,0.0,0.0,0.0,0.0,0.0,0.0,0.0,0.0,0.0,0.0,0.0,0.0,0.0,0.0,0.0,0.0,0.0,0.0,0.0,0.0,0.0,0.0,0.0,0.0,0.0,0.0,0.0,0.0,0.0,-1.0841,-1.0571,-1.0211,-0.9854,-0.9514,-0.9147,-0.8753,-0.8412,-0.8081,0.0,0.0,0.0,0.0,0.0,0.0,0.0,0.0,0.0,0.0,0.0,0.0,0.0,0.0,0.0,0.0,0.0,0.0,0.0,0.0,0.0,0.0,0.0,0.0,0.0,0.0,0.0,0.0,0.0,0.0,0.0,0.0,0.0,0.0,0.0,0.0,0.0,0.0,0.0,0.0,-0.8234,-0.8225,-0.838,0.0,0.0,0.0,0.0,0.0,0.0,-0.6317,-0.5967,0.0,0.0,0.0,0.0,0.0,0.0,0.0,0.0,0.0,0.0,0.0,0.0,0.0,0.0,0.0,0.0,0.0,0.0,0.0,0.0,0.0,0.0,0.0,0.0,0.0,0.0,0.0,0.0,0.0,0.0,0.0,0.0,0.0,0.0,0.0,0.0,0.0,0.0,0.0,0.0,0.0,0.0,0.0,0.0,0.0,0.0,0.0,0.0,0.0,0.0,0.0,0.0,0.0,0.0,0.0,-1.0949,-1.062,-1.0224,-0.9802,-0.948,-0.9112,-0.8703,-0.8375,-0.8043,0.0,0.0,0.0,0.0,0.0,0.0,0.0,0.0,0.0,0.0,0.0,0.0,0.0,0.0,0.0,0.0,0.0,0.0,0.0,0.0,0.0,0.0,0.0,0.0,0.0,0.0,0.0,0.0,0.0,0.0,0.0,0.0,0.0,0.0,0.0,0.0,0.0,0.0,0.0,0.0,0.0,-0.8806,-0.8826,-0.8627,0.0,0.0,0.0,0.0,-0.7052,-0.6645,0.0,0.0,0.0,0.0,0.0,0.0,0.0,0.0,0.0,0.0,0.0,0.0,0.0,0.0,0.0,0.0,0.0,0.0,0.0,0.0,0.0,0.0,0.0,0.0,0.0,0.0,0.0,0.0,0.0,0.0,0.0,0.0,0.0,0.0,0.0,0.0,0.0,0.0,0.0,0.0,0.0,0.0,0.0,0.0,0.0,0.0,0.0,0.0,0.0,0.0,0.0,0.0,0.0,0.0,0.0,0.0,-1.0961,-1.0663,-1.0261,-0.9808,-0.9468,-0.9112,-0.8703,-0.8375,-0.8067,0.0,0.0,0.0,0.0,0.0,0.0,0.0,0.0,0.0,0.0,0.0,0.0,0.0,0.0,0.0,0.0,0.0,0.0,0.0,0.0,0.0,0.0,0.0,0.0,0.0,0.0,0.0,0.0,0.0,0.0,0.0,0.0,0.0,0.0,0.0,0.0,0.0,0.0,0.0,0.0,0.0,-0.9618,-0.9959,-0.9805,-0.9552,0.0,0.0,-0.8459,-0.8014,-0.7648,0.0,0.0,0.0,0.0,0.0,0.0,0.0,0.0,0.0,0.0,0.0,0.0,0.0,0.0,0.0,0.0,0.0,0.0,0.0,0.0,0.0,0.0,0.0,0.0,0.0,0.0,0.0,0.0,0.0,0.0,0.0,0.0,0.0,0.0,0.0,0.0,0.0,0.0,0.0,0.0,0.0,0.0,0.0,0.0,0.0,0.0,0.0,0.0,0.0,0.0,0.0,0.0,0.0,0.0,0.0,-1.0534,-1.1034,-1.0681,-1.0249,-0.975,-0.9454,-0.9079,-0.8664,-0.8352,-0.8072,0.0,0.0,0.0,0.0,0.0,0.0,0.0,0.0,0.0,0.0,0.0,0.0,0.0,0.0,0.0,0.0,0.0,0.0,0.0,0.0,0.0,0.0,0.0,0.0,0.0,0.0,0.0,0.0,0.0,0.0,0.0,0.0,0.0,0.0,0.0,0.0,0.0,0.0,0.0,0.0,0.0,0.0,-1.0135,-0.9982,0.0,0.0,0.0,-0.8606,-0.8228,0.0,0.0,0.0,0.0,0.0,0.0,0.0,0.0,0.0,0.0,0.0,0.0,0.0,0.0,0.0,0.0,0.0,0.0,0.0,0.0,0.0,0.0,0.0,0.0,0.0,0.0,0.0,0.0,0.0,0.0,0.0,0.0,0.0,0.0,0.0,0.0,0.0,0.0,0.0,0.0,0.0,0.0,0.0,0.0,0.0,0.0,0.0,0.0,0.0,0.0,0.0,0.0,0.0,0.0,0.0,0.0,0.0,-1.1076,-1.0693,-1.0237,-0.9717,-0.9446,-0.9083,-0.8609,-0.8352,0.0,0.0,0.0,0.0,0.0,0.0,0.0,0.0,0.0,0.0,0.0,0.0,0.0,0.0,0.0,0.0,0.0,0.0,0.0,0.0,0.0,0.0,0.0,0.0,0.0,0.0,0.0,-0.8053,0.0,0.0,0.0,0.0,0.0,0.0,0.0,0.0,0.0,0.0,0.0,0.0,0.0,0.0,-1.0374,-1.0148,-0.9925,-0.9639,0.0,0.0,-0.857,-0.8263,-0.7889,-0.7505,0.0,0.0,0.0,0.0,0.0,0.0,0.0,0.0,0.0,0.0,0.0,0.0,0.0,0.0,0.0,0.0,0.0,0.0,0.0,0.0,0.0,0.0,0.0,0.0,0.0,0.0,0.0,0.0,0.0,0.0,0.0,0.0,0.0,0.0,0.0,0.0,0.0,0.0,0.0,0.0,0.0,0.0,0.0,0.0,0.0,0.0,0.0,0.0,0.0,0.0,0.0,0.0,0.0,0.0,0.0,-1.1069,-1.0693,-1.0249,-0.9698,-0.944,-0.9083,-0.8614,-0.8398,-0.8152,0.0,0.0,0.0,0.0,0.0,0.0,0.0,0.0,0.0,0.0,0.0,0.0,0.0,0.0,0.0,0.0,0.0,0.0,0.0,0.0,0.0,0.0,0.0,0.0,0.0,0.0,0.0,0.0,0.0,0.0,0.0,0.0,0.0,0.0,0.0,0.0,0.0,0.0,0.0,0.0,0.0,-1.0337,-1.0135,-0.988,-0.9592,0.0,0.0,-0.8595,-0.8263,-0.7914,-0.7559,-0.7169,0.0,0.0,0.0,0.0,0.0,0.0,0.0,0.0,0.0,0.0,0.0,0.0,0.0,0.0,0.0,0.0,0.0,0.0,0.0,0.0,0.0,0.0,0.0,0.0,0.0,0.0,0.0,0.0,0.0,0.0,0.0,0.0,0.0,0.0,0.0,0.0,0.0,0.0,0.0,0.0,0.0,0.0,0.0,0.0,0.0,0.0,0.0,0.0,0.0,0.0,0.0,0.0,0.0,-1.1147,-1.1038,-1.0632,-1.0199,-0.9716,-0.9434,-0.9066,-0.8617,-0.8423,-0.8205,0.0,0.0,0.0,0.0,0.0,0.0,0.0,0.0,0.0,0.0,0.0,0.0,0.0,0.0,0.0,0.0,0.0,0.0,0.0,0.0,0.0,0.0,0.0,0.0,0.0,0.0,0.0,0.0,-0.8167,-0.8265,-0.8614,0.0,0.0,0.0,0.0,0.0,0.0,0.0,0.0,0.0,0.0,-1.0293,-1.0008,-0.9795,0.0,0.0,-0.8864,-0.8539,-0.8249,-0.7914,-0.7612,-0.7337,-0.7039,0.0,0.0,0.0,0.0,0.0,0.0,0.0,0.0,0.0,0.0,0.0,0.0,0.0,0.0,0.0,0.0,0.0,0.0,0.0,0.0,0.0,0.0,0.0,0.0,0.0,0.0,0.0,0.0,0.0,0.0,0.0,0.0,0.0,0.0,0.0,0.0,0.0,0.0,0.0,0.0,0.0,0.0,0.0,0.0,0.0,0.0,0.0,0.0,0.0,0.0,0.0,0.0,-1.1309,-1.0982,-1.0584,-1.0142,-0.971,-0.9414,-0.9077,-0.8651,-0.843,-0.8253,0.0,0.0,0.0,0.0,0.0,0.0,0.0,0.0,0.0,0.0,0.0,0.0,0.0,0.0,0.0,0.0,0.0,0.0,0.0,0.0,0.0,0.0,0.0,0.0,0.0,0.0,0.0,0.0,-0.8301,-0.8675,-0.9451,0.0,0.0,0.0,0.0,0.0,0.0,0.0,0.0,0.0,0.0,-1.0255,-0.9938,-0.9697,-0.9472,-0.9147,-0.8828,-0.8508,-0.8239,-0.7947,-0.7671,-0.745,0.0,0.0,0.0,0.0,0.0,0.0,0.0,0.0,0.0,0.0,0.0,0.0,0.0,0.0,0.0,0.0,0.0,0.0,0.0,0.0,0.0,0.0,0.0,0.0,0.0,0.0,0.0,0.0,0.0,0.0,-0.6715,0.0,0.0,0.0,0.0,0.0,0.0,0.0,0.0,0.0,0.0,0.0,0.0,0.0,0.0,0.0,0.0,0.0,0.0,0.0,0.0,0.0,0.0,-1.1243,-1.0897,-1.0504,-1.0097,-0.971,-0.9366,-0.9031,-0.8709,-0.8509,-0.8351,-0.8186,0.0,0.0,0.0,0.0,0.0,0.0,0.0,0.0,0.0,0.0,0.0,0.0,0.0,0.0,0.0,0.0,0.0,0.0,0.0,0.0,0.0,0.0,0.0,0.0,0.0,0.0,-0.8156,-0.8644,-0.9459,0.0,0.0,0.0,0.0,0.0,0.0,0.0,0.0,0.0,0.0,-1.0467,-1.0199,-0.9938,-0.9671,-0.9411,-0.9127,-0.8814,-0.8497,-0.823,-0.7961,-0.771,0.0,0.0,0.0,0.0,0.0,0.0,0.0,0.0,0.0,0.0,0.0,0.0,0.0,0.0,0.0,0.0,0.0,0.0,0.0,0.0,0.0,0.0,0.0,0.0,0.0,0.0,0.0,-0.8103,-0.7928,0.0,0.0,0.0,0.0,0.0,0.0,0.0,0.0,0.0,0.0,0.0,-1.0772,-1.0991,0.0,0.0,0.0,0.0,0.0,0.0,0.0,0.0,0.0,0.0,0.0,0.0,-1.0982,-1.0699,-1.0366,-0.9983,-0.9633,-0.936,-0.9036,-0.8703,-0.85,-0.8189,-0.7755,0.0,0.0,0.0,0.0,0.0,0.0,0.0,0.0,0.0,0.0,0.0,0.0,0.0,0.0,0.0,0.0,0.0,0.0,0.0,0.0,0.0,0.0,0.0,0.0,0.0,-0.8819,0.0,0.0,0.0,0.0,0.0,0.0,0.0,0.0,0.0,0.0,0.0,-1.0837,-1.059,-1.0336,-1.0072,-0.9815,-0.9552,-0.9278,0.0,0.0,0.0,0.0,0.0,0.0,0.0,0.0,0.0,0.0,0.0,0.0,0.0,0.0,-0.6449,-0.6478,-0.659,-0.6709,-0.6868,0.0,0.0,0.0,0.0,0.0,0.0,0.0,0.0,0.0,0.0,0.0,0.0,0.0,0.0,0.0,0.0,-0.8723,0.0,0.0,0.0,0.0,0.0,0.0,0.0,0.0,-1.0349,-1.0529,-1.0675,-1.088,-1.1034,0.0,-1.1266,-1.1459,0.0,0.0,0.0,0.0,0.0,0.0,0.0,0.0,-1.0811,-1.0559,-1.0222,-0.9919,-0.9607,-0.9334,-0.9069,-0.8778,-0.8528,-0.8208,-0.7791,-0.7324,-0.6889,0.0,0.0,0.0,0.0,0.0,0.0,0.0,0.0,0.0,0.0,0.0,0.0,0.0,0.0,0.0,0.0,0.0,0.0,0.0,0.0,0.0,0.0,0.0,-0.9389,0.0,0.0,0.0,0.0,0.0,0.0,0.0,0.0,0.0,-1.1162,-1.0975,-1.0748,-1.0529,-1.0286,-1.0008,-0.973,0.0,0.0,0.0,0.0,0.0,0.0,0.0,-0.7729,-0.7529,-0.7373,-0.7224,-0.7028,-0.6811,-0.6638,-0.6558,0.0,0.0,-0.6524,-0.6536,-0.661,-0.6734,-0.677,-0.682,-0.6852,-0.6897,-0.691,0.0,0.0,0.0,0.0,0.0,0.0,0.0,0.0,-0.9267,-0.9234,0.0,-0.9141,0.0,0.0,0.0,0.0,0.0,-0.9938,0.0,0.0,-1.0408,-1.052,-1.0651,-1.0737,-1.0833,-1.0947,-1.1027,-1.1099,-1.1153,-1.1458,0.0,0.0,0.0,0.0,0.0,0.0,-1.0687,-1.0473,-1.0167,-0.9867,-0.9598,-0.9345,-0.9091,-0.8886,-0.8575,-0.8379,-0.8278,-0.7837,-0.741,-0.7004,-0.6679,0.0,0.0,0.0,0.0,0.0,0.0,0.0,0.0,0.0,0.0,0.0,0.0,0.0,0.0,0.0,0.0,0.0,0.0,0.0,0.0,-0.9354,0.0,0.0,0.0,0.0,0.0,0.0,0.0,0.0,0.0,0.0,-1.1162,-1.089,-1.0644,-1.0498,0.0,0.0,0.0,0.0,-0.916,-0.8844,-0.8623,-0.8405,-0.815,-0.7923,-0.7725,-0.7529,0.0,0.0,-0.7051,-0.6885,-0.6738,-0.6626,-0.6543,-0.6475,-0.6417,-0.6452,-0.6494,-0.651,-0.6569,-0.66,-0.66,-0.6699,-0.6742,-1.0996,0.0,0.0,0.0,0.0,-1.0564,-1.0399,-1.0014,-1.0042,-0.9819,-0.9424,-0.9397,0.0,0.0,0.0,0.0,0.0,0.0,-1.036,-1.0879,-1.0985,-1.1269,-1.1679,-1.1741,-1.181,-1.1899,-1.1912,-1.177,-1.1473,-1.1561,-1.1467,-1.1213,0.0,0.0,0.0,0.0,-1.0485,-1.0286,-1.0046,-0.9827,-0.9614,-0.9344,-0.9054,-0.8692,-0.8544,-0.8446,-0.8388,-0.7917,-0.7476,-0.7098,-0.6722,0.0,0.0,0.0,0.0,0.0,0.0,0.0,0.0,0.0,0.0,0.0,0.0,0.0,0.0,0.0,0.0,0.0,0.0,0.0,-0.9872,-0.9973,-1.0268,0.0,0.0,0.0,0.0,0.0,0.0,0.0,0.0,0.0,-1.1845,-1.1126,-1.0479,0.0,0.0,-0.9737,-0.9527,-0.9265,-0.8993,-0.8764,0.0,0.0,0.0,-0.7929,-0.7661,-0.7471,-0.7249,-0.7081,-0.7002,-0.6816,-0.6619,-0.6562,-0.6478,-0.641,-0.6288,-0.6353,-0.644,-0.6475,-0.6506,-0.6532,-0.6528,-0.6532,-0.6482,-1.1573,-1.122,-1.115,-1.1025,-1.0906,-1.1124,-1.1004,-1.0668,-1.0751,-1.0589,-1.026,-1.0248,-1.0284,-1.0368,-1.039,0.0,0.0,0.0,-1.0968,-1.1386,-1.1463,-1.1681,-1.198,-1.2058,-1.2103,-1.2153,-1.2168,-1.2031,-1.1748,-1.1529,-1.1307,-1.1099,0.0,0.0,-1.0717,-1.0516,-1.0362,-1.0198,-0.9963,-0.9782,-0.9602,-0.9303,-0.902,-0.8734,-0.8595,-0.8502,-0.8449,-0.8157,-0.7823,-0.739,-0.7029,-0.6641,0.0,0.0,0.0,0.0,0.0,0.0,0.0,0.0,0.0,0.0,0.0,-0.8525,0.0,0.0,0.0,0.0,-0.9677,-0.9972,-1.0452,-1.0459,0.0,0.0,0.0,0.0,0.0,0.0,0.0,-1.1905,-1.1926,-1.1909,-1.1987,-1.1374,-1.0878,-1.0723,-1.0442,-1.0189,-0.9985,0.0,-0.9435,-0.9204,-0.8946,-0.874,-0.8639,-0.8361,-0.8051,-0.78,-0.7596,-0.7398,-0.7182,-0.6978,-0.676,-0.6562,-0.644,-0.636,-0.6222,-0.6292,-0.6345,-0.6307,-0.6303,-0.6307,-0.6307,-0.6264,-0.6229,-1.2018,-1.2246,-1.1843,-1.1451,-1.1158,-1.1266,-1.1307,-1.1292,-1.1419,-1.1446,-1.1418,-1.1418,-1.1449,-1.1497,-1.1573,0.0,-1.168,-1.168,-1.1765,-1.1863,-1.1863,-1.1895,-1.1934,-1.2002,-1.2038,-1.2053,-1.21,-1.2082,-1.2024,-1.1503,-1.1165,-1.1094,-1.0779,-1.0612,-1.0553,-1.0374,-1.0249,-1.0193,-0.9937,-0.9736,-0.9591,-0.9271,-0.9034,-0.8908,-0.872,-0.8572,-0.8508,-0.8508,-0.8292,-0.7839,-0.7523,-0.7169,-0.6767,0.0,0.0,0.0,0.0,0.0,0.0,0.0,0.0,0.0,0.0,0.0,0.0,0.0,0.0,0.0,-0.9797,0.0,-1.0722,-1.0753,0.0,0.0,0.0,-1.0974,-1.1562,-1.1629,-1.1777,-1.2175,0.0,0.0,-1.1844,0.0,-1.1678,-1.1669,-1.1336,-1.1016,-1.0794,-1.0449,-1.0189,-0.9869,-0.9638,-0.9432,-0.9244,-0.8974,-0.8642,-0.8295,-0.8258,-0.7981,-0.754,-0.7322,-0.7068,-0.6715,-0.6534,-0.6413,-0.6273,-0.6297,-0.6242,-0.604,-0.5998,-0.5986,-0.6013,-0.6006,-0.5998,-1.2529,-1.2785,-1.2376,-1.2253,-1.2318,-1.2443,-1.2318,-1.2046,-1.2136,-1.193,-1.1542,-1.157,-1.1564,-1.1573,-1.1596,-1.1633,-1.168,-1.168,-1.196,-1.2395,-1.2417,-1.2657,-1.3083,-1.3116,-1.3106,-1.3116,-1.3138,-1.2907,-1.247,-1.2307,-1.1825,-1.1063,-1.0942,-1.0703,-1.0306,-1.0205,-1.0129,-1.0059,-0.9944,-0.9756,-0.9531,-0.9298,-0.9129,-0.9054,-0.8822,-0.8667,-0.8654,-0.8603,-0.8353,-0.7898,-0.7841,-0.7646,-0.7248,-0.7223,0.0,0.0,0.0,0.0,0.0,0.0,0.0,0.0,0.0,-0.9209,-0.9744,0.0,-0.9965,0.0,-1.0406,-1.0424,-1.0491,-1.0449,0.0,0.0,-1.1005,-1.1248,-1.184,-1.1891,-1.2063,-1.2455,-1.2511,-1.2567,-1.273,-1.2636,-1.2442,-1.2287,-1.1454,-1.08,-1.0595,-1.0296,-1.0021,-0.9851,-0.9618,-0.9406,-0.9365,-0.9097,-0.8765,-0.8363,-0.8245,-0.8127,-0.7891,-0.7649,-0.748,-0.7341,-0.7157,-0.691,-0.6555,-0.6512,-0.6339,-0.5908,-0.5839,-0.5921,-0.5928,-0.5881,-0.5827,-1.2876,-1.29,-1.2767,-1.2704,-1.2692,-1.2838,-1.2817,-1.2676,-1.2737,-1.2588,-1.23,-1.2328,-1.2306,-1.2306,-1.2306,-1.2338,-1.2358,-1.2364,-1.2544,-1.2861,-1.2867,-1.3048,-1.3363,-1.338,-1.3374,-1.338,-1.338,-1.3181,-1.2861,-1.262,-1.22,-1.1615,-1.1113,-1.0727,-1.0428,-1.0187,-1.0046,-1.0008,-0.9867,-0.971,-0.9504,-0.9351,-0.919,-0.9106,-0.8925,-0.8784,-0.8703,-0.8667,-0.85,-0.8222,-0.8072,-0.7917,-0.7688,-0.7565,-0.7571,0.0,0.0,0.0,0.0,0.0,0.0,0.0,0.0,0.0,0.0,0.0,-1.0238,-1.0508,-1.0411,-1.0299,-1.0236,-1.0367,-1.0603,-1.0884,-1.114,-1.1518,-1.2122,-1.2186,-1.2335,-1.2771,-1.2778,-1.2797,-1.2918,-1.2739,-1.255,-1.2347,-1.1653,-1.1109,-1.0985,-1.0739,-1.0473,-1.0309,-1.0052,-0.9813,-0.9657,-0.9428,-0.9147,-0.8824,-0.869,-0.8539,-0.8205,-0.7978,-0.7804,-0.7554,-0.7338,-0.7112,-0.6831,-0.6514,-0.6206,-0.5969,-0.5741,-0.5663,-0.5718,-0.5706,-0.5659,-1.3211,-1.2985,-1.3147,-1.304,-1.2794,-1.2942,-1.3045,-1.31,-1.3163,-1.321,-1.321,-1.321,-1.321,-1.321,-1.321,-1.321,-1.321,-1.321,-1.3181,-1.3181,-1.3181,-1.3163,-1.3163,-1.3163,-1.3151,-1.3163,-1.3146,-1.3181,-1.3185,-1.2722,-1.2463,-1.2356,-1.1422,-1.0838,-1.0681,-1.0291,-1.0065,-0.9983,-0.9808,-0.9651,-0.9531,-0.9393,-0.9259,-0.9141,-0.9046,-0.8916,-0.8723,-0.8703,-0.8667,-0.8598,-0.8256,-0.8081,-0.8096,-0.7804,-0.7702,0.0,-0.8333,0.0,0.0,0.0,0.0,0.0,0.0,0.0,0.0,-1.0387,-1.03,-1.0155,-1.02,-1.018,-1.0077,-1.0508,-1.0803,-1.0884,-1.13,-1.1805,-1.2364,-1.2435,-1.2577,-1.2975,-1.2925,-1.2797,-1.2644,-1.2467,-1.2282,-1.2066,-1.1753,-1.1509,-1.1472,-1.1241,-1.1012,-1.0897,-1.0593,-1.0162,-0.9884,-0.974,-0.9553,-0.9326,-0.9191,-0.9019,-0.8483,-0.8326,-0.8111,-0.7666,-0.7444,-0.728,-0.7102,-0.6606,-0.6231,-0.6104,-0.5675,-0.5384,-0.5474,-0.551,-0.5479,-1.3883,-1.3919,-1.379,-1.3533,-1.3205,-1.3435,-1.3384,-1.3107,-1.3176,-1.321,-1.321,-1.321,-1.321,-1.321,-1.321,-1.321,-1.321,-1.321,-1.3176,-1.3118,-1.3124,-1.3066,-1.2954,-1.2954,-1.2954,-1.2948,-1.296,-1.3025,-1.3118,-1.3018,-1.2766,-1.24,-1.2174,-1.1623,-1.0737,0.0,0.0,0.0,-0.9769,-0.9684,-0.9651,-0.9468,-0.9347,-0.9259,-0.9149,0.0,-0.8858,-0.8745,-0.8667,-0.8603,-0.8527,0.0,0.0,0.0,0.0,0.0,0.0,0.0,0.0,0.0,0.0,0.0,-0.9637,-0.9769,-0.9982,-1.0091,-1.0084,-0.9918,-1.0456,-1.0713,-1.045,-1.087,-1.136,-1.1785,-1.1862,-1.2127,-1.2653,-1.2668,-1.2636,-1.2597,-1.2579,-1.2502,-1.2318,-1.2222,-1.2048,-1.1756,-1.1595,-1.1402,-1.1081,-1.1005,-1.0883,-1.0659,-1.0249,-0.9906,-0.9762,-0.9603,-0.9455,-0.9261,-0.9221,-0.909,-0.8806,-0.8656,-0.854,-0.8222,-0.8006,-0.7723,-0.7398,-0.7353,-0.7037,-0.6211,-0.5628,-0.5325,-0.5395,-0.5417,-0.5398,-1.4216,0.0,-1.4107,-1.3895,0.0,-1.357,-1.3472,-1.3342,-1.3241,-1.321,-1.321,-1.321,-1.321,-1.3181,-1.317,-1.3152,-1.3152,-1.3094,-1.303,-1.2995,-1.3007,-1.296,-1.2919,-1.2919,-1.2919,-1.2919,-1.2919,-1.2949,-1.3007,-1.3007,-1.2923,-1.2722,-1.2489,-1.208,-1.1548,-1.1272,-1.0734,-0.9912,-0.9782,-0.971,-0.9684,-0.9514,-0.9368,-0.9293,0.0,0.0,0.0,0.0,0.0,0.0,0.0,0.0,0.0,0.0,0.0,-0.8787,-0.8936,-0.9048,-0.9149,-0.9203,-0.9236,-0.9303,-0.9336,-0.9464,-0.9671,-0.9774,-0.9865,-1.0043,-1.0375,-1.0589,-1.0704,-1.1153,-1.1541,-1.1822,-1.2069,-1.231,-1.2549,-1.2514,-1.2437,-1.2354,-1.2276,-1.215,-1.206,-1.1913,-1.1741,-1.1569,-1.1351,-1.1126,-1.094,-1.084,-1.0687,-1.0361,-1.0019,-0.9689,-0.9545,-0.943,-0.933,-0.9201,-0.9121,-0.9008,-0.8838,-0.8692,-0.8541,-0.8353,-0.8135,-0.7891,-0.7645,-0.7644,-0.742,-0.6557,-0.5733,-0.5266,-0.5418,-0.5407,-0.5281,-1.4405,-1.4165,-1.4346,-1.428,-1.3982,-1.378,-1.3655,-1.36,0.0,0.0,0.0,-1.3181,-1.3181,-1.3146,-1.31,-1.3072,-1.3048,-1.296,-1.2884,-1.2884,-1.2884,-1.2884,-1.2867,-1.2849,-1.2849,-1.2867,-1.2867,-1.2884,-1.2884,-1.2884,-1.2943,-1.3029,-1.262,-1.238,-1.2314,-1.1824,-1.108,-1.0197,-0.9954,-0.9795,-0.9671,-0.9501,-0.9368,-0.9307,-0.9232,-0.9097,-0.8925,-0.8911,-0.8789,-0.8595,-0.8581,-0.8564,-0.8493,-0.8595,-0.8626,-0.8575,-0.8739,-0.8847,-0.8906,-0.8933,-0.8995,-0.9163,-0.924,-0.9358,-0.9542,-0.9614,-0.9829,-1.0343,-1.0436,-1.0644,-1.0995,-1.1458,-1.1714,-1.1708,-1.2101,-1.2324,-1.2306,-1.2198,-1.2126,-1.2108,-1.1986,-1.1853,-1.1829,-1.1606,-1.1429,-1.1362,-1.1102,-1.0826,-1.0783,-1.0668,-1.0448,-1.0097,-0.9826,-0.9565,-0.9328,-0.9248,-0.9177,-0.9129,-0.9013,-0.8851,-0.8692,-0.8561,-0.8406,-0.8205,-0.8049,-0.7884,-0.771,-0.7632,-0.7431,-0.6907,-0.5963,-0.5292,-0.5498,-0.5402,-0.5177,-1.4611,-1.4693,-1.4897,-1.4762,-1.4429,-1.4675,-1.4363,-1.3662,-1.3277,-1.3118,-1.31,-1.3118,-1.3036,-1.2943,-1.2925,-1.2943,-1.2919,-1.2919,-1.2884,0.0,-1.282,-1.2785,-1.2727,-1.2727,-1.2727,-1.2721,-1.2727,-1.2756,-1.2803,-1.2803,-1.2849,-1.2907,-1.2839,-1.2593,-1.2142,-1.1613,-1.1268,-1.1102,-1.0632,-1.0148,-0.963,-0.948,-0.9368,-0.9307,-0.9226,-0.9097,-0.8911,-0.8905,-0.8762,-0.8522,-0.8522,-0.8493,-0.8421,-0.843,-0.8439,-0.8425,-0.8511,-0.8569,-0.8589,-0.862,-0.889,-0.9376,-0.9515,-0.9625,-0.9817,-1.0,-1.0279,-1.0706,-1.1407,-1.1843,-1.1599,-1.1954,-1.2171,-1.2088,-1.211,-1.2089,-1.2006,-1.1901,-1.1868,-1.1868,-1.1788,-1.1671,-1.1567,-1.1389,-1.1185,-1.1016,-1.0845,-1.0625,-1.0428,-1.0278,-1.0147,-0.9998,-0.9726,-0.943,-0.9159,-0.9123,-0.9116,-0.8956,-0.892,-0.8785,-0.8582,-0.8459,-0.8324,-0.8086,-0.7908,-0.7704,-0.7551,-0.7423,-0.7223,-0.6857,-0.6282,-0.5914,-0.5634,-0.5412,-0.5204,-1.4505,-1.4707,-1.4782,-1.4829,-1.4818,-1.4828,-1.4341,-1.3486,-1.327,-1.3124,-1.299,-1.2984,-1.2943,-1.2849,-1.2803,-1.275,-1.2691,-1.265,-1.2621,-1.2585,-1.2567,-1.2556,-1.252,-1.2538,-1.252,-1.255,-1.2544,-1.2573,-1.2632,-1.265,-1.2715,-1.2838,-1.2884,-1.2779,-1.2534,-1.2283,-1.2003,-1.1683,-1.1158,-1.0607,-1.0053,-0.9891,-0.9663,-0.9324,-0.9203,-0.9075,-0.8925,-0.8803,-0.8681,-0.8518,-0.846,-0.8407,-0.8351,-0.8374,-0.8382,-0.8351,-0.8407,-0.8446,-0.8446,-0.871,-0.9109,-0.9625,-0.9757,-0.9983,-1.0357,-1.0313,-1.0438,-1.0863,-1.1352,-1.163,-1.1686,-1.1932,-1.204,-1.1979,-1.1967,-1.1906,-1.1851,-1.1715,-1.1634,-1.1621,-1.1504,-1.1397,-1.1287,-1.1134,-1.0967,-1.0797,-1.063,-1.0351,-1.0044,-0.9926,-0.9925,-0.9957,-0.9641,-0.9301,-0.9046,-0.9007,-0.8984,-0.8916,-0.8785,-0.8635,-0.8463,-0.8369,-0.8205,-0.7995,-0.7791,-0.7645,-0.7468,-0.7381,-0.7165,-0.6897,-0.6456,-0.6058,-0.5845,-0.5591,-0.5281,-1.4321,-1.4552,-1.4581,-1.4777,-1.5011,-1.4693,-1.4158,-1.3523,-1.3276,-1.3066,-1.2884,-1.2828,-1.2779,-1.2709,-1.265,-1.255,-1.2431,-1.236,-1.2335,-1.2347,-1.2335,-1.233,-1.2341,-1.2353,-1.2347,-1.2342,-1.2383,-1.2431,-1.2467,-1.2473,-1.2561,-1.2733,-1.282,-1.2832,-1.282,-1.2802,-1.2556,-1.2105,-1.1678,-1.1154,-1.0547,-1.0383,-1.007,-0.9606,-0.9347,-0.9169,-0.8979,-0.8744,-0.8558,-0.8451,-0.8384,-0.8328,-0.8267,-0.8275,-0.8275,-0.8233,-0.8365,-0.8488,-0.859,-0.8966,-0.9398,-0.9841,-1.0035,-1.0335,-1.0798,-1.0649,-1.0686,-1.1106,-1.1219,-1.1404,-1.1724,-1.1806,-1.1806,-1.1769,-1.1756,-1.1708,-1.1714,-1.1528,-1.1429,-1.141,-1.1274,-1.1112,-1.105,-1.0888,-1.0692,-1.0515,-1.0317,-1.0039,-0.9773,-0.9663,-0.9652,-0.9646,-0.9424,-0.9148,-0.8966,-0.8931,-0.8891,-0.883,-0.8635,-0.8471,-0.8373,-0.8254,-0.8068,-0.7882,-0.7732,-0.7566,-0.7423,-0.7279,-0.7125,-0.6871,-0.6515,-0.6182,-0.604,-0.5696,-0.5374,-1.4274,-1.4425,-1.4546,-1.4725,-1.4858,-1.4387,-1.418,-1.408,-1.3254,-1.2848,-1.2779,-1.2613,-1.2508,-1.2449,-1.2443,-1.2347,-1.2228,-1.2228,-1.218,-1.2126,-1.2131,-1.2126,-1.2131,-1.2174,-1.2222,-1.2222,-1.233,-1.2389,-1.2401,-1.2419,-1.2443,-1.2532,-1.2662,-1.2668,-1.2555,-1.2538,-1.2478,-1.2366,-1.2313,-1.1816,-1.0919,-1.0714,-1.0577,-1.0398,-0.9886,-0.9517,-0.9293,-0.8834,-0.8516,-0.8333,-0.827,-0.8208,-0.8146,-0.8024,-0.7966,-0.8001,-0.8364,-0.8743,-0.9099,-0.9327,-0.9677,-1.0112,-1.0358,-1.0632,-1.1098,-1.1119,-1.1286,-1.1571,-1.1693,-1.1702,-1.1789,-1.1788,-1.1732,-1.1664,-1.1589,-1.1485,-1.1434,-1.1314,-1.1241,-1.1223,-1.105,-1.0926,-1.0864,-1.0602,-1.0307,-1.0132,-0.9965,-0.9773,-0.9634,-0.943,-0.9246,-0.9165,-0.9116,-0.9052,-0.8821,-0.8842,-0.8765,-0.8606,-0.8492,-0.8356,-0.8212,-0.8047,-0.7874,-0.7732,-0.7566,-0.7398,-0.73,-0.7139,-0.6938,-0.6802,-0.659,-0.6357,-0.6046,-0.5719,-0.5458,-1.4051,-1.4174,-1.4309,-1.4518,-1.4663,-1.4586,-1.435,-1.4078,-1.3683,-1.3166,-1.26,-1.2478,-1.2321,-1.2108,-1.2102,-1.2048,-1.1967,-1.1967,-1.1949,-1.1912,-1.1923,-1.1923,-1.1918,-1.1949,-1.1961,-1.1967,-1.2009,-1.2112,-1.2233,-1.2353,-1.2425,-1.2431,-1.2496,-1.2484,-1.2443,-1.2437,-1.2401,-1.2282,-1.224,-1.1966,-1.1526,-1.1198,-1.0861,-1.0463,-1.0073,-0.9826,-0.9695,-0.9412,-0.9156,-0.9015,-0.8952,-0.8863,-0.8762,-0.87,-0.8668,-0.8678,-0.8844,-0.9161,-0.9582,-0.9687,-0.9937,-1.0421,-1.0614,-1.0814,-1.1,-1.1142,-1.1279,-1.141,-1.1442,-1.1448,-1.1448,-1.1442,-1.1429,-1.1392,-1.136,-1.1317,-1.129,-1.1112,-1.1026,-1.1012,-1.0826,-1.0673,-1.0549,-1.0303,-1.0059,-0.9872,-0.9742,-0.9634,-0.943,-0.9221,-0.9044,-0.8919,-0.8915,-0.8841,-0.8675,-0.8639,-0.8586,-0.8467,-0.8353,-0.8212,-0.7961,-0.7861,-0.7712,-0.7562,-0.7395,-0.7297,-0.7304,-0.7069,-0.6851,-0.6717,-0.655,-0.6362,-0.6139,-0.5926,-0.5763,-1.3868,-1.3944,-1.4098,-1.4262,-1.4441,-1.454,-1.4364,-1.4005,-1.3867,-1.336,-1.2651,-1.2381,-1.2091,-1.1869,-1.1812,-1.1754,-1.1695,-1.1701,-1.1677,-1.1634,-1.1639,-1.1639,-1.1634,-1.1682,-1.1695,-1.1721,-1.1745,-1.1874,-1.2034,-1.2186,-1.2276,-1.2276,-1.2317,-1.23,-1.2252,-1.227,-1.2204,-1.2089,-1.2034,-1.1932,-1.176,-1.1491,-1.1131,-1.0727,-1.036,-1.0145,-1.0056,-0.9777,-0.9565,-0.9426,-0.9342,-0.9263,-0.9162,-0.9116,-0.9131,-0.9227,-0.9219,-0.9441,-0.9923,-0.9984,-1.0166,-1.0508,-1.0717,-1.0816,-1.085,-1.0975,-1.108,-1.1085,-1.1109,-1.1152,-1.1209,-1.1209,-1.1209,-1.1209,-1.1161,-1.1123,-1.1118,-1.0937,-1.0821,-1.0807,-1.0664,-1.0482,-1.023,-1.0019,-0.9847,-0.9678,-0.9599,-0.947,-0.9205,-0.904,-0.8927,-0.8737,-0.8643,-0.8578,-0.85,-0.8492,-0.8443,-0.8304,-0.8167,-0.7965,-0.7732,-0.767,-0.752,-0.7328,-0.7206,-0.715,-0.7124,-0.6973,-0.6745,-0.6575,-0.6425,-0.6319,-0.6189,-0.6063,-0.5916,-1.3792,-1.381,-1.3949,-1.402,-1.401,-1.4044,-1.4028,-1.3927,-1.3543,-1.3298,-1.3085,-1.2334,-1.1862,-1.1682,-1.1564,-1.1482,-1.1427,-1.1416,-1.1341,-1.126,-1.1236,-1.1223,-1.1252,-1.1365,-1.1459,-1.1533,-1.1626,-1.1714,-1.1813,-1.1895,-1.1909,-1.1945,-1.2048,-1.2053,-1.1951,-1.1945,-1.1884,-1.1813,-1.1775,-1.1664,-1.1541,-1.1421,-1.1366,-1.1305,-1.088,-1.0455,-1.0194,-0.9764,-0.9456,-0.9244,-0.9211,-0.9123,-0.9045,-0.8918,-0.9023,-0.927,-0.9327,-0.9553,-1.0002,-1.0176,-1.0297,-1.0399,-1.052,-1.0616,-1.0645,-1.076,-1.0827,-1.0833,-1.089,-1.0971,-1.1128,-1.1147,-1.1166,-1.1142,-1.1012,-1.0907,-1.0912,-1.0731,-1.0621,-1.0612,-1.0516,-1.0293,-0.9955,-0.9797,-0.9658,-0.9499,-0.935,-0.9161,-0.9036,-0.8948,-0.8785,-0.859,-0.8463,-0.8341,-0.8177,-0.8247,-0.8259,-0.8122,-0.7919,-0.7712,-0.7649,-0.752,-0.7304,-0.7133,-0.7052,-0.6981,-0.694,-0.6813,-0.6581,-0.6425,-0.6334,-0.6224,-0.6114,-0.5962,-0.5836,-1.3462,-1.3539,-1.3592,-1.3668,-1.375,-1.3744,-1.3739,-1.3729,-1.3567,-1.3304,-1.2967,-1.2602,-1.2067,-1.1384,-1.132,-1.123,-1.1085,-1.1093,-1.1056,-1.1007,-1.1012,-1.105,-1.1126,-1.1193,-1.1236,-1.1322,-1.136,-1.1453,-1.1615,-1.1721,-1.1789,-1.1839,-1.1875,-1.1868,-1.1789,-1.1776,-1.1708,-1.1547,-1.152,-1.1434,-1.1292,-1.1155,-1.1083,-1.1115,-1.092,-1.0727,-1.065,-1.0356,-1.0115,-0.9917,-0.9875,-0.9806,-0.9657,-0.9591,-0.9606,-0.9734,-0.9758,-0.9843,-1.0011,-1.0074,-1.0127,-1.0215,-1.0337,-1.0423,-1.0481,-1.0582,-1.0664,-1.0688,-1.0683,-1.0746,-1.0808,-1.0885,-1.0899,-1.0827,-1.076,-1.0706,-1.0673,-1.0525,-1.0409,-1.038,-1.0161,-0.9905,-0.9797,-0.9581,-0.9377,-0.9201,-0.9125,-0.8996,-0.8846,-0.8728,-0.859,-0.8451,-0.8349,-0.8205,-0.8011,-0.8049,-0.8073,-0.7895,-0.7732,-0.7566,-0.744,-0.7283,-0.707,-0.6971,-0.6886,-0.6808,-0.6767,-0.6611,-0.6407,-0.6313,-0.6224,-0.6093,-0.5986,-0.5854,-0.5793,-1.3242,-1.3343,-1.3343,-1.3396,-1.3457,-1.3472,-1.3462,-1.3467,-1.3462,-1.3256,-1.2898,-1.2723,-1.221,-1.1512,-1.1303,-1.1063,-1.0818,-1.0797,-1.0802,-1.0783,-1.0812,-1.0869,-1.0931,-1.0931,-1.0975,-1.1031,-1.1118,-1.1255,-1.1392,-1.1496,-1.1547,-1.1615,-1.1602,-1.1584,-1.1533,-1.1522,-1.141,-1.1292,-1.1217,-1.1118,-1.1018,-1.0893,-1.0783,-1.075,-1.0731,-1.0717,-1.0706,-1.0577,-1.0414,-1.0244,-1.021,-1.0117,-0.9931,-0.9823,-0.9774,-0.9769,-0.9818,-0.9872,-0.9891,-0.9926,-0.998,-1.0054,-1.0142,-1.022,-1.0273,-1.0409,-1.0472,-1.0467,-1.05,-1.052,-1.0467,-1.051,-1.0573,-1.0568,-1.0544,-1.051,-1.0491,-1.0341,-1.0171,-1.0078,-0.9896,-0.9698,-0.9541,-0.9332,-0.9172,-0.9016,-0.8959,-0.883,-0.8643,-0.8545,-0.8419,-0.8279,-0.8126,-0.8002,-0.7833,-0.7808,-0.7821,-0.768,-0.7541,-0.7374,-0.7227,-0.7052,-0.6901,-0.6805,-0.6727,-0.6648,-0.6541,-0.6386,-0.6294,-0.6203,-0.6072,-0.5943,-0.5876,-0.579,-0.5731,-1.3194,-1.3165,-1.3189,-1.317,-1.3175,-1.317,-1.3199,-1.3175,-1.3194,-1.3078,-1.2878,-1.2582,-1.2255,-1.192,-1.1519,-1.108,-1.0753,-1.0661,-1.0603,-1.0563,-1.0563,-1.0577,-1.0582,-1.0602,-1.0678,-1.0739,-1.0959,-1.1102,-1.1185,-1.1198,-1.1223,-1.1204,-1.1236,-1.1217,-1.1214,-1.1145,-1.1121,-1.104,-1.0869,-1.0725,-1.0701,-1.0616,-1.0539,-1.0423,-1.0332,-1.0303,-1.0298,-1.0283,-1.0186,-1.0039,-1.0005,-0.9906,-0.9689,-0.9492,-0.9348,-0.9368,-0.9446,-0.9554,-0.9674,-0.9773,-0.9842,-0.9965,-0.9995,-1.0019,-1.0074,-1.021,-1.0269,-1.0196,-1.0269,-1.0332,-1.0181,-1.0162,-1.0259,-1.0505,-1.039,-1.0303,-1.0264,-1.0132,-0.9931,-0.9753,-0.9634,-0.9545,-0.9279,-0.9103,-0.8996,-0.8915,-0.8809,-0.8622,-0.8447,-0.8373,-0.8259,-0.8045,-0.7912,-0.7795,-0.767,-0.7545,-0.7492,-0.7443,-0.7304,-0.7181,-0.7037,-0.6886,-0.6756,-0.6653,-0.6596,-0.6517,-0.641,-0.6255,-0.6142,-0.605,-0.5922,-0.5836,-0.5795,-0.5755,-0.5715,-1.2735,-1.2735,-1.271,-1.273,-1.2735,-1.2706,-1.273,-1.271,-1.273,-1.2691,-1.2623,-1.2541,-1.2244,-1.1897,-1.1694,-1.1402,-1.1,-1.0741,-1.0446,-1.0219,-1.0191,-1.0225,-1.0273,-1.0351,-1.0481,-1.0621,-1.0711,-1.0788,-1.0845,-1.0845,-1.0888,-1.0969,-1.0988,-1.0945,-1.0864,-1.0845,-1.0807,-1.0741,-1.0597,-1.0505,-1.0482,-1.0346,-1.0235,-1.0176,-1.0049,-0.9941,-0.9906,-0.9921,-0.9906,-0.9797,-0.9719,-0.9587,-0.9432,-0.9348,-0.9304,-0.9304,-0.9332,-0.9372,-0.9432,-0.9525,-0.9649,-0.9758,-0.9827,-0.9902,-0.9985,-1.0039,-1.0074,-1.0034,-1.0098,-1.0093,-1.0059,-1.0034,-1.0069,-1.0196,-1.0132,-1.0078,-1.0034,-0.9906,-0.9684,-0.9457,-0.9297,-0.9172,-0.9068,-0.8915,-0.8769,-0.8692,-0.8565,-0.8427,-0.8291,-0.8184,-0.8053,-0.7825,-0.7729,-0.7607,-0.7458,-0.7311,-0.7217,-0.7171,-0.7073,-0.6971,-0.6847,-0.6763,-0.6629,-0.6526,-0.6468,-0.6364,-0.6255,-0.6145,-0.601,-0.5943,-0.5857,-0.5795,-0.5761,-0.5699,-0.5655,-1.2505,-1.2505,-1.2505,-1.2505,-1.2505,-1.2505,-1.2505,-1.2505,-1.2505,-1.2451,-1.2348,-1.2352,-1.2114,-1.1828,-1.1763,-1.1541,-1.1177,-1.0909,-1.0471,-1.0039,-1.0013,-1.0019,-1.0069,-1.0147,-1.0254,-1.039,-1.0409,-1.0448,-1.0558,-1.0553,-1.0602,-1.0659,-1.0678,-1.0635,-1.0548,-1.049,-1.0457,-1.0409,-1.0293,-1.0244,-1.0215,-1.0074,-0.9971,-0.9917,-0.9779,-0.9664,-0.9561,-0.9521,-0.9516,-0.9525,-0.9392,-0.9264,-0.9152,-0.9103,-0.9079,-0.9099,-0.9148,-0.9188,-0.9208,-0.9337,-0.9446,-0.9545,-0.9581,-0.9651,-0.973,-0.9765,-0.9789,-0.9754,-0.9794,-0.9794,-0.9754,-0.973,-0.973,-0.9734,-0.9842,-0.9823,-0.9754,-0.9605,-0.9426,-0.9237,-0.9052,-0.8955,-0.8874,-0.8716,-0.8565,-0.8467,-0.8345,-0.8221,-0.8102,-0.7981,-0.7808,-0.7638,-0.7517,-0.7391,-0.7265,-0.7094,-0.6943,-0.688,-0.6841,-0.6763,-0.666,-0.6611,-0.6523,-0.6441,-0.6361,-0.6279,-0.6193,-0.5992,-0.5836,-0.5793,-0.5774,-0.5715,-0.5674,-0.5628,-0.5564,-1.2451,-1.2455,-1.2455,-1.2431,-1.2431,-1.2426,-1.2402,-1.2431,-1.2426,-1.2269,-1.2126,-1.2076,-1.1943,-1.173,-1.1711,-1.1527,-1.1196,-1.1073,-1.0731,-1.021,-1.0022,-0.9977,-0.9955,-0.9961,-1.0034,-1.0123,-1.0127,-1.0186,-1.0303,-1.0303,-1.0303,-1.0322,-1.0303,-1.0264,-1.0239,-1.0137,-1.0103,-1.0088,-1.0,-0.9961,-0.9965,-0.9838,-0.9724,-0.9674,-0.9516,-0.9403,-0.9268,-0.9132,-0.9092,-0.9219,-0.9088,-0.8975,-0.8883,-0.8769,-0.874,-0.8777,-0.8895,-0.8975,-0.9016,-0.9152,-0.9293,-0.9308,-0.9328,-0.9304,-0.9383,-0.9459,-0.9503,-0.9399,-0.9463,-0.9478,-0.9379,-0.9359,-0.9344,-0.9324,-0.9506,-0.9541,-0.9324,-0.9241,-0.9141,-0.9016,-0.8923,-0.8822,-0.8688,-0.8512,-0.839,-0.8311,-0.816,-0.7995,-0.7891,-0.777,-0.7617,-0.7468,-0.7304,-0.7181,-0.7034,-0.6904,-0.6753,-0.6711,-0.665,-0.6568,-0.6511,-0.6465,-0.6398,-0.6316,-0.6255,-0.6193,-0.6083,-0.5884,-0.5774,-0.5752,-0.5712,-0.5653,-0.5588,-0.5542,-0.5453,-1.1902,-1.1902,-1.1927,-1.1902,-1.1898,-1.1902,-1.1932,-1.1902,-1.1927,-1.1898,-1.1798,-1.1794,-1.1748,-1.1698,-1.1669,-1.1632,-1.1445,-1.1215,-1.1048,-1.0716,-1.0159,-0.9892,-0.9789,-0.9773,-0.9867,-0.9976,-0.999,-1.0039,-1.0074,-1.0049,-1.0059,-1.0078,-0.9976,-0.9941,-0.9917,-0.9847,-0.9797,-0.9793,-0.969,-0.9645,-0.9617,-0.9506,-0.9397,-0.9321,-0.9201,-0.9101,-0.9004,-0.887,-0.8801,-0.8837,-0.8821,-0.8785,-0.8749,-0.8695,-0.8675,-0.8679,-0.874,-0.8781,-0.8825,-0.8967,-0.9072,-0.9088,-0.9184,-0.9304,-0.9304,-0.9339,-0.9344,-0.9304,-0.9339,-0.9315,-0.9279,-0.9248,-0.9161,-0.9049,-0.9185,-0.9266,-0.9116,-0.9004,-0.8927,-0.8789,-0.8635,-0.8533,-0.8447,-0.8279,-0.8111,-0.807,-0.7933,-0.7774,-0.7712,-0.7562,-0.7405,-0.721,-0.7063,-0.6946,-0.6826,-0.6696,-0.6586,-0.6541,-0.6459,-0.6377,-0.634,-0.634,-0.6233,-0.6107,-0.6107,-0.6065,-0.5954,-0.5801,-0.5777,-0.5688,-0.5604,-0.552,-0.5499,-0.5453,-0.5323,-1.1553,-1.1553,-1.1523,-1.1578,-1.1623,-1.1628,-1.1628,-1.1623,-1.1628,-1.1553,-1.1477,-1.1448,-1.1398,-1.1372,-1.1352,-1.1352,-1.1317,-1.1132,-1.0918,-1.0619,-0.9941,-0.9598,-0.9522,-0.9536,-0.96,-0.9695,-0.973,-0.971,-0.969,-0.971,-0.9715,-0.969,-0.9631,-0.9596,-0.9587,-0.9556,-0.9516,-0.9521,-0.9428,-0.9386,-0.9352,-0.9214,-0.9129,-0.9065,-0.8943,-0.8814,-0.8704,-0.8614,-0.8582,-0.8602,-0.8582,-0.8545,-0.8508,-0.848,-0.8504,-0.848,-0.8561,-0.8618,-0.8663,-0.8789,-0.8874,-0.889,-0.8999,-0.9014,-0.9039,-0.9039,-0.9039,-0.9039,-0.9035,-0.9035,-0.9043,-0.9007,-0.8959,-0.8862,-0.887,-0.8906,-0.8866,-0.8814,-0.8712,-0.8574,-0.8406,-0.8242,-0.8242,-0.8011,-0.7908,-0.7846,-0.7704,-0.7607,-0.7548,-0.737,-0.7196,-0.7021,-0.6877,-0.6781,-0.6678,-0.655,-0.6416,-0.6371,-0.6285,-0.6184,-0.6169,-0.6172,-0.6083,-0.5976,-0.5954,-0.5911,-0.5804,-0.5693,-0.5601,-0.5512,-0.5453,-0.5412,-0.5366,-0.5323,-0.5193,-1.1276,-1.1255,-1.1251,-1.1326,-1.1423,-1.1452,-1.1398,-1.1418,-1.1423,-1.1301,-1.115,-1.1078,-1.1023,-1.09,-1.0926,-1.0875,-1.0871,-1.0855,-1.0623,-1.0231,-0.9684,-0.9338,-0.9336,-0.9274,-0.9313,-0.9344,-0.9304,-0.9344,-0.9388,-0.9368,-0.9324,-0.9344,-0.9304,-0.9259,-0.9259,-0.9239,-0.9244,-0.9199,-0.9168,-0.9132,-0.908,-0.8943,-0.8846,-0.881,-0.8671,-0.8504,-0.841,-0.8353,-0.8361,-0.8439,-0.8382,-0.8308,-0.8212,-0.8188,-0.8188,-0.8225,-0.8361,-0.8439,-0.8484,-0.8586,-0.8679,-0.8683,-0.8695,-0.8691,-0.8752,-0.8752,-0.8772,-0.8777,-0.8712,-0.8736,-0.8724,-0.8679,-0.8663,-0.8627,-0.8517,-0.8513,-0.8582,-0.859,-0.852,-0.8377,-0.818,-0.8049,-0.7946,-0.7804,-0.767,-0.7663,-0.7499,-0.737,-0.729,-0.7143,-0.701,-0.6898,-0.6756,-0.6614,-0.6532,-0.6425,-0.6291,-0.6181,-0.6074,-0.6013,-0.5976,-0.5957,-0.5908,-0.5865,-0.5849,-0.5785,-0.5674,-0.5561,-0.5448,-0.5385,-0.5347,-0.528,-0.5193,-0.5149,-0.5041,-1.0998,-1.0994,-1.0998,-1.0998,-1.1027,-1.1027,-1.1023,-1.1023,-1.1019,-1.0972,-1.0922,-1.0824,-1.0769,-1.0718,-1.0624,-1.0594,-1.0573,-1.0574,-1.0422,-1.012,-0.9739,-0.9405,-0.9245,-0.9075,-0.9112,-0.9188,-0.9284,-0.9304,-0.9284,-0.9244,-0.9264,-0.9212,-0.9092,-0.9036,-0.898,-0.8926,-0.8846,-0.8821,-0.8825,-0.8821,-0.8781,-0.8663,-0.8549,-0.8496,-0.8296,-0.8165,-0.8107,-0.8086,-0.8082,-0.8103,-0.8086,-0.8045,-0.8049,-0.8045,-0.8045,-0.807,-0.8086,-0.8169,-0.827,-0.839,-0.8488,-0.8521,-0.859,-0.8691,-0.8691,-0.8671,-0.8675,-0.87,-0.8691,-0.8614,-0.8541,-0.8484,-0.8423,-0.8341,-0.823,-0.8144,-0.8169,-0.8323,-0.8327,-0.8126,-0.7933,-0.777,-0.777,-0.7579,-0.7482,-0.744,-0.729,-0.7115,-0.6992,-0.6914,-0.6802,-0.6693,-0.6568,-0.6425,-0.6337,-0.623,-0.612,-0.6013,-0.5927,-0.5838,-0.5804,-0.5782,-0.5755,-0.5736,-0.5744,-0.5655,-0.5545,-0.5474,-0.538,-0.5299,-0.5217,-0.513,-0.5065,-0.4978,-0.4888,-1.0488,-1.0462,-1.0488,-1.0543,-1.062,-1.062,-1.062,-1.0624,-1.0624,-1.0565,-1.0492,-1.0381,-1.0356,-1.0389,-1.0286,-1.0257,-1.0257,-1.0279,-1.0095,-0.9793,-0.9455,-0.9151,-0.8874,-0.8723,-0.8728,-0.8931,-0.8987,-0.9023,-0.9019,-0.9043,-0.8978,-0.8967,-0.889,-0.885,-0.8814,-0.874,-0.8675,-0.8618,-0.8586,-0.8549,-0.8467,-0.8333,-0.8251,-0.8197,-0.8049,-0.7946,-0.787,-0.7793,-0.7752,-0.7714,-0.7718,-0.7801,-0.7929,-0.7963,-0.7942,-0.7966,-0.8004,-0.8021,-0.8135,-0.818,-0.8234,-0.8267,-0.8345,-0.837,-0.837,-0.8366,-0.8366,-0.8374,-0.837,-0.8329,-0.8267,-0.8255,-0.8176,-0.8131,-0.8045,-0.7959,-0.7933,-0.8076,-0.8121,-0.7895,-0.7701,-0.7597,-0.7492,-0.7353,-0.7245,-0.7199,-0.7044,-0.6872,-0.6808,-0.6705,-0.6599,-0.6489,-0.634,-0.6212,-0.612,-0.6034,-0.5927,-0.5863,-0.5801,-0.5712,-0.565,-0.5647,-0.5623,-0.5628,-0.5612,-0.555,-0.5458,-0.5388,-0.5275,-0.5166,-0.5062,-0.5002,-0.4915,-0.4823,-0.4714,-0.9943,-0.9943,-0.9947,-1.0076,-1.0213,-1.0217,-1.0239,-1.0217,-1.0209,-1.0102,-0.9969,-0.9918,-0.9918,-0.9895,-0.987,-0.9866,-0.9866,-0.9858,-0.9705,-0.9508,-0.9104,-0.8852,-0.8604,-0.8408,-0.832,-0.8582,-0.8679,-0.8679,-0.8704,-0.8704,-0.8744,-0.8683,-0.8659,-0.8602,-0.8598,-0.857,-0.8492,-0.839,-0.8361,-0.8287,-0.8192,-0.8049,-0.7946,-0.7884,-0.7829,-0.775,-0.7645,-0.7576,-0.7464,-0.7391,-0.7391,-0.7558,-0.775,-0.7836,-0.7812,-0.7808,-0.7842,-0.7901,-0.7946,-0.7987,-0.8,-0.7996,-0.8017,-0.8021,-0.8037,-0.8058,-0.8058,-0.8058,-0.8058,-0.8058,-0.7996,-0.8024,-0.8004,-0.7963,-0.7942,-0.7818,-0.7725,-0.7799,-0.7757,-0.7666,-0.7443,-0.7269,-0.7217,-0.7118,-0.7027,-0.6919,-0.6766,-0.6648,-0.6584,-0.6496,-0.6364,-0.6297,-0.619,-0.608,-0.5992,-0.5908,-0.5801,-0.5709,-0.5672,-0.5585,-0.5499,-0.5499,-0.5474,-0.5474,-0.5455,-0.5415,-0.5352,-0.5241,-0.513,-0.5017,-0.4905,-0.4823,-0.4736,-0.4646,-0.4539,-0.9666,-0.9669,-0.9792,-0.9847,-0.9881,-0.9873,-0.9877,-0.9844,-0.9758,-0.9695,-0.9644,-0.9543,-0.9524,-0.9469,-0.9391,-0.9342,-0.9368,-0.9391,-0.941,-0.9275,-0.8894,-0.8586,-0.8576,-0.8136,-0.803,-0.8165,-0.8329,-0.8455,-0.8541,-0.8643,-0.8541,-0.8471,-0.8427,-0.8361,-0.821,-0.8124,-0.8169,-0.8124,-0.809,-0.8053,-0.7974,-0.7853,-0.7666,-0.7555,-0.7517,-0.7458,-0.744,-0.7437,-0.7416,-0.7416,-0.7391,-0.7412,-0.7458,-0.7475,-0.7475,-0.7538,-0.7572,-0.7655,-0.775,-0.7853,-0.7929,-0.7983,-0.7976,-0.7976,-0.7976,-0.7976,-0.7959,-0.7976,-0.7976,-0.7979,-0.7996,-0.7904,-0.7857,-0.777,-0.7655,-0.7548,-0.7471,-0.7454,-0.7458,-0.7374,-0.7147,-0.6969,-0.6964,-0.6911,-0.6805,-0.6699,-0.6556,-0.6453,-0.641,-0.6282,-0.611,-0.6086,-0.604,-0.5949,-0.586,-0.5782,-0.5699,-0.5604,-0.5539,-0.5455,-0.5391,-0.535,-0.5328,-0.528,-0.5301,-0.5304,-0.5219,-0.5113,-0.5,-0.4862,-0.4753,-0.4622,-0.4559,-0.4471,-0.432,-0.9387,-0.9387,-0.945,-0.9476,-0.9502,-0.948,-0.9476,-0.948,-0.9417,-0.9413,-0.9364,-0.9263,-0.9185,-0.9159,-0.9057,-0.9005,-0.9008,-0.9087,-0.9136,-0.9052,-0.8683,-0.8432,-0.8443,-0.7914,-0.7707,-0.7721,-0.7901,-0.8099,-0.8247,-0.8292,-0.8296,-0.8234,-0.8193,-0.8107,-0.8021,-0.8017,-0.7946,-0.7884,-0.7846,-0.7787,-0.7721,-0.7583,-0.7461,-0.7335,-0.722,-0.7178,-0.7125,-0.7065,-0.702,-0.7023,-0.7026,-0.7044,-0.7062,-0.7083,-0.7164,-0.7353,-0.7433,-0.7471,-0.7524,-0.7604,-0.7638,-0.7676,-0.7735,-0.7752,-0.7756,-0.778,-0.7825,-0.7821,-0.7769,-0.7752,-0.7731,-0.7676,-0.7604,-0.7566,-0.7475,-0.7363,-0.7241,-0.7175,-0.7118,-0.708,-0.6958,-0.6831,-0.6805,-0.673,-0.6584,-0.6459,-0.6328,-0.626,-0.6215,-0.6086,-0.5914,-0.589,-0.5887,-0.5801,-0.5712,-0.565,-0.559,-0.5496,-0.5429,-0.5345,-0.526,-0.5217,-0.5108,-0.5017,-0.5062,-0.5128,-0.5041,-0.4912,-0.4821,-0.4709,-0.4581,-0.4449,-0.4364,-0.4276,-0.4102,-0.9028,-0.905,-0.9077,-0.9077,-0.908,-0.9103,-0.908,-0.908,-0.9054,-0.9024,-0.9024,-0.8929,-0.8877,-0.885,-0.8778,-0.8725,-0.8752,-0.8827,-0.8813,-0.8651,-0.8316,-0.8115,-0.7928,-0.7626,-0.7311,-0.7367,-0.7402,-0.7582,-0.7855,-0.7963,-0.7946,-0.7901,-0.7893,-0.7893,-0.7855,-0.7814,-0.777,-0.7712,-0.7653,-0.7527,-0.737,-0.7311,-0.723,-0.7107,-0.6989,-0.6925,-0.6875,-0.6797,-0.6775,-0.6754,-0.6712,-0.6687,-0.669,-0.6666,-0.6854,-0.7185,-0.729,-0.7307,-0.7328,-0.7353,-0.7391,-0.745,-0.7464,-0.7464,-0.751,-0.7579,-0.7628,-0.7628,-0.7576,-0.7506,-0.751,-0.7426,-0.737,-0.7304,-0.7304,-0.7245,-0.7034,-0.6929,-0.6851,-0.6805,-0.6729,-0.6689,-0.662,-0.6471,-0.6325,-0.6257,-0.6126,-0.604,-0.5994,-0.5908,-0.5798,-0.5755,-0.5731,-0.565,-0.5583,-0.5494,-0.5434,-0.5388,-0.5301,-0.5239,-0.5152,-0.5106,-0.4973,-0.4842,-0.4884,-0.4927,-0.4818,-0.4733,-0.4646,-0.4537,-0.4386,-0.4254,-0.4166,-0.4036,-0.3884,-0.8474,-0.8497,-0.8629,-0.8653,-0.8679,-0.8649,-0.8679,-0.8656,-0.8553,-0.8477,-0.8501,-0.8477,-0.8474,-0.8421,-0.8421,-0.8424,-0.8424,-0.8415,-0.8332,-0.8126,-0.7795,-0.7575,-0.7396,-0.7106,-0.7012,-0.7031,-0.7042,-0.7252,-0.7485,-0.7638,-0.7655,-0.7607,-0.7607,-0.7548,-0.7576,-0.7534,-0.745,-0.744,-0.7419,-0.7286,-0.7087,-0.6989,-0.6893,-0.6772,-0.673,-0.6705,-0.6669,-0.6605,-0.6627,-0.6627,-0.6575,-0.6575,-0.6645,-0.6571,-0.662,-0.6769,-0.6872,-0.6995,-0.7052,-0.7122,-0.7209,-0.729,-0.7349,-0.7395,-0.7395,-0.7395,-0.7416,-0.7437,-0.7391,-0.7367,-0.7349,-0.7374,-0.7262,-0.7154,-0.7048,-0.6953,-0.679,-0.6727,-0.6645,-0.6489,-0.6416,-0.6422,-0.6392,-0.6215,-0.6062,-0.5994,-0.5927,-0.586,-0.5774,-0.569,-0.5717,-0.572,-0.558,-0.5496,-0.5431,-0.5342,-0.5301,-0.528,-0.5171,-0.5087,-0.4995,-0.4884,-0.4799,-0.4709,-0.4729,-0.4683,-0.4554,-0.4469,-0.4451,-0.4342,-0.4188,-0.4056,-0.3948,-0.3796,-0.3665,-0.8106,-0.8395,-0.8404,-0.8371,-0.8368,-0.8253,-0.8196,-0.8196,-0.8143,-0.8117,-0.8093,-0.8043,-0.7969,-0.7919,-0.7889,-0.7892,-0.7916,-0.7966,-0.7876,-0.7659,-0.7389,-0.7165,-0.6986,-0.6768,-0.666,-0.6689,-0.6732,-0.6798,-0.7076,-0.729,-0.7391,-0.7426,-0.7423,-0.7454,-0.7353,-0.7318,-0.7245,-0.7157,-0.7055,-0.6883,-0.6753,-0.6671,-0.6593,-0.6428,-0.6407,-0.6386,-0.6322,-0.6303,-0.6325,-0.6303,-0.6233,-0.6255,-0.6279,-0.6255,-0.6255,-0.6279,-0.6343,-0.6532,-0.6784,-0.6878,-0.696,-0.7002,-0.7083,-0.7122,-0.716,-0.7178,-0.7178,-0.7175,-0.7143,-0.7122,-0.7101,-0.7041,-0.6956,-0.6868,-0.6798,-0.6699,-0.6581,-0.6544,-0.6459,-0.6282,-0.6126,-0.6126,-0.6126,-0.6019,-0.5887,-0.5863,-0.5798,-0.5712,-0.5604,-0.5499,-0.5572,-0.5715,-0.5528,-0.532,-0.5255,-0.5188,-0.5174,-0.5108,-0.4973,-0.4886,-0.4772,-0.4661,-0.4576,-0.4513,-0.4469,-0.4381,-0.427,-0.4272,-0.4298,-0.4144,-0.3966,-0.3858,-0.375,-0.3617,-0.3485,-0.7652,-0.8052,-0.8029,-0.8008,-0.8035,-0.7857,-0.7797,-0.7794,-0.78,-0.78,-0.772,-0.7619,-0.7488,-0.7434,-0.7408,-0.744,-0.741,-0.7509,-0.7387,-0.7198,-0.7036,-0.6822,-0.6611,-0.6394,-0.6343,-0.6374,-0.6374,-0.6462,-0.6614,-0.6811,-0.6999,-0.723,-0.7164,-0.7188,-0.7185,-0.7107,-0.6977,-0.6859,-0.6678,-0.655,-0.6438,-0.6398,-0.6267,-0.6181,-0.6096,-0.6056,-0.5933,-0.5936,-0.5936,-0.5936,-0.589,-0.5911,-0.5933,-0.5908,-0.5908,-0.5933,-0.5976,-0.6105,-0.6358,-0.6511,-0.6599,-0.6687,-0.6775,-0.6896,-0.6907,-0.6922,-0.6922,-0.6925,-0.689,-0.6851,-0.6784,-0.6723,-0.6638,-0.6596,-0.6553,-0.645,-0.6367,-0.6328,-0.6239,-0.6083,-0.5924,-0.5836,-0.5814,-0.5774,-0.5731,-0.5709,-0.5669,-0.5585,-0.548,-0.535,-0.542,-0.5539,-0.542,-0.5212,-0.5123,-0.5058,-0.5019,-0.4956,-0.4823,-0.469,-0.4554,-0.4487,-0.4401,-0.4316,-0.4208,-0.4078,-0.3968,-0.4056,-0.4122,-0.3948,-0.3772,-0.3638,-0.3527,-0.3417,-0.3307,-0.7033,-0.7219,-0.7434,-0.7545,-0.7571,-0.7545,-0.7515,-0.7488,-0.7518,-0.744,-0.733,-0.7225,-0.7136,-0.7139,-0.7112,-0.7114,-0.7141,-0.7139,-0.6948,-0.6754,-0.6597,-0.638,-0.6158,-0.6013,-0.6,-0.604,-0.6037,-0.612,-0.6227,-0.6294,-0.6511,-0.6712,-0.6772,-0.6751,-0.6769,-0.6748,-0.666,-0.6498,-0.6334,-0.6249,-0.616,-0.6099,-0.597,-0.5879,-0.5836,-0.5795,-0.5739,-0.572,-0.5699,-0.5699,-0.5631,-0.5628,-0.5674,-0.5626,-0.5626,-0.5674,-0.5699,-0.5804,-0.5927,-0.6139,-0.6331,-0.6486,-0.6599,-0.6648,-0.6638,-0.6705,-0.673,-0.6681,-0.662,-0.6596,-0.6547,-0.6505,-0.6401,-0.6337,-0.6297,-0.6215,-0.6129,-0.6062,-0.5976,-0.586,-0.5728,-0.5642,-0.5599,-0.5558,-0.5561,-0.5561,-0.5515,-0.5431,-0.5371,-0.5265,-0.5268,-0.5314,-0.526,-0.5123,-0.499,-0.4927,-0.4845,-0.4779,-0.4668,-0.4515,-0.4384,-0.4296,-0.4206,-0.4054,-0.3926,-0.3796,-0.3709,-0.3772,-0.3792,-0.3687,-0.3554,-0.3439,-0.3304,-0.3194,-0.3108,-0.6512,-0.6566,-0.6672,-0.6866,-0.7147,-0.7028,-0.7004,-0.7004,-0.7001,-0.6974,-0.6923,-0.6864,-0.6837,-0.6839,-0.6866,-0.6837,-0.6839,-0.6842,-0.6577,-0.6351,-0.6192,-0.596,-0.5717,-0.5612,-0.5607,-0.569,-0.5707,-0.5761,-0.589,-0.5916,-0.5941,-0.611,-0.6354,-0.6499,-0.6499,-0.6407,-0.6267,-0.6114,-0.5983,-0.5919,-0.5774,-0.5731,-0.5626,-0.5496,-0.5496,-0.5499,-0.5458,-0.5461,-0.5442,-0.5439,-0.5371,-0.5393,-0.5415,-0.5366,-0.5391,-0.5436,-0.5439,-0.5458,-0.5564,-0.5774,-0.6026,-0.6142,-0.6236,-0.6282,-0.6303,-0.6282,-0.6282,-0.6257,-0.6279,-0.6252,-0.6212,-0.6187,-0.6145,-0.6102,-0.6016,-0.5957,-0.5893,-0.5825,-0.5739,-0.5628,-0.5539,-0.5453,-0.5412,-0.5391,-0.5391,-0.5391,-0.5345,-0.5301,-0.5219,-0.5157,-0.5157,-0.5113,-0.5062,-0.4901,-0.479,-0.4707,-0.4668,-0.4581,-0.4515,-0.4342,-0.4168,-0.4078,-0.399,-0.3816,-0.3683,-0.3573,-0.3507,-0.3483,-0.3461,-0.3418,-0.3328,-0.3214,-0.3103,-0.3015,-0.2929,-0.608,-0.6077,-0.6082,-0.6327,-0.6655,-0.6593,-0.6534,-0.6566,-0.6566,-0.6514,-0.6487,-0.6463,-0.6436,-0.6436,-0.6411,-0.6408,-0.6411,-0.6384,-0.6177,-0.6004,-0.5851,-0.567,-0.5465,-0.539,-0.5472,-0.5475,-0.55,-0.5596,-0.5666,-0.565,-0.5679,-0.58,-0.5949,-0.6083,-0.6153,-0.6065,-0.5881,-0.5707,-0.562,-0.5556,-0.5388,-0.5347,-0.5301,-0.5174,-0.5149,-0.5106,-0.5084,-0.5062,-0.5062,-0.5062,-0.506,-0.5084,-0.5084,-0.5106,-0.5087,-0.5089,-0.5113,-0.5118,-0.5246,-0.5496,-0.5747,-0.5841,-0.5911,-0.5938,-0.592,-0.5917,-0.5957,-0.5936,-0.5933,-0.589,-0.5871,-0.5865,-0.5801,-0.5736,-0.5715,-0.5653,-0.5612,-0.5547,-0.5482,-0.5396,-0.5352,-0.5328,-0.5282,-0.526,-0.5263,-0.5241,-0.52,-0.5154,-0.5113,-0.5048,-0.498,-0.4934,-0.4888,-0.4705,-0.4524,-0.4487,-0.4471,-0.4403,-0.4318,-0.4104,-0.3952,-0.3862,-0.3728,-0.3549,-0.3417,-0.335,-0.3304,-0.3281,-0.3235,-0.3191,-0.3102,-0.3037,-0.2926,-0.2839,-0.2817,-0.5795,-0.5791,-0.5795,-0.595,-0.6182,-0.6209,-0.6209,-0.6179,-0.6179,-0.6129,-0.6,-0.5896,-0.5843,-0.5845,-0.5898,-0.5896,-0.5896,-0.5862,-0.5739,-0.5624,-0.5582,-0.5508,-0.5437,-0.5362,-0.5283,-0.5464,-0.5415,-0.5378,-0.5434,-0.5407,-0.5435,-0.5442,-0.5496,-0.5616,-0.5682,-0.5577,-0.5444,-0.5341,-0.5283,-0.5198,-0.5105,-0.5055,-0.4966,-0.4899,-0.4881,-0.4848,-0.4808,-0.4781,-0.4788,-0.4783,-0.477,-0.4768,-0.4737,-0.4728,-0.4721,-0.471,-0.4695,-0.4728,-0.4846,-0.5268,-0.5425,-0.5501,-0.5588,-0.5636,-0.568,-0.568,-0.5655,-0.5612,-0.5655,-0.5612,-0.5566,-0.552,-0.5458,-0.5415,-0.5393,-0.5393,-0.5352,-0.5333,-0.5268,-0.5224,-0.5265,-0.5263,-0.5195,-0.513,-0.5135,-0.5116,-0.5053,-0.5007,-0.4985,-0.4915,-0.4845,-0.4779,-0.4712,-0.4487,-0.4327,-0.4314,-0.4274,-0.4228,-0.41,-0.3908,-0.3755,-0.3641,-0.3485,-0.3282,-0.3216,-0.3171,-0.3102,-0.3055,-0.2968,-0.2903,-0.2905,-0.284,-0.2751,-0.2707,-0.2661,-0.5209,-0.5207,-0.5207,-0.5258,-0.5365,-0.567,-0.5721,-0.5635,-0.5605,-0.558,-0.5527,-0.5475,-0.5475,-0.5475,-0.5449,-0.5449,-0.5452,-0.5473,-0.5406,-0.5231,-0.5221,-0.5085,-0.5019,-0.502,-0.5002,-0.4981,-0.4983,-0.5008,-0.4935,-0.5016,-0.4991,-0.495,-0.5047,-0.5187,-0.5453,-0.5512,-0.5441,-0.5323,-0.5209,-0.5065,-0.4935,-0.4826,-0.477,-0.4691,-0.4687,-0.4659,-0.4606,-0.4594,-0.457,-0.46,-0.4596,-0.4602,-0.4606,-0.4608,-0.4642,-0.465,-0.4658,-0.4716,-0.4796,-0.5,-0.5018,-0.5137,-0.5222,-0.5249,-0.5246,-0.5249,-0.5246,-0.5244,-0.5263,-0.5222,-0.5203,-0.5178,-0.5157,-0.5135,-0.5135,-0.5113,-0.5094,-0.5094,-0.5074,-0.5072,-0.5091,-0.5091,-0.5046,-0.4997,-0.4978,-0.4937,-0.4893,-0.4891,-0.4845,-0.4753,-0.4683,-0.46,-0.4513,-0.4288,-0.4132,-0.4072,-0.4034,-0.4012,-0.3882,-0.3733,-0.3578,-0.3442,-0.3284,-0.3103,-0.3059,-0.3015,-0.2903,-0.279,-0.2681,-0.2616,-0.264,-0.2662,-0.2593,-0.2571,-0.2571,-0.4763,-0.4763,-0.4761,-0.4736,-0.4736,-0.5152,-0.5258,-0.5091,-0.5034,-0.5034,-0.5007,-0.5036,-0.5007,-0.5005,-0.5032,-0.5005,-0.5034,-0.5032,-0.4986,-0.4824,-0.4828,-0.4746,-0.4677,-0.4618,-0.4675,-0.4626,-0.4624,-0.4641,-0.4664,-0.4639,-0.4649,-0.4658,-0.4622,-0.4831,-0.5064,-0.5121,-0.5122,-0.4965,-0.4835,-0.4722,-0.4602,-0.4509,-0.4413,-0.4409,-0.4386,-0.439,-0.4426,-0.4433,-0.4411,-0.4441,-0.4441,-0.4416,-0.4439,-0.4489,-0.4511,-0.4536,-0.458,-0.4621,-0.4672,-0.466,-0.4724,-0.4789,-0.4819,-0.4854,-0.4869,-0.4888,-0.4888,-0.4888,-0.4847,-0.4869,-0.4871,-0.4871,-0.4849,-0.4849,-0.4828,-0.4828,-0.4847,-0.4847,-0.4871,-0.4871,-0.4891,-0.4891,-0.4891,-0.4845,-0.4821,-0.4755,-0.4714,-0.4723,-0.4727,-0.4602,-0.4511,-0.4447,-0.4316,-0.4071,-0.3917,-0.3812,-0.3794,-0.3796,-0.3641,-0.3488,-0.3374,-0.3214,-0.3058,-0.2948,-0.2904,-0.2817,-0.2682,-0.2549,-0.2482,-0.2438,-0.2418,-0.2416,-0.2436,-0.2436,-0.2437,-0.4479,-0.4477,-0.4474,-0.4355,-0.4281,-0.4605,-0.4734,-0.4658,-0.4548,-0.4491,-0.4489,-0.4489,-0.446,-0.4463,-0.4465,-0.4463,-0.4462,-0.4462,-0.445,-0.4443,-0.4395,-0.4387,-0.4392,-0.438,-0.435,-0.4387,-0.4388,-0.4309,-0.4441,-0.436,-0.4365,-0.4392,-0.4356,-0.4436,-0.4501,-0.4504,-0.4567,-0.4522,-0.4448,-0.4354,-0.4231,-0.4043,-0.3982,-0.3985,-0.3982,-0.4004,-0.4002,-0.3997,-0.4009,-0.3999,-0.3963,-0.3954,-0.3998,-0.4093,-0.4166,-0.4223,-0.4311,-0.4377,-0.4431,-0.4416,-0.442,-0.4463,-0.4501,-0.4558,-0.4587,-0.4571,-0.4562,-0.4532,-0.4515,-0.4532,-0.4552,-0.4554,-0.4535,-0.4535,-0.4535,-0.4535,-0.4576,-0.4576,-0.4598,-0.462,-0.4661,-0.4683,-0.4685,-0.4683,-0.4721,-0.4685,-0.4642,-0.4613,-0.4572,-0.44,-0.4328,-0.4318,-0.412,-0.3854,-0.3724,-0.3615,-0.3525,-0.3505,-0.3391,-0.3236,-0.3101,-0.3013,-0.2904,-0.2794,-0.2728,-0.2639,-0.2503,-0.2414,-0.2348,-0.2305,-0.2286,-0.2286,-0.2328,-0.2327,-0.2306,-0.398,-0.3925,-0.3843,-0.3766,-0.3687,-0.3658,-0.3811,-0.4174,-0.4161,-0.4104,-0.3989,-0.3989,-0.3937,-0.3858,-0.3831,-0.3853,-0.3856,-0.386,-0.3858,-0.3858,-0.3856,-0.3859,-0.386,-0.3858,-0.3859,-0.3859,-0.3859,-0.3859,-0.3855,-0.3859,-0.3858,-0.3853,-0.3858,-0.3859,-0.383,-0.3803,-0.3951,-0.4084,-0.4021,-0.3968,-0.3874,-0.3711,-0.3662,-0.3632,-0.363,-0.368,-0.3732,-0.3764,-0.3793,-0.3913,-0.3949,-0.3955,-0.3987,-0.4014,-0.4042,-0.4071,-0.4128,-0.4151,-0.4212,-0.4157,-0.4151,-0.4177,-0.4163,-0.4157,-0.4218,-0.4256,-0.4222,-0.4226,-0.4189,-0.4208,-0.4216,-0.4184,-0.4174,-0.4186,-0.4186,-0.4206,-0.4248,-0.4338,-0.436,-0.4453,-0.4495,-0.4562,-0.4576,-0.4608,-0.4666,-0.4618,-0.4594,-0.4547,-0.4457,-0.4266,-0.4112,-0.4104,-0.3926,-0.3658,-0.3548,-0.3439,-0.3326,-0.3214,-0.3102,-0.3015,-0.2948,-0.2839,-0.2728,-0.2639,-0.2572,-0.2482,-0.2368,-0.2303,-0.2262,-0.2241,-0.2222,-0.2221,-0.222,-0.2241,-0.2241,-0.3418,-0.3357,-0.33,-0.3222,-0.3147,-0.2945,-0.3078,-0.3398,-0.352,-0.352,-0.3465,-0.3432,-0.3358,-0.3254,-0.3262,-0.3261,-0.3208,-0.323,-0.3249,-0.3247,-0.3247,-0.3249,-0.325,-0.3249,-0.3303,-0.3304,-0.3331,-0.3328,-0.3303,-0.3249,-0.3247,-0.3249,-0.3247,-0.3249,-0.3213,-0.3147,-0.3177,-0.3337,-0.345,-0.3489,-0.3436,-0.3302,-0.3275,-0.3249,-0.3249,-0.3327,-0.3434,-0.3434,-0.352,-0.3605,-0.3659,-0.3658,-0.3655,-0.3681,-0.3793,-0.3812,-0.3838,-0.3889,-0.3929,-0.3889,-0.3912,-0.391,-0.3845,-0.3801,-0.3857,-0.3931,-0.3959,-0.3965,-0.3906,-0.3865,-0.384,-0.3815,-0.3815,-0.3818,-0.3838,-0.3858,-0.3946,-0.4058,-0.4174,-0.4292,-0.4371,-0.4469,-0.4523,-0.4577,-0.4569,-0.4524,-0.4459,-0.4386,-0.43,-0.4136,-0.3956,-0.3832,-0.367,-0.3462,-0.3374,-0.3239,-0.3081,-0.297,-0.2905,-0.2817,-0.2752,-0.2684,-0.2573,-0.2483,-0.2394,-0.2304,-0.2238,-0.2241,-0.22,-0.2178,-0.2156,-0.2177,-0.22,-0.2222,-0.2222,-0.2854,-0.2816,-0.2825,-0.2731,-0.2596,-0.246,-0.2439,-0.2422,-0.2674,-0.2813,-0.283,-0.2859,-0.2799,-0.2736,-0.2747,-0.2676,-0.2654,-0.265,-0.2661,-0.2635,-0.2633,-0.2633,-0.2662,-0.2662,-0.2744,-0.2824,-0.2852,-0.2825,-0.2797,-0.2715,-0.2632,-0.2635,-0.2634,-0.2605,-0.2548,-0.2437,-0.2351,-0.2322,-0.2516,-0.2627,-0.2739,-0.2687,-0.2635,-0.2634,-0.2661,-0.2687,-0.2795,-0.285,-0.2906,-0.299,-0.3074,-0.3102,-0.3159,-0.3245,-0.3385,-0.3442,-0.3445,-0.3444,-0.347,-0.3449,-0.3481,-0.3482,-0.3522,-0.3464,-0.3493,-0.3667,-0.3717,-0.3657,-0.3606,-0.3578,-0.3559,-0.3601,-0.3625,-0.364,-0.3685,-0.3706,-0.3775,-0.3913,-0.4078,-0.4205,-0.4328,-0.4416,-0.4435,-0.4497,-0.4544,-0.4464,-0.436,-0.4271,-0.4184,-0.4073,-0.3815,-0.3599,-0.3476,-0.3314,-0.3174,-0.304,-0.2836,-0.2725,-0.2683,-0.2616,-0.2571,-0.2504,-0.2416,-0.2328,-0.224,-0.2198,-0.2131,-0.211,-0.2065,-0.2088,-0.2088,-0.2133,-0.2155,-0.2133,-0.2178,-0.2394,-0.2288,-0.2241,-0.2101,-0.1893,-0.1822,-0.1756,-0.166,-0.1707,-0.2007,-0.2372,-0.2413,-0.2361,-0.2264,-0.2291,-0.2222,-0.211,-0.2116,-0.2093,-0.2071,-0.2043,-0.2101,-0.2156,-0.2157,-0.2238,-0.2323,-0.2351,-0.2295,-0.2211,-0.21,-0.2015,-0.2015,-0.2016,-0.1988,-0.1847,-0.1708,-0.1541,-0.1429,-0.1456,-0.1734,-0.1929,-0.2014,-0.2015,-0.2015,-0.2014,-0.207,-0.2181,-0.2322,-0.2435,-0.2604,-0.2744,-0.2771,-0.28,-0.2857,-0.2885,-0.2914,-0.2914,-0.2913,-0.2913,-0.2913,-0.2913,-0.2913,-0.294,-0.3014,-0.3131,-0.3362,-0.3433,-0.3355,-0.3299,-0.3283,-0.3311,-0.3384,-0.3431,-0.3479,-0.3504,-0.3551,-0.3598,-0.3792,-0.3988,-0.413,-0.4276,-0.4327,-0.4366,-0.442,-0.4458,-0.4412,-0.4302,-0.4206,-0.4174,-0.4043,-0.3678,-0.3458,-0.3326,-0.3189,-0.3045,-0.2862,-0.2681,-0.257,-0.2547,-0.2458,-0.2368,-0.2283,-0.2218,-0.2175,-0.2087,-0.2043,-0.1975,-0.1885,-0.1885,-0.1929,-0.1953,-0.1975,-0.1975,-0.1975,-0.2088,-0.1853,-0.1795,-0.1704,-0.1569,-0.1389,-0.1321,-0.121,-0.1099,-0.1077,-0.1265,-0.1599,-0.1773,-0.1846,-0.1775,-0.1825,-0.1769,-0.1629,-0.1647,-0.1645,-0.1597,-0.154,-0.1625,-0.1653,-0.1681,-0.1822,-0.1878,-0.1822,-0.1738,-0.1653,-0.1485,-0.14,-0.14,-0.14,-0.1344,-0.1176,-0.1009,-0.0841,-0.0701,-0.0561,-0.0728,-0.1091,-0.1231,-0.1372,-0.14,-0.1428,-0.1483,-0.1568,-0.1708,-0.1847,-0.2044,-0.2211,-0.2267,-0.2267,-0.2296,-0.2296,-0.2296,-0.2296,-0.2296,-0.2297,-0.2297,-0.2297,-0.2297,-0.2296,-0.2373,-0.2484,-0.2696,-0.2829,-0.2744,-0.2836,-0.2839,-0.2913,-0.2991,-0.3048,-0.3079,-0.3205,-0.3304,-0.3399,-0.3572,-0.3772,-0.4005,-0.4106,-0.4139,-0.4174,-0.4257,-0.428,-0.4221,-0.4123,-0.4011,-0.3976,-0.3916,-0.3572,-0.3292,-0.3134,-0.3069,-0.2962,-0.2773,-0.2547,-0.2481,-0.2392,-0.2304,-0.2216,-0.2085,-0.1997,-0.1975,-0.1952,-0.1929,-0.184,-0.1726,-0.1749,-0.1839,-0.1839,-0.1839,-0.1817,-0.1817,-0.1907,-0.1345,-0.1321,-0.1255,-0.112,-0.1008,-0.0896,-0.0763,-0.0629,-0.0607,-0.0607,-0.0701,-0.1039,-0.1165,-0.1267,-0.1288,-0.1219,-0.1188,-0.1202,-0.1227,-0.115,-0.115,-0.1178,-0.1206,-0.1234,-0.1346,-0.1374,-0.129,-0.1234,-0.115,-0.0925,-0.0785,-0.0785,-0.0757,-0.0701,-0.0561,-0.0393,-0.0224,-0.0056,0.0056,0.0112,-0.014,-0.0449,-0.0673,-0.0785,-0.0813,-0.0869,-0.0925,-0.1009,-0.1176,-0.1372,-0.1567,-0.1652,-0.168,-0.1708,-0.168,-0.168,-0.168,-0.168,-0.168,-0.168,-0.168,-0.168,-0.1679,-0.1734,-0.1874,-0.1984,-0.2093,-0.2183,-0.2268,-0.2482,-0.2538,-0.265,-0.2689,-0.2794,-0.2923,-0.3077,-0.3227,-0.3377,-0.3585,-0.3818,-0.3881,-0.3914,-0.3995,-0.4073,-0.4045,-0.3986,-0.3884,-0.3748,-0.3652,-0.352,-0.3313,-0.3067,-0.286,-0.2823,-0.2808,-0.264,-0.2392,-0.226,-0.2193,-0.2128,-0.204,-0.1952,-0.1885,-0.1817,-0.1794,-0.1794,-0.1704,-0.1591,-0.1637,-0.1704,-0.1682,-0.1659,-0.1682,-0.1682,-0.1749,-0.0941,-0.0831,-0.0831,-0.0696,-0.0539,-0.0516,-0.036,-0.0157,-0.0135,-0.0135,-0.0157,-0.0225,-0.0427,-0.0812,-0.0878,-0.0834,-0.0747,-0.0763,-0.0669,-0.0589,-0.0645,-0.0701,-0.0785,-0.0785,-0.0897,-0.0869,-0.0757,-0.0617,-0.0533,-0.0336,-0.0168,-0.0168,-0.0168,-0.0056,0.014,0.028,0.0364,0.0533,0.0645,0.0701,0.0561,0.0252,-0.0084,-0.0168,-0.0168,-0.0196,-0.0224,-0.0308,-0.0448,-0.0645,-0.0896,-0.1037,-0.1065,-0.1093,-0.1093,-0.1064,-0.1064,-0.1064,-0.1064,-0.1064,-0.1065,-0.1065,-0.1092,-0.112,-0.1204,-0.1261,-0.1371,-0.14,-0.16,-0.2039,-0.2192,-0.2385,-0.2473,-0.258,-0.2716,-0.2905,-0.3064,-0.32,-0.3365,-0.3526,-0.3651,-0.371,-0.3772,-0.3811,-0.3783,-0.3715,-0.3577,-0.3467,-0.3355,-0.3203,-0.3047,-0.2817,-0.2592,-0.2528,-0.2499,-0.2422,-0.2236,-0.2082,-0.1972,-0.1927,-0.1906,-0.1861,-0.1772,-0.1682,-0.1682,-0.1704,-0.1591,-0.1456,-0.1456,-0.1502,-0.1479,-0.1456,-0.1502,-0.1524,-0.1547]}]]